[[[{"header":{"parameterUnit":"kt","parameterCategory":2,"dx":1,"dy":1,"la1":29.587661999999998,"la2":31.0,"lo1":-88.76705300000003,"lo2":-86.6583820000003,"nx":115,"ny":88,"refTime":"2022-10-11T12:00:00:Z","depth":0,"parameterNumber":1,"parameterNumberName":"U-component_of_WINDS"},"data":[-5.0397,-5.002,-5.002,-4.9034,-4.7835,-4.9224,-4.8063,-4.549,-4.6841,-4.6246,-4.4891,-4.4485,-4.4502,-4.429,-4.2347,-4.1375,-4.1193,-4.0015,-3.8642,-3.8067,-3.9215,-3.8412,-3.8009,-3.8211,-3.6826,-3.5606,-3.4573,-3.4381,-3.2919,-3.3343,-3.3972,-3.3548,-3.1671,-2.9784,-2.7679,-2.5182,-2.3089,-2.1824,-2.0989,-1.993,-1.9723,-1.9088,-1.8445,-1.8016,-1.7801,-1.7372,-1.6284,-1.3239,-1.1723,-0.9776,-0.7202,-0.4623,-0.3767,-0.3563,-0.3353,-0.292,-0.2702,-0.2028,-0.1125,0.0675,0.3172,0.5964,0.852,1.1132,1.321,1.4483,1.5249,1.5249,1.5534,1.6014,1.6974,1.7212,1.7916,1.862,1.9086,2.0501,2.214,2.3539,2.5165,2.7481,3.0264,3.3051,3.4923,3.6035,3.7791,4.0213,4.2445,4.5314,4.8612,4.9933,5.0804,5.1247,5.1671,5.2306,5.3131,5.3322,5.4539,5.6158,5.8407,6.2473,6.6077,6.9012,7.0195,7.087,7.1898,7.3067,7.3418,7.3581,7.4086,7.5608,7.6945,7.8484,8.0216,8.2322,8.4433,-5.1839,-5.002,-5.002,-4.9831,-4.9622,-4.9831,-4.9622,-4.9053,-4.9433,-4.8236,-4.6823,-4.8254,-4.7854,-4.7033,-4.6035,-4.4679,-4.3526,-4.215,-4.2347,-4.2363,-4.2363,-4.1558,-4.1162,-4.0582,-3.9185,-3.7578,-3.5579,-3.479,-3.419,-3.419,-3.4177,-3.3767,-3.2302,-3.0625,-2.9149,-2.6853,-2.3926,-2.2877,-2.1407,-2.0357,-1.9723,-1.9295,-1.9081,-1.8653,-1.8016,-1.7372,-1.6511,-1.4986,-1.3686,-1.1515,-0.8702,-0.5898,-0.4166,-0.3515,-0.3305,-0.3088,-0.2876,-0.2209,-0.1323,-0.0221,0.178,0.4257,0.6496,0.908,1.1631,1.3393,1.4658,1.518,1.526,1.5766,1.6732,1.7449,1.8153,1.8863,1.9092,1.9558,2.1663,2.3764,2.5157,2.6795,3.0034,3.3519,3.4684,3.4923,3.6915,3.9334,4.1753,4.4627,4.7069,4.9256,5.0804,5.1459,5.1883,5.2499,5.3112,5.4123,5.5745,5.7164,5.8771,6.3195,6.6919,6.8536,6.9786,7.0613,7.1571,7.267,7.3137,7.3693,7.5238,7.6769,7.8312,7.9854,8.1587,8.3663,8.5563,-5.3077,-5.2337,-5.1278,-5.0774,-5.0774,-5.0566,-5.0378,-5.0378,-5.002,-4.9433,-4.8826,-4.9433,-4.9433,-4.8826,-4.7225,-4.6053,-4.5473,-4.429,-4.4307,-4.3917,-4.333,-4.3917,-4.2937,-4.1375,-4.0566,-3.8985,-3.6595,-3.4981,-3.4394,-3.419,-3.4381,-3.3972,-3.3548,-3.2083,-3.0406,-2.7898,-2.5383,-2.4128,-2.162,-2.057,-2.0357,-1.9937,-1.9716,-1.9295,-1.8653,-1.8016,-1.6935,-1.5422,-1.4339,-1.2601,-0.9563,-0.6311,-0.4575,-0.3707,-0.3271,-0.3053,-0.2834,-0.2616,-0.1745,-0.0875,0.044,0.3573,0.6064,0.8382,1.0889,1.1719,1.3176,1.4794,1.4867,1.5651,1.661,1.7388,1.7867,1.9295,1.9766,2.0251,2.1897,2.4232,2.6088,2.7713,3.0264,3.3508,3.4696,3.5151,3.6915,3.9334,4.243,4.5096,4.7501,4.9702,5.0804,5.1459,5.2077,5.2692,5.3705,5.5125,5.7144,5.8143,5.8953,6.278,6.6068,6.7857,6.9421,7.0169,7.108,7.2404,7.3427,7.4055,7.544,7.7719,7.9533,8.1205,8.3128,8.5407,8.6914,-5.5027,-5.4096,-5.2727,-5.1858,-5.1524,-5.0923,-5.0735,-5.0735,-5.0397,-5.019,-5.019,-5.019,-5.0001,-4.9793,-4.8408,-4.7817,-4.7435,-4.6666,-4.549,-4.5684,-4.5684,-4.607,-4.5102,-4.3917,-4.2347,-4.0582,-3.8985,-3.7578,-3.6958,-3.5769,-3.5172,-3.4381,-3.3972,-3.333,-3.1877,-2.9772,-2.7261,-2.5383,-2.3089,-2.2037,-2.162,-2.0989,-1.993,-1.9723,-1.9081,-1.8438,-1.7795,-1.6277,-1.5416,-1.3902,-1.0213,-0.7394,-0.5008,-0.4141,-0.3489,-0.3489,-0.3489,-0.2834,-0.1962,-0.1309,-0.0219,0.244,0.492,0.7726,0.9591,1.0384,1.1538,1.3353,1.4674,1.5688,1.6466,1.7022,1.7799,1.9463,2.0899,2.1633,2.2609,2.4932,2.7491,2.9332,3.1173,3.3039,3.4684,3.6035,3.7579,3.9571,4.2224,4.4877,4.6852,4.9702,5.0591,5.1671,5.2077,5.3477,5.471,5.6324,5.9336,6.0538,6.173,6.3129,6.5139,6.7126,6.8953,6.9725,7.1006,7.2533,7.3881,7.4582,7.6307,7.8741,8.0741,8.3397,8.559,8.6734,8.8219,-5.7807,-5.4378,-5.4096,-5.2935,-5.1672,-5.1111,-5.0677,-5.0735,-5.1033,-5.1111,-5.0697,-5.0735,-5.0735,-5.0359,-4.9793,-4.9414,-4.9034,-4.8844,-4.8445,-4.9433,-4.8635,-4.8426,-4.8045,-4.7243,-4.5085,-4.4485,-4.3297,-4.0551,-4.052,-3.874,-3.6378,-3.5008,-3.4599,-3.4177,-3.3138,-3.1246,-2.9149,-2.7062,-2.5594,-2.4128,-2.3512,-2.1832,-1.993,-2.0143,-1.9716,-1.9081,-1.8867,-1.8438,-1.8016,-1.6277,-1.367,-1.0421,-0.8042,-0.6311,-0.4141,-0.3489,-0.3489,-0.2834,-0.218,-0.1744,-0.0656,0.0656,0.2623,0.5323,0.763,0.8951,1.0327,1.1849,1.3959,1.5178,1.5982,1.6541,1.7295,1.8485,2.0929,2.2686,2.414,2.6293,2.8619,3.0724,3.2571,3.3964,3.5366,3.7166,3.8703,3.824,4.0241,4.3106,4.5734,4.9256,5.0573,5.1671,5.3286,5.5087,5.6119,5.794,6.0915,6.352,6.5117,6.6314,6.6314,6.7256,6.8532,6.9784,7.1286,7.2771,7.45,7.673,7.8363,7.9959,8.1967,8.521,8.7273,8.8424,8.9359,-5.8003,-5.6474,-5.4031,-5.3017,-5.2894,-5.2178,-5.1044,-5.0136,-5.0507,-5.0538,-5.0412,-5.1045,-5.1111,-5.0826,-5.0451,-5.0113,-4.9906,-4.9849,-4.9849,-4.9849,-4.9622,-4.9906,-4.9187,-4.7835,-4.6908,-4.5666,-4.429,-4.3214,-4.1921,-3.9939,-3.8339,-3.7174,-3.5199,-3.5008,-3.3972,-3.2495,-3.0613,-2.9565,-2.8524,-2.748,-2.6433,-2.5173,-2.3715,-2.2877,-2.2037,-2.0981,-1.9716,-1.8653,-1.8231,-1.758,-1.498,-1.1943,-0.9772,-0.7608,-0.5443,-0.3489,-0.3489,-0.3053,-0.2398,-0.1962,-0.1308,0.0,0.2201,0.3965,0.5753,0.7538,0.9147,1.0774,1.2823,1.4675,1.5477,1.6272,1.6768,1.7501,2.0443,2.3444,2.5632,2.7589,2.9721,3.2068,3.3473,3.4851,3.6475,3.8267,3.9375,4.0031,4.1574,4.4205,4.7285,4.9916,5.1016,5.1883,5.3876,5.6286,5.7513,5.8932,6.173,6.4126,6.6123,6.6909,6.7479,6.7878,6.8065,6.9482,7.1294,7.2689,7.4092,7.6825,7.9684,8.0255,8.1698,8.4989,8.7512,8.8902,8.9708,-5.8365,-5.8062,-5.5175,-5.4211,-5.438,-5.3216,-5.2175,-5.114,-5.1412,-5.1539,-5.1421,-5.1725,-5.1603,-5.1071,-5.0354,-4.9779,-4.9427,-4.9298,-4.9298,-4.9203,-4.8995,-4.9203,-4.8645,-4.7767,-4.726,-4.6335,-4.5735,-4.5057,-4.4146,-4.2692,-4.1297,-3.894,-3.6406,-3.5416,-3.4381,-3.3125,-3.2495,-3.1659,-3.082,-2.9565,-2.8513,-2.7271,-2.6214,-2.4972,-2.3917,-2.2665,-2.1194,-1.993,-1.8867,-1.8009,-1.5632,-1.2812,-1.0638,-0.8259,-0.5876,-0.3923,-0.3489,-0.3271,-0.2616,-0.1962,-0.1526,-0.0219,0.1319,0.2416,0.3499,0.5238,0.7888,0.9917,1.1946,1.3736,1.4709,1.5521,1.6291,1.7732,1.9927,2.2588,2.4958,2.7119,2.9298,3.1409,3.3161,3.4574,3.6224,3.8254,4.0838,4.243,4.422,4.7069,4.9488,5.0786,5.1671,5.2077,5.3895,5.6696,5.8123,6.0138,6.254,6.4753,6.5717,6.6696,6.7289,6.7691,6.7691,6.8609,7.0507,7.2109,7.3904,7.7525,8.1201,8.1555,8.23,8.5179,8.7821,8.9282,9.0228,-5.9844,-5.8412,-5.8225,-5.6819,-5.5377,-5.4401,-5.4157,-5.4435,-5.4816,-5.4692,-5.4227,-5.2643,-5.2374,-5.1685,-4.9574,-4.882,-4.8898,-4.832,-4.8179,-4.796,-4.8532,-4.7856,-4.7837,-4.7475,-4.7261,-4.75,-4.7542,-4.7062,-4.8084,-4.5885,-4.3211,-4.0474,-3.7736,-3.5931,-3.5335,-3.4533,-3.4177,-3.3138,-3.229,-3.1452,-3.082,-2.916,-2.8316,-2.7052,-2.5594,-2.4339,-2.2665,-2.0989,-1.9716,-1.8431,-1.6486,-1.3455,-1.0858,-0.8259,-0.5876,-0.4359,-0.3489,-0.3271,-0.2616,-0.1962,-0.1526,-0.0872,0.0,0.0218,0.1525,0.4136,0.5885,0.8079,1.0936,1.246,1.4203,1.5006,1.56,1.7253,1.9173,2.197,2.4301,2.6464,2.8845,3.1002,3.2732,3.4109,3.5724,3.9016,4.1799,4.36,4.5793,4.8461,5.0308,5.1635,5.1883,5.2288,5.4104,5.692,5.9516,6.173,6.3932,6.6123,6.6696,6.6886,6.7099,6.7691,6.8068,6.8869,7.0101,7.2203,7.4565,7.791,8.1423,8.3651,8.4435,8.6694,8.7892,8.9342,9.0682,-5.8677,-5.788,-5.6873,-5.6252,-5.6003,-5.5314,-5.5061,-5.4973,-5.4636,-5.4411,-5.4401,-5.4407,-5.4097,-5.3076,-5.1591,-5.0566,-5.1264,-5.0216,-4.9513,-4.9199,-4.9356,-4.8551,-4.77,-4.7514,-4.7248,-4.7533,-4.7799,-4.7913,-4.7769,-4.7448,-4.5611,-4.3039,-4.0335,-3.7663,-3.5818,-3.5404,-3.5159,-3.4329,-3.3959,-3.2907,-3.2508,-3.2083,-3.1039,-2.9357,-2.7689,-2.5594,-2.3715,-2.1824,-1.9716,-1.8867,-1.7352,-1.5189,-1.1718,-0.9339,-0.7391,-0.4575,-0.3489,-0.3489,-0.3052,-0.2398,-0.1744,-0.1308,-0.0872,-0.0436,0.0654,0.3048,0.4352,0.6089,0.914,1.0883,1.2196,1.4382,1.4916,1.4944,1.7476,2.1164,2.3492,2.5276,2.743,3.0825,3.2768,3.3726,3.5326,3.8955,4.2352,4.4597,4.686,4.9248,5.1353,5.1618,5.1883,5.2481,5.4085,5.7085,5.9897,6.2519,6.4901,6.7289,6.7479,6.7289,6.7691,6.8045,6.8445,6.9102,7.0508,7.2231,7.4794,7.7028,7.9049,8.1439,8.4331,8.6335,8.7855,8.9184,9.0436,-5.7886,-5.7735,-5.6754,-5.6522,-5.6817,-5.6403,-5.6296,-5.6107,-5.5691,-5.5383,-5.5384,-5.5174,-5.5187,-5.4367,-5.291,-5.1908,-5.2453,-5.136,-5.0851,-5.0449,-4.9704,-4.8853,-4.7926,-4.6938,-4.6527,-4.6679,-4.6982,-4.7058,-4.7058,-4.7353,-4.6584,-4.4998,-4.1618,-3.9235,-3.7795,-3.6353,-3.5887,-3.512,-3.5092,-3.4764,-3.4177,-3.3972,-3.333,-3.2071,-2.9784,-2.7689,-2.5383,-2.308,-2.0768,-1.9074,-1.8867,-1.6271,-1.2807,-1.0421,-0.8693,-0.5876,-0.3489,-0.3489,-0.3271,-0.2834,-0.1962,-0.1526,-0.109,-0.0436,0.0218,0.2178,0.3048,0.457,0.8262,1.022,1.087,1.3048,1.4565,1.4587,1.6784,2.0194,2.2897,2.4664,2.6835,3.0186,3.2216,3.3116,3.496,3.8367,4.1869,4.4516,4.7269,4.9629,5.1012,5.14,5.2245,5.3046,5.4615,5.7657,6.0296,6.2715,6.5117,6.7099,6.7691,6.7691,6.8045,6.8421,6.8982,6.9751,7.0833,7.1927,7.4155,7.6102,7.7486,7.9305,8.213,8.459,8.7162,8.9209,9.0681,-5.8036,-5.8061,-5.791,-5.791,-5.826,-5.8061,-5.8061,-5.7886,-5.7808,-5.7706,-5.7323,-5.6178,-5.5607,-5.514,-5.3382,-5.2947,-5.2903,-5.2311,-5.1806,-5.1244,-5.0226,-4.8779,-4.7635,-4.6277,-4.5521,-4.5293,-4.5749,-4.6223,-4.6223,-4.6679,-4.6222,-4.4506,-4.2803,-4.1103,-4.1235,-3.9223,-3.76,-3.6523,-3.6849,-3.5997,-3.4862,-3.4329,-3.4164,-3.3125,-3.1452,-2.9149,-2.6842,-2.455,-2.1816,-1.9708,-1.9081,-1.6922,-1.3681,-1.1727,-0.9559,-0.696,-0.4792,-0.3707,-0.3707,-0.3269,-0.2833,-0.2614,-0.1526,-0.0436,0.0654,0.196,0.3482,0.4787,0.7828,1.022,1.1303,1.2606,1.4112,1.5189,1.7339,2.0197,2.2768,2.4831,2.6957,2.9892,3.1026,3.2422,3.4913,3.7738,4.1153,4.4268,4.7198,4.9231,5.0451,5.1619,5.2925,5.431,5.5905,5.897,6.1687,6.352,6.5139,6.6696,6.7691,6.788,6.8233,6.8796,6.9541,7.0465,7.1745,7.3341,7.4582,7.5657,7.7495,7.9643,8.1661,8.4073,8.6965,8.9555,9.1859,-5.9374,-5.9252,-5.8312,-5.9179,-6.0974,-6.1118,-6.0396,-5.9521,-5.9399,-5.9006,-5.791,-5.7433,-5.7106,-5.6601,-5.497,-5.4326,-5.497,-5.4326,-5.37,-5.2754,-5.1457,-4.9658,-4.7872,-4.6432,-4.546,-4.5027,-4.5312,-4.5578,-4.5616,-4.5597,-4.5548,-4.5032,-4.3418,-4.2652,-4.2065,-4.0714,-3.9407,-3.8402,-3.7902,-3.6509,-3.6011,-3.5107,-3.4342,-3.3933,-3.229,-2.998,-2.7898,-2.5804,-2.2868,-2.0768,-1.9074,-1.7345,-1.4974,-1.2812,-1.0646,-0.8262,-0.6093,-0.5226,-0.501,-0.5441,-0.6955,-0.4135,-0.2614,-0.0218,0.1743,0.3048,0.4135,0.5439,0.8262,1.0437,1.0654,1.2606,1.4333,1.6259,1.8403,2.1391,2.3715,2.5813,2.809,2.9482,3.0299,3.1452,3.3856,3.5545,3.8814,4.1351,4.5187,4.8383,5.0198,5.207,5.3859,5.5955,5.7801,6.0422,6.3064,6.4298,6.5502,6.7076,6.7691,6.8068,6.8796,6.9355,7.0121,7.1563,7.3162,7.4783,7.5978,7.7181,7.848,8.0109,8.2453,8.5005,8.7574,8.9715,9.2369,-6.1301,-6.1015,-6.0226,-6.0949,-6.2601,-6.2487,-6.178,-6.0923,-6.0345,-5.9521,-5.871,-5.8186,-5.7886,-5.756,-5.6401,-5.6578,-5.7233,-5.6248,-5.5942,-5.4993,-5.37,-5.2074,-5.0631,-4.9004,-4.7394,-4.7415,-4.658,-4.6096,-4.5928,-4.5444,-4.575,-4.613,-4.5274,-4.4145,-4.2952,-4.2224,-4.119,-4.0404,-3.9675,-3.7991,-3.7171,-3.5488,-3.4838,-3.4094,-3.231,-3.1039,-2.8941,-2.7261,-2.4953,-2.2859,-2.2028,-2.0105,-1.7961,-1.6026,-1.3439,-1.0642,-0.8906,-0.7825,-0.7394,-0.8476,-0.9123,-0.6086,-0.3483,-0.0872,0.0871,0.2829,0.4352,0.6091,0.8482,1.0437,1.087,1.2606,1.4764,1.7124,1.9693,2.3115,2.5662,2.7732,2.9733,3.0185,3.0741,3.1098,3.2486,3.4087,3.6572,3.9059,4.3626,4.791,5.0477,5.2578,5.5795,5.8166,6.0598,6.3284,6.5174,6.5694,6.5886,6.6886,6.7691,6.8421,6.9355,7.0097,7.1356,7.3187,7.4809,7.5657,7.6866,7.8367,8.03,8.2204,8.4245,8.6066,8.771,8.9845,9.1932,-6.3383,-6.3244,-6.3244,-6.3218,-6.3244,-6.2881,-6.2767,-6.2627,-6.1184,-6.0609,-6.02,-5.8981,-5.861,-5.8162,-5.8137,-5.8012,-5.791,-5.791,-5.756,-5.6906,-5.5765,-5.4303,-5.3183,-5.1915,-5.0814,-5.0652,-4.9168,-4.8347,-4.8017,-4.6914,-4.6934,-4.7455,-4.6994,-4.5271,-4.4211,-4.3744,-4.3006,-4.2403,-4.1808,-4.0107,-3.8257,-3.6385,-3.5846,-3.4237,-3.3813,-3.31,-3.1039,-3.0406,-2.8733,-2.5794,-2.5182,-2.3494,-2.0941,-1.8795,-1.6442,-1.3655,-1.1934,-1.1074,-1.1074,-1.1507,-0.9992,-0.7391,-0.4787,-0.2395,0.0653,0.2394,0.3917,0.5439,0.935,1.087,1.1736,1.2601,1.4328,1.6474,1.9244,2.2665,2.5853,2.8161,2.9632,3.0464,3.0879,3.1098,3.2023,3.5524,3.8024,4.0383,4.4712,4.6809,4.967,5.2121,5.5905,5.9738,6.2407,6.4467,6.6424,6.7385,6.7269,6.7645,6.8374,6.9145,7.0257,7.1514,7.2779,7.4405,7.5831,7.6377,7.7379,8.0245,8.2779,8.4569,8.5747,8.6523,8.8104,8.9786,9.1592,-6.5801,-6.7044,-6.7044,-6.6885,-6.6623,-6.6519,-6.5829,-6.486,-6.4015,-6.3132,-6.2152,-6.1496,-6.0541,-5.9814,-5.9374,-5.8981,-5.8036,-5.7886,-5.7886,-5.7233,-5.5918,-5.4924,-5.4303,-5.289,-5.1799,-5.1318,-5.0771,-5.0427,-5.0124,-4.9637,-4.9352,-4.9394,-4.8594,-4.7101,-4.6096,-4.514,-4.4535,-4.3699,-4.3098,-4.1962,-4.0277,-3.7869,-3.6685,-3.5538,-3.4463,-3.2709,-3.1174,-3.1027,-2.9784,-2.748,-2.6653,-2.6024,-2.4321,-2.1766,-1.9222,-1.6657,-1.4742,-1.3886,-1.4759,-1.4764,-1.4328,-1.2159,-0.9339,-0.4997,-0.0217,0.435,0.6526,0.7831,1.1087,1.2385,1.3254,1.3475,1.4759,1.6461,1.8589,2.2207,2.5403,2.7313,2.8589,2.9829,3.0867,3.0879,3.3318,3.677,3.937,4.1739,4.3755,4.5823,4.8151,5.0352,5.4271,5.8827,6.1154,6.2679,6.4756,6.6686,6.7901,6.8601,6.9235,7.0257,7.2033,7.3494,7.4354,7.5605,7.7037,7.8367,8.0435,8.2907,8.5239,8.6077,8.6905,8.7519,8.8142,8.9848,9.1416,-6.775,-6.8605,-6.8478,-6.8321,-6.8065,-6.7908,-6.7362,-6.6519,-6.5695,-6.4833,-6.385,-6.302,-6.2064,-6.1067,-6.0345,-5.9935,-5.9839,-5.9129,-5.8858,-5.8511,-5.7841,-5.6762,-5.5871,-5.4838,-5.4349,-5.4193,-5.3206,-5.2665,-5.3183,-5.3048,-5.2256,-5.134,-4.9721,-4.8429,-4.7288,-4.5817,-4.514,-4.4591,-4.3972,-4.3006,-4.1591,-3.9731,-3.8078,-3.7497,-3.6557,-3.5179,-3.3924,-3.3306,-3.2458,-3.0406,-2.9379,-2.8535,-2.6832,-2.5154,-2.2419,-1.9633,-1.7741,-1.7339,-1.7587,-1.7372,-1.5853,-1.3902,-1.1939,-0.8243,-0.1954,0.2608,0.6308,0.8699,1.1087,1.2822,1.3475,1.3907,1.4974,1.6253,1.7747,2.0523,2.2436,2.5192,2.7951,2.9401,3.0855,3.2495,3.4533,3.7362,3.9754,4.2347,4.4959,4.7122,4.9239,5.0685,5.4071,5.8104,5.9901,6.1346,6.3702,6.5704,6.7115,6.8301,6.8932,7.1011,7.3265,7.5004,7.5753,7.6813,7.8036,8.0459,8.3616,8.5328,8.6373,8.7313,8.827,8.827,8.8535,9.0087,9.0864,-6.9345,-6.9277,-6.901,-6.8911,-6.8969,-6.8538,-6.8295,-6.8008,-6.6764,-6.5801,-6.5534,-6.4098,-6.3575,-6.2881,-6.1754,-6.147,-6.1496,-6.0949,-6.0345,-6.0226,-5.9763,-5.9054,-5.8561,-5.8336,-5.7638,-5.7288,-5.6001,-5.5918,-5.5788,-5.5635,-5.4862,-5.3296,-5.1501,-4.9721,-4.8264,-4.6619,-4.5121,-4.497,-4.4838,-4.3965,-4.2296,-4.1418,-4.0162,-3.9158,-3.837,-3.7545,-3.5774,-3.5922,-3.5458,-3.3894,-3.3369,-3.2314,-3.0613,-2.916,-2.6214,-2.3485,-2.1807,-2.0973,-1.8646,-1.7801,-1.6505,-1.5207,-1.3686,-1.1074,-0.6511,-0.152,0.3261,0.6089,0.9136,1.1308,1.2827,1.3691,1.3907,1.5195,1.6695,1.8189,2.0105,2.3494,2.6474,2.8359,3.1269,3.3318,3.5742,3.7937,4.0352,4.3346,4.614,4.877,5.0923,5.2476,5.5263,5.7628,5.9509,6.1402,6.3686,6.513,6.6395,6.7619,6.9209,7.1211,7.3109,7.4805,7.6047,7.7847,7.8819,8.0843,8.3569,8.5629,8.7374,8.8127,8.8586,8.8759,8.9183,8.9618,9.0207,-7.1334,-7.0614,-7.1414,-7.1849,-7.1675,-7.0804,-7.0311,-7.0065,-6.8467,-6.775,-6.7621,-6.7044,-6.6651,-6.6227,-6.4833,-6.3463,-6.2372,-6.2231,-6.1922,-6.178,-6.0923,-6.0779,-6.0805,-6.0371,-5.9496,-5.9374,-5.8561,-5.8015,-5.7614,-5.7034,-5.6143,-5.5017,-5.3296,-5.1522,-4.9721,-4.7933,-4.6303,-4.5479,-4.4989,-4.48,-4.3757,-4.2158,-4.0875,-4.0854,-3.8862,-3.7567,-3.66,-3.6791,-3.5908,-3.4809,-3.3767,-3.3163,-3.2326,-3.0429,-2.8118,-2.6004,-2.5182,-2.2453,-1.9716,-1.8231,-1.7795,-1.629,-1.4776,-1.3249,-1.0201,-0.586,-0.1086,0.3697,0.7611,1.0437,1.1524,1.2827,1.3691,1.4339,1.5416,1.7131,1.9251,2.2224,2.5192,2.8348,3.1464,3.4125,3.7132,3.954,4.1542,4.4358,4.7279,5.0113,5.1387,5.3056,5.5334,5.7462,5.936,6.1411,6.2757,6.4036,6.5896,6.7239,6.8989,7.1142,7.2984,7.4443,7.7059,7.9146,8.0083,8.1238,8.3212,8.5419,8.7168,8.8444,8.8901,8.9293,8.9896,9.037,9.0737,-7.2288,-7.1921,-7.2426,-7.232,-7.1726,-7.104,-7.0582,-6.9887,-6.908,-6.8605,-6.8478,-6.8193,-6.8065,-6.7649,-6.6782,-6.5962,-6.4995,-6.4452,-6.3904,-6.3602,-6.2881,-6.2741,-6.2064,-6.1638,-6.0897,-6.0465,-6.1327,-6.1041,-5.9471,-5.8932,-5.8164,-5.6961,-5.5102,-5.3228,-5.1501,-4.9721,-4.8409,-4.7767,-4.7415,-4.7081,-4.6116,-4.5064,-4.3333,-4.2813,-4.1226,-3.971,-3.8636,-3.7901,-3.6988,-3.532,-3.4225,-3.3959,-3.3356,-3.2302,-3.0832,-2.8941,-2.8107,-2.5594,-2.1391,-1.9914,-1.8853,-1.758,-1.6296,-1.477,-1.2591,-0.9336,-0.4997,-0.0435,0.391,0.7831,1.0224,1.1528,1.2822,1.3691,1.4776,1.5847,1.7761,2.1374,2.456,2.7533,3.0636,3.4112,3.7736,4.0535,4.2741,4.549,4.8426,5.0302,5.1574,5.3608,5.5994,5.7646,5.9003,6.0509,6.122,6.3344,6.5608,6.714,6.8768,7.1177,7.2887,7.3405,7.5846,7.8925,8.1151,8.2236,8.4146,8.5808,8.7338,8.8901,8.9293,8.9788,9.0486,9.1229,9.169,-7.3209,-7.2978,-7.3193,-7.2731,-7.1715,-7.1233,-7.0617,-6.9656,-6.9316,-6.8888,-6.8576,-6.8478,-6.8321,-6.8065,-6.8036,-6.7908,-6.7333,-6.6387,-6.5829,-6.5427,-6.4833,-6.4452,-6.3463,-6.3047,-6.2205,-6.1754,-6.2741,-6.3186,-6.1948,-6.1522,-6.02,-5.8709,-5.6865,-5.5032,-5.3341,-5.1661,-5.0512,-4.9558,-4.9537,-4.9046,-4.8078,-4.7081,-4.5837,-4.3579,-4.3164,-4.1976,-4.0394,-3.936,-3.8111,-3.617,-3.4731,-3.4107,-3.3597,-3.3571,-3.2316,-3.0433,-2.9182,-2.6318,-2.2265,-2.1268,-1.9626,-1.7996,-1.7157,-1.5847,-1.3896,-1.1074,-0.825,-0.4559,-0.0435,0.4131,0.8696,1.022,1.1524,1.3038,1.4339,1.5853,1.7345,2.0744,2.478,2.7323,3.0222,3.3305,3.693,4.0138,4.2741,4.5912,4.8617,5.0302,5.1946,5.4158,5.6354,5.765,5.8735,5.9285,6.0356,6.3229,6.5743,6.7226,6.8859,7.1241,7.2505,7.2853,7.4201,7.7312,7.9813,8.1908,8.4145,8.6401,8.8024,8.9418,8.9896,9.0276,9.1495,9.273,9.3016,-7.5208,-7.4396,-7.5439,-7.5747,-7.526,-7.3312,-7.2187,-7.1755,-6.9957,-6.9238,-6.9015,-6.8888,-6.9208,-6.8859,-6.8704,-6.8449,-6.8165,-6.775,-6.7231,-6.6811,-6.5829,-6.5589,-6.5617,-6.4888,-6.4015,-6.3988,-6.4561,-6.4015,-6.2794,-6.1948,-6.178,-6.1067,-5.9299,-5.7468,-5.5423,-5.3766,-5.2573,-5.1297,-5.0975,-5.0512,-4.9721,-4.8573,-4.6767,-4.4441,-4.3862,-4.253,-4.0849,-3.8894,-3.722,-3.5491,-3.434,-3.3349,-3.2891,-3.2539,-3.1727,-2.9763,-2.865,-2.6186,-2.2931,-2.0526,-1.8973,-1.7573,-1.7358,-1.6922,-1.6056,-1.3665,-1.085,-0.7816,-0.4344,-0.0217,0.4133,0.7831,1.0224,1.1741,1.4974,1.7124,1.9045,2.2011,2.5192,2.7742,3.0855,3.392,3.7146,4.0306,4.333,4.6123,4.8408,5.0677,5.2502,5.4523,5.6534,5.8005,5.8735,5.9285,6.1004,6.3605,6.6055,6.7636,6.8988,7.1025,7.2718,7.3453,7.4746,7.6972,7.9136,8.0738,8.3016,8.6002,8.83,8.9933,9.0931,9.1698,9.2855,9.4229,9.5206,-7.6059,-7.5651,-7.6169,-7.6019,-7.5208,-7.4188,-7.3241,-7.2527,-7.1385,-7.0965,-7.0935,-7.0935,-7.0935,-7.0935,-7.0784,-7.0207,-6.9744,-6.9466,-6.8743,-6.7621,-6.7073,-6.6679,-6.6736,-6.6416,-6.6255,-6.615,-6.6018,-6.5617,-6.4915,-6.448,-6.3655,-6.2907,-6.1948,-6.0269,-5.8707,-5.7867,-5.6082,-5.4699,-5.428,-5.3206,-5.1821,-5.0695,-4.9231,-4.7394,-4.5441,-4.4211,-4.2513,-4.016,-3.8216,-3.6867,-3.6221,-3.5666,-3.5261,-3.5314,-3.4538,-3.2799,-3.123,-2.8796,-2.431,-2.1981,-2.0223,-1.7295,-1.7055,-1.7108,-1.6511,-1.4703,-1.2361,-1.0201,-0.6727,-0.1737,0.4566,0.7828,1.0,1.1952,1.5189,1.7339,1.9259,2.2648,2.6043,2.9193,3.1683,3.4738,3.7908,4.1234,4.4223,4.6859,4.9168,5.2317,5.4158,5.5431,5.7271,5.8182,5.8735,6.0091,6.1964,6.4133,6.6787,6.8548,6.983,7.1424,7.3185,7.4335,7.549,7.7995,8.0478,8.1663,8.2722,8.578,8.8517,8.9948,9.1353,9.2872,9.3927,9.4474,9.5499,-7.6546,-7.6546,-7.6578,-7.5855,-7.5013,-7.4548,-7.3886,-7.3129,-7.2756,-7.2525,-7.261,-7.261,-7.2641,-7.261,-7.2379,-7.2177,-7.1264,-7.0693,-6.9961,-6.8391,-6.8264,-6.7649,-6.775,-6.7649,-6.7649,-6.7418,-6.7447,-6.7157,-6.6895,-6.6206,-6.5778,-6.4589,-6.3767,-6.3047,-6.1702,-6.0728,-6.003,-5.8857,-5.7865,-5.6201,-5.4193,-5.3115,-5.1843,-5.0512,-4.8223,-4.658,-4.4857,-4.2513,-4.0126,-3.8898,-3.8402,-3.7736,-3.7018,-3.72,-3.665,-3.535,-3.4447,-3.1445,-2.6862,-2.4548,-2.2406,-1.8757,-1.857,-1.7857,-1.7469,-1.5782,-1.4213,-1.1445,-0.8447,-0.3688,0.2607,0.5654,0.8479,1.1515,1.4543,1.7131,1.9259,2.2648,2.6254,2.9401,3.2302,3.4751,3.716,4.1052,4.4223,4.738,5.0432,5.3771,5.5431,5.6692,5.7805,5.8558,5.9742,6.1746,6.3583,6.5522,6.7942,6.9852,7.0831,7.2223,7.3693,7.4982,7.6244,7.8601,8.1272,8.2439,8.3003,8.5767,8.8124,8.9636,9.1027,9.276,9.4124,9.452,9.5366,-7.7094,-7.7025,-7.6822,-7.6649,-7.6274,-7.5121,-7.4438,-7.4077,-7.3294,-7.2839,-7.2954,-7.2725,-7.3098,-7.261,-7.3212,-7.2756,-7.241,-7.1621,-7.0784,-7.0084,-6.9371,-6.8995,-6.9342,-6.884,-6.8362,-6.8136,-6.7577,-6.7678,-6.7649,-6.726,-6.6707,-6.6283,-6.513,-6.4289,-6.3602,-6.2205,-6.1067,-6.032,-5.9177,-5.7865,-5.6786,-5.497,-5.3723,-5.2912,-5.0953,-4.884,-4.6688,-4.4214,-4.2862,-4.229,-4.0623,-3.9334,-3.7213,-3.6854,-3.6798,-3.6317,-3.3807,-3.1351,-2.8784,-2.5665,-2.3102,-2.1763,-2.1484,-2.136,-1.9414,-1.8835,-1.672,-1.2731,-1.1616,-0.7786,-0.2384,0.3478,0.6738,0.9126,1.3455,1.6695,1.9259,2.2656,2.5833,2.7951,3.2714,3.5566,3.7779,4.0184,4.3379,4.6841,4.9849,5.2647,5.4684,5.6871,5.816,5.8911,6.0934,6.3248,6.5004,6.6906,6.9124,7.0903,7.1717,7.333,7.4928,7.6871,7.7782,7.892,8.144,8.2977,8.3822,8.5412,8.7511,8.9298,9.0681,9.2551,9.4189,9.4264,9.4431,-7.7127,-7.7127,-7.7025,-7.7058,-7.6924,-7.6138,-7.5823,-7.5718,-7.5045,-7.4828,-7.4828,-7.486,-7.4828,-7.4828,-7.4828,-7.447,-7.3743,-7.3181,-7.2495,-7.1826,-7.1025,-7.0875,-7.1234,-7.0965,-7.0513,-7.0391,-7.0054,-6.9779,-6.9532,-6.9312,-6.8685,-6.795,-6.7377,-6.6595,-6.5589,-6.4643,-6.3629,-6.246,-6.147,-6.032,-5.9445,-5.7792,-5.7016,-5.6562,-5.5032,-5.3116,-5.0663,-4.7088,-4.5624,-4.6275,-4.5624,-4.4121,-4.2064,-4.1563,-4.0362,-3.8124,-3.5773,-3.2543,-2.9629,-2.6908,-2.437,-2.2597,-2.2672,-2.1561,-2.0064,-1.9718,-1.8702,-1.4405,-1.2716,-1.0042,-0.5791,-0.0648,0.434,0.8033,1.1732,1.4957,1.8831,2.2003,2.4771,2.793,3.1683,3.5185,3.6392,4.0917,4.4078,4.6438,4.966,5.2277,5.432,5.6692,5.869,5.9765,6.1474,6.3702,6.5585,6.7864,7.0263,7.1538,7.2766,7.5157,7.7225,8.0051,8.0723,8.1449,8.2559,8.3677,8.5115,8.6547,8.7959,8.8984,9.0361,9.1877,9.2914,9.3298,9.3508,-7.7595,-7.7428,-7.7361,-7.7228,-7.7228,-7.6924,-7.6854,-7.6784,-7.6546,-7.6338,-7.6338,-7.6371,-7.6234,-7.6371,-7.6338,-7.5855,-7.5013,-7.4548,-7.3855,-7.3181,-7.3067,-7.3325,-7.3181,-7.2839,-7.241,-7.2177,-7.159,-7.159,-7.1293,-7.0725,-7.0147,-6.9283,-6.8782,-6.8177,-6.7362,-6.6444,-6.5617,-6.4616,-6.3602,-6.2487,-6.1353,-6.0609,-6.0175,-6.003,-5.8139,-5.6586,-5.4962,-5.0567,-4.8902,-5.0209,-4.9558,-4.8037,-4.6018,-4.5045,-4.3494,-4.1077,-3.8622,-3.5384,-3.1731,-2.9208,-2.6824,-2.4214,-2.4723,-2.3518,-2.1209,-2.1543,-1.9929,-1.7011,-1.476,-1.2184,-0.8638,-0.4462,0.0643,0.6458,0.8143,1.1118,1.6304,2.1073,2.4752,2.7501,3.2277,3.5742,3.854,4.2054,4.5597,4.8279,5.1681,5.5069,5.5973,5.7783,5.972,6.0808,6.262,6.446,6.6482,6.8941,7.1207,7.2617,7.4756,7.7117,7.9631,8.1637,8.2378,8.3582,8.37,8.4285,8.5779,8.7004,8.8034,8.8939,8.9829,9.0403,9.1481,9.2258,9.2358,-7.8692,-7.7924,-7.766,-7.7628,-7.7628,-7.7396,-7.7228,-7.6854,-7.6854,-7.6649,-7.6442,-7.6474,-7.6442,-7.6371,-7.6371,-7.6338,-7.6097,-7.5121,-7.4548,-7.4688,-7.5335,-7.526,-7.4407,-7.3632,-7.3294,-7.287,-7.2294,-7.1944,-7.2061,-7.156,-7.0725,-7.0604,-6.9749,-6.8811,-6.8559,-6.7073,-6.6576,-6.6123,-6.4616,-6.3794,-6.3517,-6.1754,-6.0897,-6.0753,-5.9029,-5.7865,-5.7239,-5.4458,-5.264,-5.2503,-5.0975,-4.9637,-4.8017,-4.6038,-4.5064,-4.4195,-4.1095,-3.7898,-3.5578,-3.323,-3.1064,-2.9072,-2.8611,-2.8027,-2.5841,-2.4836,-2.3128,-1.9023,-1.7915,-1.5857,-1.1558,-0.8092,-0.4596,-0.0211,0.2928,0.6684,1.2246,1.9978,2.4469,2.7282,3.3204,3.8784,4.1036,4.3443,4.6734,4.9792,5.2607,5.4866,5.6333,5.8645,6.0415,6.2742,6.5054,6.6804,6.7896,7.0524,7.3742,7.5385,7.7587,7.9692,8.1854,8.1916,8.2164,8.3376,8.4201,8.4925,8.5857,8.6614,8.7589,8.8625,8.9101,8.9369,8.9976,9.065,9.1158,-7.9968,-7.97,-7.9519,-7.9553,-7.9519,-7.9279,-7.8814,-7.8181,-7.7923,-7.7363,-7.6752,-7.6681,-7.6546,-7.6474,-7.6371,-7.6371,-7.6338,-7.596,-7.5612,-7.5855,-7.6757,-7.6622,-7.5718,-7.5727,-7.5558,-7.5045,-7.447,-7.425,-7.4281,-7.3886,-7.3181,-7.2379,-7.1765,-7.1085,-6.9995,-6.9378,-6.9129,-6.8908,-6.7349,-6.6567,-6.6171,-6.4888,-6.3848,-6.3405,-6.1922,-6.049,-5.9177,-5.8115,-5.7366,-5.7167,-5.6514,-5.4583,-5.1783,-4.8471,-4.6096,-4.4536,-4.1598,-3.8992,-3.7575,-3.5773,-3.4151,-3.309,-3.2008,-3.0525,-2.8478,-2.6727,-2.4048,-2.0244,-1.8772,-1.6572,-1.2181,-0.901,-0.6992,-0.492,-0.1221,0.3255,0.7762,1.5153,2.0981,2.5963,3.0485,3.4905,3.9374,4.2692,4.6158,4.8488,5.2257,5.5633,5.7362,5.9697,6.1793,6.3991,6.6685,6.8471,6.962,7.2653,7.6064,7.8189,7.9914,8.1543,8.3137,8.2896,8.3137,8.4465,8.5523,8.633,8.6946,8.7469,8.7783,8.8229,8.9038,8.9174,8.9376,8.9882,9.0522,-8.0923,-8.0719,-8.0633,-8.0633,-8.0633,-8.0461,-8.0023,-7.9337,-7.8781,-7.8181,-7.7396,-7.6956,-7.6681,-7.6546,-7.6474,-7.6371,-7.6442,-7.723,-7.7397,-7.7497,-7.8018,-7.7759,-7.7029,-7.7397,-7.733,-7.641,-7.5992,-7.5749,-7.5644,-7.5505,-7.4969,-7.3886,-7.3407,-7.2579,-7.153,-7.1055,-7.0845,-7.0604,-6.9254,-6.8374,-6.8276,-6.6839,-6.5862,-6.5296,-6.3794,-6.232,-6.0897,-6.0753,-6.049,-5.9909,-6.0055,-5.8511,-5.4807,-5.0932,-4.7933,-4.574,-4.2825,-4.0746,-3.9185,-3.7575,-3.6489,-3.5414,-3.3998,-3.2333,-3.0645,-2.8676,-2.5711,-2.232,-2.021,-1.8031,-1.4128,-1.067,-0.8466,-0.817,-0.3978,0.0798,0.5637,1.0848,1.7045,2.3827,2.8693,3.3285,3.829,4.2345,4.6074,4.9396,5.3016,5.6354,5.8094,6.0068,6.2328,6.4294,6.7438,6.964,7.2128,7.5064,7.7981,7.9983,8.1292,8.2531,8.4116,8.4728,8.5443,8.6254,8.7078,8.785,8.8399,8.8802,8.9,8.9393,8.9683,8.9552,8.9261,8.9592,9.0215,-8.1403,-8.0649,-8.0685,-8.0496,-8.0512,-8.0615,-8.0479,-8.0064,-7.9361,-7.8968,-7.8436,-7.7396,-7.7127,-7.6822,-7.6891,-7.6617,-7.7062,-7.8654,-7.9327,-7.9236,-7.9327,-7.8841,-7.789,-7.7954,-7.7595,-7.6687,-7.617,-7.596,-7.6138,-7.5928,-7.5686,-7.5153,-7.4297,-7.36,-7.3067,-7.2,-7.1174,-7.0845,-6.9902,-6.9062,-6.8685,-6.7333,-6.6234,-6.5728,-6.4343,-6.3159,-6.2627,-6.2487,-6.1922,-6.0635,-6.0345,-5.9029,-5.6762,-5.3048,-4.9905,-4.7601,-4.574,-4.3151,-4.0222,-3.9537,-3.8655,-3.7397,-3.4918,-3.3664,-3.3104,-3.0749,-2.798,-2.5501,-2.3079,-2.0614,-1.7939,-1.4088,-1.0975,-0.9183,-0.6078,-0.0986,0.4589,0.7624,1.2369,2.1969,2.8521,3.4557,3.9509,4.3021,4.6767,5.1463,5.4925,5.7189,5.9703,6.2091,6.2983,6.4533,6.8157,7.1621,7.4443,7.74,7.9776,8.1823,8.3066,8.4189,8.598,8.659,8.7158,8.733,8.816,8.8601,8.9164,8.9295,8.9683,9.0309,9.0678,9.0734,9.0643,9.0609,9.0825,-7.9611,-7.9353,-7.9353,-7.9353,-7.9457,-8.0468,-8.0543,-7.9978,-8.0729,-8.0547,-7.9756,-7.9337,-7.9027,-7.8934,-7.8808,-7.8714,-7.8808,-7.9327,-7.9599,-7.9509,-8.0023,-7.979,-7.9001,-7.9428,-7.9245,-7.8469,-7.8277,-7.8148,-7.8148,-7.8084,-7.7563,-7.6761,-7.6217,-7.5442,-7.4423,-7.3868,-7.35,-7.316,-7.2091,-7.0995,-6.9995,-6.8656,-6.7333,-6.6234,-6.6726,-6.6744,-6.5745,-6.5238,-6.4452,-6.3432,-6.3293,-6.2258,-5.9884,-5.5553,-5.153,-4.8347,-4.6373,-4.4536,-4.3169,-4.1998,-4.1495,-4.1945,-3.8269,-3.5638,-3.5278,-3.1668,-2.8725,-2.6263,-2.3607,-2.0952,-1.9035,-1.8039,-1.5526,-1.0734,-0.7624,-0.3513,0.1943,0.4464,0.8693,1.5604,2.3737,3.106,3.6426,4.117,4.5822,5.0737,5.5901,6.0383,6.4063,6.6503,6.7761,6.9095,7.1634,7.3783,7.5339,7.9836,8.3486,8.5008,8.6218,8.7419,8.8599,8.8399,8.8567,8.8467,8.8768,8.9227,8.9518,8.9614,9.0182,9.0915,9.1446,9.1706,9.162,9.1671,9.1671,-7.8745,-7.8745,-7.8745,-7.8745,-7.885,-7.9836,-7.9902,-7.9422,-8.0057,-7.9966,-7.928,-7.8742,-7.8876,-7.923,-7.9402,-7.9768,-8.0283,-8.0067,-8.0291,-8.0889,-8.116,-8.0856,-8.0002,-8.0389,-8.0179,-7.9404,-7.9312,-7.9312,-7.9312,-7.9312,-7.8908,-7.8082,-7.7038,-7.6047,-7.5191,-7.4624,-7.4335,-7.412,-7.3314,-7.244,-7.153,-7.024,-6.8908,-6.7564,-6.8656,-6.8627,-6.7248,-6.6623,-6.5723,-6.4752,-6.4752,-6.3874,-6.1922,-5.8116,-5.3986,-4.98,-4.8368,-4.7188,-4.5889,-4.4251,-4.3739,-4.4384,-4.038,-3.7591,-3.652,-3.309,-2.9997,-2.8849,-2.602,-2.3001,-2.1667,-2.1639,-1.9525,-1.363,-1.1104,-0.7749,-0.0961,0.1726,0.4783,1.1277,1.9179,2.8121,3.4724,4.0105,4.4751,4.9616,5.4844,5.9524,6.3967,6.6954,6.8768,7.0902,7.3756,7.6,7.605,8.1825,8.5579,8.6783,8.8231,8.8618,8.8933,8.8708,8.9239,8.9246,8.9737,9.0206,9.0357,9.0574,9.1464,9.213,9.238,9.2544,9.213,9.2706,9.2625,-7.8569,-7.8463,-7.8498,-7.8358,-7.8534,-7.8604,-7.8605,-7.8535,-7.7959,-7.7517,-7.7504,-7.6542,-7.6667,-7.7889,-7.8407,-7.9449,-8.0714,-8.0636,-8.1333,-8.2587,-8.2454,-8.1935,-8.1126,-8.0821,-8.0389,-7.9768,-7.9768,-7.9677,-7.9587,-7.9495,-7.9438,-7.9245,-7.7115,-7.5658,-7.5175,-7.4342,-7.36,-7.3152,-7.2965,-7.2933,-7.2685,-7.1436,-7.0545,-7.0006,-6.9606,-6.8625,-6.7421,-6.6659,-6.5767,-6.4697,-6.4425,-6.3906,-6.2302,-6.0404,-5.69,-5.2215,-5.1668,-5.0567,-4.7956,-4.6038,-4.5064,-4.4706,-4.1945,-3.952,-3.8815,-3.5039,-3.323,-3.4346,-3.0711,-2.7559,-2.5361,-2.4998,-2.2575,-1.7524,-1.6712,-1.1413,-0.0775,-0.1356,0.2518,0.986,1.6596,2.4226,3.4726,3.977,4.4262,4.9257,5.3245,5.765,6.1783,6.4971,6.7972,7.1174,7.4647,7.8309,7.8994,8.2545,8.367,8.49,8.7432,8.7734,8.8101,8.8615,8.944,9.0092,9.0611,9.0976,9.1203,9.1772,9.2635,9.2866,9.3139,9.3408,9.3175,9.3638,9.3638,-7.5471,-7.5471,-7.5506,-7.5471,-7.5577,-7.6668,-7.7196,-7.7198,-7.8079,-7.8323,-7.8358,-7.8,-7.7579,-7.7058,-7.7131,-7.797,-7.9238,-7.9237,-8.0043,-8.134,-8.1183,-8.1471,-8.2165,-8.2154,-8.1842,-8.1479,-8.1362,-8.1362,-8.1396,-8.1396,-8.1026,-8.0146,-7.8751,-7.712,-7.5336,-7.4016,-7.2923,-7.1928,-7.1676,-7.1601,-7.1496,-7.1387,-7.128,-7.1068,-7.0053,-6.8941,-6.7823,-6.6231,-6.4795,-6.3695,-6.2781,-6.2027,-6.1445,-5.9946,-5.8085,-5.5946,-5.3042,-5.0726,-4.9602,-4.7856,-4.6934,-4.6767,-4.4761,-4.2699,-4.0834,-3.7995,-3.656,-3.666,-3.6367,-3.3767,-3.0046,-2.89,-2.7781,-2.4692,-1.9658,-1.5141,-0.9156,-0.5641,-0.097,0.7566,1.4379,2.0384,2.7175,3.5795,4.3997,5.0493,5.6052,6.1676,6.7767,7.0419,7.256,7.4501,7.6237,7.874,8.1477,8.4232,8.6925,8.7784,8.7714,8.8545,8.8636,8.9212,8.9972,8.9779,9.102,9.146,9.0872,9.2125,9.3384,9.3033,9.2875,9.2954,9.3714,9.3899,9.3935,-7.4882,-7.4918,-7.4645,-7.4463,-7.441,-7.5481,-7.584,-7.5647,-7.6562,-7.6914,-7.6947,-7.7368,-7.6935,-7.5935,-7.5935,-7.6653,-7.783,-7.7657,-7.8429,-7.9869,-7.9576,-8.0265,-8.1618,-8.1568,-8.1837,-8.2165,-8.2199,-8.2199,-8.2199,-8.2199,-8.1924,-8.1244,-7.9501,-7.8084,-7.6648,-7.5461,-7.41,-7.2701,-7.2964,-7.2151,-7.0527,-6.9932,-6.9798,-6.9965,-6.888,-6.7724,-6.6654,-6.4601,-6.2935,-6.1747,-6.0546,-5.9853,-5.97,-5.7988,-5.705,-5.6707,-5.3421,-5.1431,-5.1542,-4.9487,-4.8106,-4.8127,-4.6089,-4.4258,-4.2905,-4.0817,-3.8978,-3.8251,-3.7997,-3.5763,-3.0638,-3.064,-3.0383,-2.7732,-2.3757,-1.8597,-1.3249,-0.9524,-0.3488,0.6401,1.3862,2.0096,2.6036,3.5046,4.4028,5.1652,5.8003,6.3173,6.8265,7.1641,7.3346,7.4878,7.7527,8.0122,8.2477,8.5592,8.6662,8.7297,8.8102,8.8732,8.8539,8.9354,9.0016,8.9186,9.0452,9.1023,9.0296,9.1756,9.2606,9.233,9.2082,9.2819,9.3682,9.3899,9.326,-7.5772,-7.5717,-7.532,-7.4795,-7.4491,-7.4918,-7.4892,-7.4562,-7.4434,-7.4399,-7.4661,-7.5163,-7.5241,-7.4813,-7.4515,-7.4858,-7.5718,-7.5691,-7.6393,-7.7831,-7.7584,-7.8381,-7.989,-7.973,-8.0412,-8.1698,-8.2055,-8.2133,-8.2133,-8.2219,-8.2279,-8.2026,-7.9905,-7.8654,-7.8366,-7.7509,-7.6262,-7.472,-7.5225,-7.3461,-6.943,-6.7772,-6.7317,-6.7958,-6.6767,-6.5526,-6.4712,-6.2408,-6.0673,-5.9571,-5.8468,-5.7695,-5.7308,-5.5545,-5.4698,-5.5278,-5.3244,-5.2289,-5.266,-5.0406,-4.8816,-4.8515,-4.6233,-4.4553,-4.3779,-4.2854,-4.1351,-3.9069,-3.7358,-3.4297,-2.9528,-3.0787,-3.0665,-2.7845,-2.639,-2.2845,-1.4981,-1.1763,-0.6366,0.5818,1.4588,2.2082,2.7265,3.5911,4.4759,5.1681,5.849,6.4354,6.6879,7.0153,7.3214,7.4549,7.8207,8.2001,8.3112,8.3577,8.4931,8.5482,8.6694,8.7552,8.808,8.9149,9.0393,8.9331,9.0451,9.0706,9.0627,9.0904,9.1064,9.1323,9.1834,9.2592,9.3335,9.337,9.2548,-7.5826,-7.5826,-7.5699,-7.5588,-7.5476,-7.5588,-7.5552,-7.5476,-7.5384,-7.5476,-7.5276,-7.3995,-7.3287,-7.3042,-7.1501,-7.0949,-7.1141,-7.1114,-7.1958,-7.3359,-7.3558,-7.4908,-7.6956,-7.7581,-7.8356,-7.9588,-8.0963,-8.1633,-8.1738,-8.2463,-8.2797,-8.2574,-8.1067,-7.9575,-7.8533,-7.7596,-7.5847,-7.3262,-7.2077,-7.0458,-6.8276,-6.7049,-6.6553,-6.6604,-6.5021,-6.4032,-6.3733,-6.124,-5.966,-5.9321,-5.766,-5.6762,-5.6541,-5.5106,-5.4158,-5.3718,-5.2287,-5.1093,-5.0736,-4.9389,-4.8027,-4.6716,-4.6013,-4.4801,-4.2733,-4.2803,-4.2424,-4.0325,-3.8437,-3.5356,-3.1111,-3.0793,-2.993,-2.647,-2.6454,-2.3783,-1.7198,-1.3865,-0.8351,0.194,1.3761,2.1735,2.5641,3.4564,4.399,4.9775,5.8145,6.5634,6.9431,7.4133,7.7222,7.8588,8.1011,8.3534,8.3815,8.5293,8.6228,8.6128,8.7147,8.7663,8.7705,8.8253,8.8746,8.8469,8.9122,8.9762,8.9414,9.0013,9.0726,9.0819,9.1071,9.1479,9.1686,9.1489,9.0825,-7.6771,-7.676,-7.6517,-7.6481,-7.6676,-7.6038,-7.5826,-7.5771,-7.4818,-7.4356,-7.4235,-7.3194,-7.2548,-7.2256,-7.1184,-7.05,-7.0255,-7.022,-7.0682,-7.1559,-7.158,-7.2747,-7.4672,-7.5024,-7.5781,-7.7049,-7.81,-7.8491,-7.8432,-7.9044,-7.913,-7.8709,-7.8055,-7.7109,-7.6112,-7.5572,-7.4173,-7.1855,-7.0225,-6.8543,-6.689,-6.5585,-6.4855,-6.4529,-6.3235,-6.2335,-6.1879,-5.9698,-5.8291,-5.7847,-5.6184,-5.5095,-5.486,-5.3169,-5.1942,-5.1526,-5.0464,-4.9785,-4.9416,-4.891,-4.762,-4.5569,-4.5201,-4.361,-3.9916,-3.997,-3.9495,-3.78,-3.7207,-3.5815,-3.3502,-3.2568,-3.124,-2.9031,-2.7402,-2.4319,-1.8682,-1.4445,-0.8475,0.0758,1.0948,1.8785,2.3315,3.4835,4.4889,5.3676,6.1918,6.9397,7.3456,7.9074,8.2989,8.3338,8.4672,8.5704,8.5936,8.7023,8.755,8.742,8.7819,8.8058,8.7912,8.8241,8.839,8.8101,8.8542,8.8932,8.87,8.9185,8.9528,8.9662,8.9979,9.0376,9.0453,9.0617,9.032,-7.7793,-7.7531,-7.6954,-7.6851,-7.6964,-7.5838,-7.535,-7.5271,-7.3491,-7.2681,-7.2681,-7.2421,-7.2029,-7.1595,-7.133,-7.0896,-7.0489,-7.0345,-7.0417,-7.0453,-7.0315,-7.1055,-7.2423,-7.2351,-7.3032,-7.4517,-7.484,-7.4797,-7.4693,-7.4966,-7.4714,-7.4068,-7.3963,-7.3802,-7.3184,-7.3114,-7.2038,-6.9818,-6.85,-6.7016,-6.5509,-6.4134,-6.3186,-6.2619,-6.196,-6.1065,-6.0048,-5.8555,-5.7373,-5.6642,-5.5044,-5.3991,-5.3688,-5.1457,-4.9905,-4.9611,-4.8827,-4.841,-4.8318,-4.8346,-4.7429,-4.5217,-4.4483,-4.244,-3.8304,-3.7417,-3.6689,-3.5692,-3.5766,-3.6067,-3.658,-3.4448,-3.2787,-3.2136,-2.9065,-2.4973,-2.0067,-1.5169,-0.8971,-0.0726,0.8016,1.8062,2.6454,3.7918,5.0371,6.0108,6.5915,7.1998,7.633,8.2643,8.6384,8.7248,8.7573,8.7816,8.7722,8.817,8.8268,8.8346,8.8487,8.8669,8.8539,8.8775,8.8878,8.8856,8.8712,8.858,8.8545,8.825,8.8313,8.8462,8.8951,8.9394,8.9431,9.0117,9.0142,-7.7048,-7.5864,-7.5628,-7.4777,-7.3605,-7.3329,-7.3245,-7.3209,-7.2862,0.0,0.0,-7.0924,-7.0048,-6.9888,-6.8211,-6.7399,-6.7304,-6.7304,-6.7304,-6.734,-6.7493,-6.8278,-6.9552,-6.9989,-7.0871,-7.2186,-7.3762,-7.4515,-7.4501,-7.4993,-7.505,-7.4846,-7.4063,-7.3461,-7.3359,-7.3289,-7.0611,-6.5476,-6.4858,-6.458,-6.4275,-6.3963,-6.3797,-6.3671,-6.2551,-6.1503,-6.0809,-5.9097,-5.8394,-5.8784,-5.6704,-5.5963,-5.6862,-5.351,-5.1214,-5.059,-4.8904,-4.7528,-4.7175,-4.6556,-4.627,-4.6342,-4.4956,-4.3651,-4.2533,-4.1475,-4.106,-4.1555,-3.881,-3.6579,-3.5513,-3.3352,-3.1367,-3.0116,-3.0087,-2.7994,-2.2913,-1.8289,-1.2734,-0.5871,1.2803,2.7797,3.1307,4.557,5.8431,6.237,6.589,6.8763,7.4889,8.0397,8.4,8.5453,8.5977,8.6522,8.7673,8.8328,8.8818,8.851,8.9004,8.9495,8.9338,8.9309,8.9256,8.892,8.8906,8.8714,8.8734,8.8283,8.8287,8.8472,8.8549,8.8507,8.8546,8.8808,8.8884,-7.4946,-7.4242,-7.4129,-7.3534,0.0,-7.2721,-7.176,-7.0213,-7.025,-7.0213,-7.0176,-6.9173,-6.8723,-6.8613,-6.7641,-6.7187,-6.7151,-6.7187,-6.7151,-6.7151,-6.7312,-6.7672,-6.8318,-6.8565,-6.9045,-6.9688,-7.0657,-7.106,-7.1041,-7.1114,-7.0963,-7.0483,-6.9801,-6.9381,-6.9223,-6.8818,-6.7132,-6.4018,-6.3983,-6.3983,-6.3983,-6.3983,-6.3824,-6.3636,-6.2821,0.0,0.0,0.0,0.0,0.0,0.0,0.0,0.0,-5.3359,-5.0926,-4.9988,-4.75,-4.5744,-4.5059,-4.4572,-4.4025,-4.3613,-4.2893,-4.2944,-4.4228,-4.3331,-4.2516,-4.205,-4.0965,-4.0257,-4.0659,-3.7548,-3.5407,-3.507,-3.3539,-2.8971,-2.0906,-1.7363,-1.0471,0.3332,1.6497,2.8442,3.7929,5.0219,5.9066,6.5218,6.9532,7.3952,7.7805,7.9761,8.1204,8.3062,8.4192,8.5347,8.6144,8.6674,8.6911,8.6881,8.7071,8.7135,8.6999,8.7675,8.7879,8.704,8.7376,8.7753,8.7663,8.6741,8.6264,8.707,8.7269,8.6981,8.612,8.6073,8.6359,-7.2875,-7.2616,-7.2468,-7.2208,-7.1913,-7.1874,-7.0325,-6.7892,-6.7855,-6.7855,-6.7855,-6.7855,-6.7855,-6.7855,-6.7855,-6.7855,-6.7855,-6.7855,-6.7855,-6.7855,-6.7855,-6.7855,-6.7855,-6.7855,-6.7855,-6.7855,-6.7855,-6.7818,-6.7702,-6.7385,-6.6841,-6.6136,-6.5767,-6.5415,-6.5181,0.0,0.0,0.0,-6.4071,-6.3983,-6.4071,-6.3949,-6.3797,-6.3509,-6.312,0.0,-6.08,-6.0421,-5.9772,-5.8865,-5.7422,0.0,0.0,0.0,0.0,0.0,0.0,0.0,0.0,0.0,0.0,0.0,-4.0193,-4.1281,-4.3581,-4.3347,-4.2824,-4.2243,-4.2841,-4.4114,-4.6016,-4.1815,-3.9284,-4.0004,-3.6836,-3.0823,-2.0985,-1.5588,-0.6552,1.2516,2.0841,3.0752,4.529,5.3549,6.0932,6.85,7.4377,7.8187,7.934,7.822,7.8139,7.9588,8.1388,8.301,8.3539,8.3796,8.3918,8.3964,8.388,8.3921,8.4203,8.5274,8.5503,8.505,8.5481,8.6269,8.6294,8.5031,8.4428,8.5508,8.5743,8.5214,8.3746,8.3628,8.4251,-7.2099,-7.088,-7.0731,-6.9846,-6.8519,-6.8592,-6.8407,-6.8002,-6.7892,-6.7855,-6.7855,-6.7855,-6.7855,-6.7855,-6.7855,-6.7855,-6.7855,-6.7855,-6.7855,-6.7855,-6.7855,-6.7855,-6.7855,-6.7855,-6.7855,-6.7855,-6.7855,-6.7819,-6.7818,-6.7466,-6.7218,-6.7053,-6.6136,-6.561,-6.5468,-6.5727,-6.5757,-6.5605,-6.4539,-6.4167,-6.4457,-6.4132,-6.3921,-6.3824,-6.3509,-6.2821,-6.1856,-6.1464,-6.1286,-6.1442,-5.8582,-5.7576,-5.8957,-5.3225,-4.9187,0.0,-4.5109,0.0,0.0,0.0,0.0,0.0,0.0,0.0,0.0,-4.0716,-4.2967,-4.6045,-4.5503,-4.5354,-4.6357,-4.1114,-3.7914,-3.8608,-3.7111,-3.5806,-3.3964,-1.6795,-0.3713,-0.0919,2.7226,4.7607,5.2144,6.128,6.8145,7.0764,7.3223,7.4213,7.3842,7.3764,7.4029,7.4524,7.6346,7.845,7.9814,8.0348,8.0472,8.0402,8.045,8.0925,8.198,8.248,8.3026,8.4026,8.4275,8.4577,8.4955,8.437,8.4032,8.4151,8.3926,8.3246,8.2138,8.2596,8.4101,-6.9809,-6.9145,-6.9072,-6.7524,-6.5129,-6.5202,-6.5236,-6.5202,-6.5166,-6.5129,-6.5129,-6.5166,-6.5166,-6.5166,-6.5129,-6.5166,-6.524,-6.6124,-6.6566,-6.6603,-6.7413,-6.7855,-6.7855,-6.7855,-6.7855,-6.7855,-6.7855,-6.7855,-6.7818,-6.743,-6.726,-6.726,-6.6521,-6.5718,-6.4998,-6.4843,-6.5179,-6.5907,-6.5165,-6.4735,-6.4574,-6.4338,-6.4193,-6.3983,-6.3573,-6.2986,-6.2278,-6.1718,-6.0958,-5.9929,-5.8041,-5.6342,-5.4974,-4.9995,-4.6199,0.0,0.0,0.0,0.0,0.0,0.0,0.0,0.0,0.0,0.0,0.0,-4.136,-4.4541,-4.5443,-4.65,-4.7725,-3.4979,-3.1581,-4.3712,-2.6872,-2.0457,-3.53,-1.0423,0.7948,0.8727,3.0959,4.9126,5.5678,6.0883,6.4857,6.7269,6.7446,6.7109,6.6607,6.7047,6.8393,7.0653,7.2712,7.4684,7.6328,7.688,7.7069,7.7006,7.7017,7.7268,7.7836,7.8691,7.9265,7.9203,7.9884,8.0555,8.0542,7.9719,7.9629,8.0744,8.014,7.8606,7.781,7.8289,7.9459,-6.726,-6.6745,-6.5262,-6.3378,-6.136,-6.136,-6.1549,-6.1884,-6.1851,-6.1851,-6.1888,-6.2256,-6.2256,-6.1851,-6.1446,-6.1703,-6.2477,-6.3324,-6.4135,-6.4982,-6.6566,-6.7266,-6.7303,-6.7671,-6.7855,-6.7819,-6.7487,-6.7303,-6.7266,-6.6596,-6.6255,-6.6215,-6.5802,-6.496,-6.364,-6.356,-6.4189,-6.543,-6.5369,-6.5128,-6.4748,-6.469,-6.4516,-6.4071,-6.3824,-6.3312,-6.2652,-6.1733,-6.0428,-5.8758,-5.6944,-5.4338,-5.0886,-4.6389,0.0,0.0,0.0,0.0,0.0,0.0,0.0,0.0,0.0,-3.111,-3.217,0.0,-3.886,0.0,-4.4184,-4.6822,-4.879,-3.1521,0.0,0.0,-1.7234,-0.6719,-2.7226,-0.0451,1.9463,1.883,3.5225,4.9704,5.7328,5.894,6.0263,6.2571,6.2445,6.2007,6.2007,6.2513,6.41,6.698,6.8958,7.0497,7.1559,7.2493,7.3079,7.3548,7.3679,7.378,7.4044,7.5167,7.5784,7.5152,7.5913,7.667,7.6906,7.5752,7.5822,7.7208,7.5947,7.4183,7.4513,7.4625,7.5309,-6.4967,-6.3086,-5.7385,-5.5655,-5.6673,-5.6711,-5.7441,-5.8661,-5.8567,-5.8535,-5.8614,-6.0156,-6.0046,-5.8572,-5.7099,0.0,-6.0746,-5.9383,-6.034,-6.3251,-6.4908,-6.5682,-6.5792,-6.7119,-6.7855,-6.7782,-6.6345,-6.5682,-6.5608,-6.4137,-6.3292,-6.3292,-6.3149,-6.2306,-6.0912,-6.2159,-6.3315,-6.4253,-6.4633,-6.4957,-6.5252,-6.5268,-6.5011,-6.4516,-6.4457,-6.4098,-6.3312,-6.1655,-6.0445,-5.9842,-5.5548,-5.1847,-4.9205,0.0,0.0,0.0,0.0,0.0,0.0,0.0,0.0,0.0,0.0,0.0,0.0,0.0,0.0,-3.7628,-4.1628,0.0,-4.9339,-3.5129,0.0,0.0,0.0,-0.4282,-1.0298,1.2756,2.6763,2.0731,0.0,0.0,5.6567,5.7342,5.8423,5.9829,6.1875,6.3148,6.2891,6.3003,6.3428,6.3881,6.4156,6.4508,6.5833,6.6989,6.8418,6.9919,7.0296,7.0877,7.2,7.258,7.3364,7.4369,7.4949,7.5012,7.5202,7.4817,7.4563,7.3191,7.2742,7.2996,7.4085,7.435,7.4475,-5.961,-5.4275,-5.1756,-4.9916,-4.8695,-4.867,-5.0122,-5.2477,-5.2383,-5.2383,-5.242,-5.3083,-5.1913,-4.9355,-4.8693,0.0,0.0,0.0,-5.546,-5.8626,-6.1338,-6.2588,-6.2698,-6.4208,-6.4945,-6.4872,-6.3324,-6.303,-6.3987,-6.233,-5.906,-5.4222,0.0,-5.3713,-5.5895,-5.7642,-5.9663,-6.1897,-6.3757,-6.5293,-6.6402,-6.5972,-6.5307,-6.4574,-6.4805,-6.4095,-6.2102,-6.0708,-5.8718,-5.6052,-5.1558,-4.7294,0.0,0.0,0.0,0.0,0.0,0.0,0.0,0.0,0.0,0.0,0.0,-2.7741,-2.6566,0.0,0.0,0.0,-3.782,-4.091,-4.3634,-2.485,0.0,0.0,0.0,0.0,0.0,0.0,0.0,2.2194,3.8647,5.2347,5.5259,5.4438,5.4921,5.8734,5.8641,5.878,6.0316,0.0,6.0487,6.2705,6.3119,6.3688,6.5055,6.4976,6.5133,6.644,6.7547,6.854,6.9172,7.019,7.1111,7.1725,7.1889,7.1901,7.1977,7.0254,6.8676,6.8072,6.7921,6.849,7.0064,7.0399,7.0947,-5.1732,0.0,0.0,0.0,0.0,-4.1635,-4.3174,-4.5702,-4.5739,-4.5702,-4.5739,-4.6206,0.0,0.0,0.0,0.0,0.0,0.0,-5.0466,-5.3744,-5.7514,-5.9235,-5.9346,-6.0856,-6.1593,-6.1556,-6.0009,-5.9346,-5.942,-5.6607,-5.2154,-4.6313,0.0,0.0,0.0,0.0,-5.568,-5.9656,-6.2195,-6.4454,-6.6457,-6.636,-6.5951,-6.5271,-6.4935,-6.3422,-6.0325,-5.8845,-5.6256,-5.2312,-4.7705,0.0,0.0,0.0,0.0,0.0,0.0,0.0,0.0,0.0,0.0,0.0,0.0,0.0,0.0,0.0,0.0,0.0,0.0,0.0,-3.8511,-1.8157,-1.0129,0.0,0.0,0.0,0.0,0.0,0.0,0.0,0.0,0.0,5.2661,5.1375,5.221,0.0,0.0,5.6404,5.9023,5.8646,5.9162,6.2226,6.2269,0.0,6.4,6.332,6.3019,6.4221,6.563,6.6569,6.6531,6.687,6.7277,6.7756,6.7817,6.7462,6.6565,6.4384,6.3061,6.3365,6.3089,6.3305,6.4843,6.5301,6.6052,0.0,0.0,0.0,0.0,-3.6548,0.0,0.0,0.0,-3.8877,-3.8913,0.0,-4.0509,0.0,0.0,0.0,0.0,-4.1457,-4.3114,0.0,0.0,-5.3607,-5.5889,-5.5926,-5.7362,-5.8209,-5.8172,-5.6546,-5.4225,-5.1048,-4.5176,-4.1867,0.0,0.0,0.0,0.0,0.0,-5.1687,-5.7872,-5.9661,-6.1865,-6.4778,-6.6379,-6.7096,-6.6678,-6.4711,-6.1841,-5.805,-5.5793,-5.3165,-4.9789,-4.457,0.0,0.0,0.0,0.0,0.0,0.0,0.0,0.0,0.0,0.0,0.0,0.0,0.0,0.0,0.0,0.0,0.0,0.0,0.0,0.0,-1.8761,0.0,0.0,0.0,0.0,0.0,0.0,0.0,0.0,0.0,4.5373,4.8487,4.8455,5.0741,5.7478,0.0,0.0,0.0,0.0,6.08,6.2061,6.0861,5.9961,6.0314,6.0881,6.1921,6.3817,0.0,0.0,6.4838,6.2394,6.1077,6.2365,6.2793,6.1661,5.8618,5.7973,5.8239,5.9796,5.8783,5.8245,5.9692,6.0137,6.0586,0.0,0.0,0.0,0.0,0.0,0.0,0.0,0.0,0.0,-3.5441,-3.5425,-3.4992,0.0,0.0,0.0,0.0,0.0,0.0,0.0,0.0,-4.604,-4.7222,-4.6416,-4.9031,-4.9721,-4.8693,-4.724,-4.4287,0.0,0.0,0.0,0.0,0.0,0.0,0.0,0.0,-4.7436,-5.1794,-5.7348,-6.1793,-6.4904,-6.6467,-6.6629,-6.5396,-6.437,-6.135,-5.6126,-5.086,-4.7589,0.0,0.0,0.0,0.0,0.0,0.0,0.0,0.0,0.0,0.0,0.0,0.0,0.0,0.0,0.0,0.0,0.0,0.0,0.0,0.0,0.0,0.0,0.0,-2.1452,0.0,0.0,0.0,0.0,0.0,0.0,0.0,0.0,0.0,4.4942,4.5339,4.8439,5.6608,5.6322,5.6858,6.1062,0.0,0.0,0.0,0.0,0.0,0.0,0.0,6.1019,6.2263,6.1486,6.1231,6.278,6.2268,6.1032,5.938,0.0,0.0,5.4835,5.4905,5.5864,5.6515,5.4426,5.337,5.614,5.4933,5.4808,0.0,0.0,0.0,0.0,0.0,0.0,0.0,0.0,0.0,-2.89,-2.8754,0.0,0.0,0.0,0.0,0.0,0.0,0.0,0.0,0.0,0.0,0.0,-4.0544,-4.2727,0.0,0.0,0.0,0.0,0.0,0.0,0.0,0.0,0.0,0.0,0.0,0.0,-4.4258,-4.867,-5.5276,-6.0544,-6.4212,-6.578,-6.5868,-6.4596,-6.3755,-6.0908,-5.5653,0.0,0.0,0.0,0.0,0.0,0.0,0.0,0.0,0.0,0.0,0.0,0.0,0.0,0.0,0.0,0.0,0.0,0.0,0.0,0.0,0.0,0.0,0.0,0.0,0.0,-2.2388,0.0,0.0,0.0,0.0,0.0,0.0,0.0,0.0,0.0,0.0,4.2053,4.5394,5.3527,5.3589,5.4871,6.0221,6.0561,6.1429,0.0,0.0,0.0,0.0,0.0,0.0,0.0,0.0,0.0,0.0,0.0,0.0,0.0,5.4294,5.2027,4.7903,4.813,4.9137,4.9703,0.0,0.0,0.0,0.0,0.0,0.0,0.0,0.0,0.0,0.0,0.0,0.0,0.0,0.0,0.0,-1.9146,0.0,0.0,-1.9294,0.0,0.0,0.0,0.0,0.0,0.0,0.0,0.0,0.0,0.0,0.0,0.0,0.0,0.0,0.0,0.0,0.0,0.0,0.0,0.0,0.0,0.0,-4.2181,-4.8693,-5.3446,-5.8075,-6.2636,-6.4323,-6.4862,-6.4415,-6.2889,-6.0209,-5.6345,0.0,0.0,0.0,0.0,0.0,0.0,0.0,0.0,0.0,0.0,0.0,0.0,0.0,0.0,0.0,0.0,0.0,0.0,0.0,0.0,0.0,0.0,0.0,0.0,0.0,0.0,0.2248,1.4977,2.2593,0.0,0.0,0.0,0.0,0.0,0.0,0.0,0.0,0.0,4.8198,4.9458,5.1892,5.7531,5.9019,6.1058,6.5571,6.2265,5.9925,6.2039,6.0115,5.8398,0.0,0.0,0.0,0.0,0.0,0.0,0.0,0.0,0.0,0.0,0.0,0.0,0.0,0.0,0.0,0.0,0.0,0.0,0.0,0.0,0.0,0.0,0.0,0.0,0.0,0.0,0.0,0.0,0.0,-1.8087,0.0,0.0,0.0,0.0,0.0,0.0,0.0,0.0,0.0,0.0,0.0,0.0,0.0,0.0,0.0,0.0,0.0,0.0,0.0,0.0,0.0,0.0,0.0,0.0,-4.059,-4.3766,-5.171,-5.7551,-6.1197,-6.2815,-6.3443,-6.2914,-5.9376,-5.5187,0.0,0.0,0.0,0.0,0.0,0.0,0.0,0.0,0.0,0.0,0.0,0.0,0.0,0.0,0.0,0.0,0.0,0.0,0.0,0.0,0.0,0.0,0.0,0.0,0.0,0.0,0.0,0.0,0.8699,1.2329,2.2024,0.0,0.0,0.0,0.0,0.0,0.0,0.0,0.0,0.0,0.0,5.1271,5.3562,5.6923,5.9444,6.0034,5.9879,6.0072,6.0911,5.9676,5.8208,5.707,0.0,0.0,0.0,0.0,0.0,0.0,0.0,0.0,0.0,0.0,0.0,0.0,0.0,0.0,0.0,0.0,0.0,0.0,0.0,0.0,0.0,0.0,0.0,0.0,0.0,0.0,0.0,0.0,0.0,0.0,0.0,0.0,0.0,0.0,0.0,0.0,0.0,0.0,0.0,0.0,0.0,0.0,0.0,0.0,0.0,0.0,0.0,0.0,0.0,0.0,0.0,0.0,0.0,-4.0039,-4.1738,-5.0446,-5.6778,-6.0488,-6.1489,-6.2085,-6.2409,-5.7807,-5.2892,0.0,0.0,0.0,0.0,0.0,0.0,0.0,0.0,0.0,0.0,0.0,0.0,0.0,0.0,0.0,0.0,0.0,0.0,0.0,0.0,0.0,0.0,0.0,0.0,0.0,0.0,0.0,0.0,0.8088,1.0424,2.0384,0.0,0.0,0.0,0.0,0.0,0.0,0.0,0.0,0.0,0.0,4.7781,5.0082,5.3407,0.0,0.0,5.7807,5.8196,5.874,5.772,5.6052,5.3857,5.2197,0.0,0.0,0.0,0.0,0.0,0.0,0.0,0.0,0.0,0.0,0.0,0.0,0.0,0.0,0.0,0.0,0.0,0.0,0.0,0.0,0.0,0.0,0.0,0.0,0.0,0.0,0.0,0.0,0.0,0.0,0.0,0.0,0.0,0.0,0.0,0.0,0.0,0.0,0.0,0.0,0.0,0.0,0.0,0.0,0.0,0.0,0.0,0.0,0.0,0.0,0.0,0.0,-4.0164,-4.1839,-4.9571,-5.5837,-6.0137,-6.0207,-6.0767,-6.2009,-5.7333,-5.2351,0.0,0.0,0.0,0.0,0.0,0.0,0.0,0.0,0.0,0.0,0.0,0.0,0.0,0.0,0.0,0.0,0.0,0.0,0.0,0.0,0.0,0.0,0.0,0.0,0.0,0.0,0.0,0.0,0.0,0.0,0.0,0.0,0.0,0.0,0.0,0.0,0.0,0.0,0.0,0.0,0.0,4.2506,4.6829,4.8881,5.1542,0.0,5.5465,5.4767,5.5413,5.4268,5.2261,4.9181,0.0,0.0,0.0,0.0,0.0,0.0,0.0,0.0,0.0,0.0,0.0,0.0,0.0,0.0,0.0,0.0,0.0,0.0,0.0,0.0,0.0,0.0,0.0,0.0,0.0,0.0,0.0,0.0,0.0,0.0,0.0,0.0,0.0,0.0,0.0,0.0,0.0,0.0,0.0,0.0,0.0,0.0,0.0,0.0,0.0,0.0,0.0,0.0,0.0,0.0,0.0,0.0,0.0,0.0,-4.0215,-4.9201,-5.5132,-5.7511,-5.858,-5.9173,-5.9214,-5.334,0.0,0.0,0.0,0.0,0.0,0.0,0.0,0.0,0.0,0.0,0.0,0.0,0.0,0.0,0.0,0.0,0.0,0.0,0.0,0.0,0.0,0.0,0.0,0.0,0.0,0.0,0.0,0.6371,0.0,0.0,0.0,0.0,0.0,0.0,0.0,0.0,0.0,0.0,0.0,0.0,0.0,0.0,4.1717,4.1716,4.5163,4.7887,0.0,0.0,5.1414,4.9113,4.8468,4.7163,0.0,0.0,0.0,0.0,0.0,0.0,0.0,0.0,0.0,0.0,0.0,0.0,0.0,0.0,0.0,0.0,0.0,0.0,0.0,0.0,0.0,0.0,0.0,0.0,0.0,0.0,0.0,0.0,0.0,0.0,0.0,0.0,0.0,0.0,0.0,0.0,0.0,0.0,0.0,0.0,0.0,0.0,0.0,0.0,0.0,0.0,0.0,0.0,0.0,0.0,0.0,0.0,0.0,0.0,-3.8184,-3.9881,-4.7869,-5.3257,-5.5498,-5.7002,-5.7691,-5.7385,-5.1038,-4.5813,0.0,0.0,0.0,0.0,0.0,0.0,0.0,0.0,0.0,0.0,0.0,0.0,0.0,0.0,0.0,0.0,0.0,0.0,0.0,0.0,0.0,0.0,0.0,0.0,0.0,0.0,0.0,0.0,0.0,0.0,0.0,0.0,0.0,0.0,0.0,0.0,0.0,0.0,0.0,0.0,0.0,0.0,3.9351,4.1398,0.0,0.0,0.0,4.7454,4.5518,0.0,0.0,0.0,0.0,0.0,0.0,0.0,0.0,0.0,0.0,0.0,0.0,0.0,0.0,0.0,0.0,0.0,0.0,0.0,0.0,0.0,0.0,0.0,0.0,0.0,0.0,0.0,0.0,0.0,0.0,0.0,0.0,0.0,0.0,0.0,0.0,0.0,0.0,0.0,0.0,0.0,0.0,0.0,0.0,0.0,0.0,0.0,0.0,0.0,0.0,0.0,0.0,0.0,0.0,0.0,0.0,0.0,-3.9908,-4.6095,-5.0886,-5.3924,-5.5534,-5.6109,-5.5594,-4.9689,-4.4701,0.0,0.0,0.0,0.0,0.0,0.0,0.0,0.0,0.0,0.0,0.0,0.0,0.0,0.0,0.0,0.0,0.0,0.0,0.0,0.0,0.0,0.0,0.0,0.0,0.0,0.0,0.0,0.0,0.0,0.0,0.0,0.0,0.0,0.0,0.0,0.0,0.0,0.0,0.0,0.0,0.0,3.3999,3.8228,3.7737,3.8099,0.0,0.0,4.3765,4.3119,4.1732,0.0,0.0,0.0,0.0,0.0,0.0,0.0,0.0,0.0,0.0,0.0,0.0,0.0,0.0,0.0,0.0,0.0,0.0,0.0,0.0,0.0,0.0,0.0,0.0,0.0,0.0,0.0,0.0,0.0,0.0,0.0,0.0,0.0,0.0,0.0,0.0,0.0,0.0,0.0,0.0,0.0,0.0,0.0,0.0,0.0,0.0,0.0,0.0,0.0,0.0,0.0,0.0,0.0,0.0,0.0,0.0,-3.989,-4.5145,-4.9459,-5.2571,-5.4093,-5.4134,-5.2554,-4.8604,-4.415,0.0,0.0,0.0,0.0,0.0,0.0,0.0,0.0,0.0,0.0,0.0,0.0,0.0,0.0,0.0,0.0,0.0,0.0,0.0,0.0,0.0,0.0,0.0,0.0,0.0,0.0,0.0,0.0,0.0,0.0,0.0,0.0,0.0,0.0,0.0,0.0,0.0,0.0,0.0,0.0,0.0,3.2526,3.5538,3.448,0.0,0.0,0.0,0.0,3.8496,3.6567,0.0,0.0,0.0,0.0,0.0,0.0,0.0,0.0,0.0,0.0,0.0,0.0,0.0,0.0,0.0,0.0,0.0,0.0,0.0,0.0,0.0,0.0,0.0,0.0,0.0,0.0,0.0,0.0,0.0,0.0,0.0,0.0,0.0,0.0,0.0,0.0,0.0,0.0,0.0,0.0,0.0,0.0,0.0,0.0,0.0,0.0,0.0,0.0,0.0,0.0,0.0,0.0,0.0,0.0,0.0,0.0,-3.9719,-4.3254,-4.697,-5.0944,-5.2616,-5.2495,-5.0594,-4.7258,-4.3324,0.0,0.0,0.0,0.0,0.0,0.0,0.0,0.0,0.0,0.0,0.0,0.0,0.0,0.0,0.0,0.0,0.0,0.0,0.0,0.0,0.0,0.0,0.0,0.0,0.0,0.0,0.0,0.0,0.0,0.0,0.0,0.0,0.0,0.0,0.0,0.0,0.0,0.0,0.0,0.0,2.8787,2.9953,3.2728,0.0,0.0,0.0,0.0,0.0,0.0,3.4793,3.3316,0.0,0.0,0.0,0.0,0.0,0.0,0.0,0.0,0.0,0.0,0.0,0.0,0.0,0.0,0.0,0.0,0.0,0.0,0.0,0.0,0.0,0.0,0.0,0.0,0.0,0.0,0.0,0.0,0.0,0.0,0.0,0.0,0.0,0.0,0.0,0.0,0.0,0.0,0.0,0.0,0.0,0.0,0.0,0.0,0.0,0.0,0.0,0.0,0.0,0.0,0.0,0.0,0.0,0.0,0.0,-3.9357,-4.1081,-4.4261,-4.8845,-5.0879,-5.0935,-4.8995,-4.5673,-4.2329,-3.8993,0.0,0.0,0.0,0.0,0.0,0.0,0.0,0.0,0.0,0.0,0.0,0.0,0.0,0.0,0.0,0.0,0.0,0.0,0.0,0.0,0.0,0.0,0.0,0.0,0.0,0.0,0.0,0.0,0.0,0.0,0.0,0.0,0.0,0.0,0.0,0.0,0.0,0.0,0.0,2.6433,2.7415,0.0,0.0,0.0,0.0,0.0,0.0,0.0,0.0,3.2401,0.0,0.0,0.0,0.0,0.0,0.0,0.0,0.0,0.0,0.0,0.0,0.0,0.0,0.0,0.0,0.0,0.0,0.0,0.0,0.0,0.0,0.0,0.0,0.0,0.0,0.0,0.0,0.0,0.0,0.0,0.0,0.0,0.0,0.0,0.0,0.0,0.0,0.0,0.0,0.0,0.0,0.0,0.0,0.0,0.0,0.0,0.0,0.0,0.0,0.0,0.0,0.0,0.0,0.0,0.0,0.0,-3.9387,-4.2008,-4.5554,-4.8589,-4.9269,-4.7417,-4.4007,-4.1309,-3.9362,0.0,0.0,0.0,0.0,0.0,0.0,0.0,0.0,0.0,0.0,0.0,0.0,0.0,0.0,0.0,0.0,0.0,0.0,0.0,0.0,0.0,0.0,0.0,0.0,0.0,0.0,0.0,0.0,0.0,0.0,0.0,0.0,0.0,0.0,0.0,0.0,0.0,0.0,2.2579,2.4149,0.0,0.0,0.0,0.0,0.0,0.0,0.0,0.0,3.1597,0.0,0.0,0.0,0.0,0.0,0.0,0.0,0.0,0.0,0.0,0.0,0.0,0.0,0.0,0.0,0.0,0.0,0.0,0.0,0.0,0.0,0.0,0.0,0.0,0.0,0.0,0.0,0.0,0.0,0.0,0.0,0.0,0.0,0.0,0.0,0.0,0.0,0.0,0.0,0.0,0.0,0.0,0.0,0.0,0.0,0.0,0.0,0.0,0.0,0.0,0.0,0.0,0.0,0.0,0.0,0.0,0.0,0.0,-4.1065,-4.3554,-4.7605,-4.8939,-4.7077,-4.2911,-3.9902,0.0,0.0,0.0,0.0,0.0,0.0,0.0,0.0,0.0,0.0,0.0,0.0,0.0,0.0,0.0,0.0,0.0,0.0,0.0,0.0,0.0,0.0,0.0,0.0,0.0,0.0,0.0,0.0,0.0,0.0,0.0,0.0,0.0,0.0,0.0,0.0,0.0,0.0,0.0,0.0,0.0,0.0,0.0,0.0,0.0,0.0,0.0,0.0,0.0,0.0,0.0,0.0,0.0,0.0,0.0,0.0,0.0,0.0,0.0,0.0,0.0,0.0,0.0,0.0,0.0,0.0,0.0,0.0,0.0,0.0,0.0,0.0,0.0,0.0,0.0,0.0,0.0,0.0,0.0,0.0,0.0,0.0,0.0,0.0,0.0,0.0,0.0,0.0,0.0,0.0,0.0,0.0,0.0,0.0,0.0,0.0,0.0,0.0,0.0,0.0,0.0,0.0,0.0,0.0,0.0,0.0,0.0,0.0,-4.0095,-4.1856,-4.6659,-4.843,-4.6717,-4.1806,-3.8381,0.0,0.0,0.0,0.0,0.0,0.0,0.0,0.0,0.0,0.0,0.0,0.0,0.0,0.0,0.0,0.0,0.0,0.0,0.0,0.0,0.0,0.0,0.0,0.0,0.0,0.0,0.0,0.0,0.0,0.0,0.0,0.0,0.0,0.0,0.0,0.0,0.0,0.0,0.0,0.0,0.0,0.0,0.0,0.0,0.0,0.0,0.0,0.0,3.1752,0.0,0.0,0.0,0.0,0.0,0.0,0.0,0.0,0.0,0.0,0.0,0.0,0.0,0.0,0.0,0.0,0.0,0.0,0.0,0.0,0.0,0.0,0.0,0.0,0.0,0.0,0.0,0.0,0.0,0.0,0.0,0.0,0.0,0.0,0.0,0.0,0.0,0.0,0.0,0.0,0.0,0.0,0.0,0.0,0.0,0.0,0.0,0.0,0.0,0.0,0.0,0.0,0.0,0.0,0.0,0.0,0.0,0.0,0.0,-3.8379,-4.0079,-4.4948,-4.668,-4.4914,-4.0125,-3.6792,0.0,0.0,0.0,0.0,0.0,0.0,0.0,0.0,0.0,0.0,0.0,0.0,0.0,0.0,0.0,0.0,0.0,0.0,0.0,0.0,0.0,0.0,0.0,0.0,0.0,0.0,0.0,0.0,0.0,0.0,0.0,0.0,0.0,0.0,0.0,0.0,0.0,0.0,0.0,0.0,0.0,0.0,0.0,0.0,0.0,0.0,0.0,0.0,0.0,0.0,0.0,0.0,0.0,0.0,0.0,0.0,0.0,0.0,0.0,0.0,0.0,0.0,0.0,0.0,0.0,0.0,0.0,0.0,0.0,0.0,0.0,0.0,0.0,0.0,0.0,0.0,0.0,0.0,0.0,0.0,0.0,0.0,0.0,0.0,0.0,0.0,0.0,0.0,0.0,0.0,0.0,0.0,0.0,0.0,0.0,0.0,0.0,0.0,0.0,0.0,0.0,0.0,0.0,0.0,0.0,0.0,0.0,0.0,-3.6215,-3.7046,-4.1866,-4.313,-4.0472,-3.7476,-3.5046,0.0,0.0,0.0,0.0,0.0,0.0,0.0,0.0,0.0,0.0,0.0,0.0,0.0,0.0,0.0,0.0,0.0,0.0,0.0,0.0,0.0,0.0,0.0,0.0,0.0,0.0,0.0,0.0,0.0,0.0,0.0,0.0,0.0,0.0,0.0,0.0,0.0,0.0,0.0,0.0,0.0,0.0,0.0,0.0,0.0,0.0,0.0,0.0,0.0,0.0,0.0,0.0,0.0,0.0,0.0,0.0,0.0,0.0,0.0,0.0,0.0,0.0,0.0,0.0,0.0,0.0,0.0,0.0,0.0,0.0,0.0,0.0,0.0,0.0,0.0,0.0,0.0,0.0,0.0,0.0,0.0,0.0,0.0,0.0,0.0,0.0,0.0,0.0,0.0,0.0,0.0,0.0,0.0,0.0,0.0,0.0,0.0,0.0,0.0,0.0,0.0,0.0,0.0,0.0,0.0,0.0,0.0,0.0,0.0,-3.5003,-3.8039,-3.8564,-3.6133,-3.4809,-3.3166,0.0,0.0,0.0,0.0,0.0,0.0,0.0,0.0,0.0,0.0,0.0,0.0,0.0,0.0,0.0,0.0,0.0,0.0,0.0,0.0,0.0,0.0,0.0,0.0,0.0,0.0,0.0,0.0,0.0,0.0,0.0,0.0,0.0,0.0,0.0,0.0,0.0,0.0,0.0,0.0,0.0,0.0,0.0,0.0,0.0,0.0,0.0,0.0,0.0,0.0,0.0,0.0,0.0,0.0,0.0,0.0,0.0,0.0,0.0,0.0,0.0,0.0,0.0,0.0,0.0,0.0,0.0,0.0,0.0,0.0,0.0,0.0,0.0,0.0,0.0,0.0,0.0,0.0,0.0,0.0,0.0,0.0,0.0,0.0,0.0,0.0,0.0,0.0,0.0,0.0,0.0,0.0,0.0,0.0,0.0,0.0,0.0,0.0,0.0,0.0,0.0,0.0,0.0,0.0,0.0,0.0,0.0,0.0,0.0,-3.4798,-3.3533,-3.2856,-3.2758,-3.253,-3.095,0.0,0.0,0.0,0.0,0.0,0.0,0.0,0.0,0.0,0.0,0.0,0.0,0.0,0.0,0.0,0.0,0.0,0.0,0.0,0.0,0.0,0.0,0.0,0.0,0.0,0.0,0.0,0.0,0.0,0.0,0.0,0.0,0.0,0.0,0.0,0.0,0.0,0.0,0.0,0.0,0.0,0.0,0.0,0.0,0.0,0.0,0.0,0.0,0.0,0.0,0.0,0.0,0.0,0.0,0.0,0.0,0.0,0.0,0.0,0.0,0.0,0.0,0.0,0.0,0.0,0.0,0.0,0.0,0.0,0.0,0.0,0.0,0.0,0.0,0.0,0.0,0.0,0.0,0.0,0.0,0.0,0.0,0.0,0.0,0.0,0.0,0.0,0.0,0.0,0.0,0.0,0.0,0.0,0.0,0.0,0.0,0.0,0.0,0.0,0.0,0.0,0.0,0.0,0.0,0.0,0.0,0.0,0.0,0.0,-3.1581,-3.1089,-3.0813,-3.0913,-3.0749,-2.9655,-2.7443,0.0,0.0,0.0,0.0,0.0,0.0,0.0,0.0,0.0,0.0,0.0,0.0,0.0,0.0,0.0,0.0,0.0,0.0,0.0,0.0,0.0,0.0,0.0,0.0,0.0,0.0,0.0,0.0,0.0,0.0,0.0,0.0,0.0,0.0,0.0,0.0,0.0,0.0,0.0,0.0,0.0,0.0,0.0,0.0,0.0,0.0,0.0,0.0,0.0,0.0,0.0,0.0,0.0,0.0,0.0,0.0,0.0,0.0,0.0,0.0,0.0,0.0,0.0,0.0,0.0,0.0,0.0,0.0,0.0,0.0,0.0,0.0,0.0,0.0,0.0,0.0,0.0,0.0,0.0,0.0,0.0,0.0,0.0,0.0,0.0,0.0,0.0,0.0,0.0,0.0,0.0,0.0,0.0,0.0,0.0,0.0,0.0,0.0,0.0,0.0,0.0,0.0,0.0,0.0,0.0,0.0,0.0,0.0,-2.9648,-2.9791,-2.9847,-2.9937,-2.9841,-2.8838,0.0,0.0,0.0,0.0,0.0,0.0,0.0,0.0,0.0,0.0,0.0,0.0,0.0,0.0,0.0,0.0,0.0,0.0,0.0,0.0,0.0,0.0,0.0,0.0,0.0,0.0,0.0,0.0,0.0,0.0,0.0,0.0,0.0,0.0,0.0,0.0,0.0,0.0,0.0,0.0,0.0,0.0,0.0,0.0,0.0,0.0,0.0,0.0,0.0,0.0,0.0,0.0,0.0,0.0,0.0,0.0,0.0,0.0,0.0,0.0,0.0,0.0,0.0,0.0,0.0,0.0,0.0,0.0,0.0,0.0,0.0,0.0,0.0,0.0,0.0,0.0,0.0,0.0,0.0,0.0,0.0,0.0,0.0,0.0,0.0,0.0,0.0,0.0,0.0,0.0,0.0,0.0,0.0,0.0,0.0,0.0,0.0,0.0,0.0,0.0,0.0,0.0,0.0,0.0,0.0,0.0,0.0,0.0,-2.6388,-2.9527,-2.9588,-2.9694,-2.9948,-2.9888,-2.8318,0.0,0.0,0.0,0.0,0.0,0.0,0.0,0.0,0.0,0.0,0.0,0.0,0.0,0.0,0.0,0.0,0.0,0.0,0.0,0.0,0.0,0.0,0.0,0.0,0.0,0.0,0.0,0.0,0.0,0.0,0.0,0.0,0.0,0.0,0.0,0.0,0.0,0.0,0.0,0.0,0.0,0.0,0.0,0.0,0.0,0.0,0.0,0.0,0.0,0.0,0.0,0.0,0.0,0.0,0.0,0.0,0.0,0.0,0.0,0.0,0.0,0.0,0.0,0.0,0.0,0.0,0.0,0.0,0.0,0.0,0.0,0.0,0.0,0.0,0.0,0.0,0.0,0.0,0.0,0.0,0.0,0.0,0.0,0.0,0.0,0.0,0.0,0.0,0.0,0.0,0.0,0.0,0.0,0.0,0.0,0.0,0.0,0.0,0.0,0.0,0.0,0.0,0.0,0.0,0.0,0.0,0.0,0.0,0.0,-2.7945,0.0,-2.9717,-2.9779,-2.878,-2.7178,0.0,0.0,0.0,0.0,0.0,0.0,0.0,0.0,0.0,0.0,0.0,0.0,0.0,0.0,0.0,0.0,0.0,0.0,0.0,0.0,0.0,0.0,0.0,0.0,0.0,0.0,0.0,0.0,0.0,0.0,0.0,0.0,0.0,0.0,0.0,0.0,0.0,0.0,0.0,0.0,0.0,0.0,0.0,0.0,0.0,0.0,0.0,0.0,0.0,0.0,0.0,0.0,0.0,0.0,0.0,0.0,0.0,0.0,0.0,0.0,0.0,0.0,0.0,0.0,0.0,0.0,0.0,0.0,0.0,0.0,0.0,0.0,0.0,0.0,0.0,0.0,0.0,0.0,0.0,0.0,0.0,0.0,0.0,0.0,0.0,0.0,0.0,0.0,0.0,0.0,0.0,0.0,0.0,0.0,0.0,0.0,0.0,0.0,0.0,0.0,0.0,0.0,0.0,0.0,0.0,0.0,0.0,0.0,0.0,-2.6072,-2.7908,-2.9106,-2.9735,-2.8838,-2.7205,0.0,0.0,0.0,0.0,0.0,0.0,0.0,0.0,0.0,0.0,0.0,0.0,0.0,0.0,0.0,0.0,0.0,0.0,0.0,0.0,0.0,0.0,0.0,0.0,0.0,0.0,0.0,0.0,0.0,0.0,0.0,0.0,0.0,0.0,0.0,0.0,0.0,0.0,0.0,0.0,0.0,0.0,0.0,0.0,0.0,0.0,0.0,0.0,0.0,0.0,0.0,0.0,0.0,0.0,0.0,0.0,0.0,0.0,0.0,0.0,0.0,0.0,0.0,0.0,0.0,0.0,0.0,0.0,0.0,0.0,0.0,0.0,0.0,0.0,0.0,0.0,0.0,0.0,0.0,0.0,0.0,0.0,0.0,0.0,0.0,0.0,0.0,0.0,0.0,0.0,0.0,0.0,0.0,0.0,0.0,0.0,0.0,0.0,0.0,0.0,0.0,0.0,0.0,0.0,0.0,0.0,0.0,0.0,0.0,-2.3992,-2.6046,-2.7967,-2.9695,-2.9787,-2.8273,0.0,0.0,0.0,0.0,0.0,0.0,0.0,0.0,0.0,0.0,0.0,0.0,0.0,0.0,0.0,0.0,0.0,0.0,0.0,0.0,0.0,0.0,0.0,0.0,0.0,0.0,0.0,0.0,0.0,0.0,0.0,0.0,0.0,0.0,0.0,0.0,0.0,0.0,0.0,0.0,0.0,0.0,0.0,0.0,0.0,0.0,0.0,0.0,0.0,0.0,0.0,0.0,0.0,0.0,0.0,0.0,0.0,0.0,0.0,0.0,0.0,0.0,0.0,0.0,0.0,0.0,0.0,0.0,0.0,0.0,0.0,0.0,0.0,0.0,0.0,0.0,0.0,0.0,0.0,0.0,0.0,0.0,0.0,0.0,0.0,0.0,0.0,0.0,0.0,0.0,0.0,0.0,0.0,0.0,0.0,0.0,0.0,0.0,0.0,0.0,0.0,0.0,0.0,0.0,0.0,0.0,0.0,0.0,0.0,0.0,-2.4368,-2.6196,-2.7846,-2.8054,-2.71,-2.4938,0.0,0.0,0.0,0.0,0.0,0.0,0.0,0.0,0.0,0.0,0.0,0.0,0.0,0.0,0.0,0.0,0.0,0.0,0.0,0.0,0.0,0.0,0.0,0.0,0.0,0.0,0.0,0.0,0.0,0.0,0.0,0.0,0.0,0.0,0.0,0.0,0.0,0.0,0.0,0.0,0.0,0.0,0.0,0.0,0.0,0.0,0.0,0.0,0.0,0.0,0.0,0.0,0.0,0.0,0.0,0.0,0.0,0.0,0.0,0.0,0.0,0.0,0.0,0.0,0.0,0.0,0.0,0.0,0.0,0.0,0.0,0.0,0.0,0.0,0.0,0.0,0.0,0.0,0.0,0.0,0.0,0.0,0.0,0.0,0.0,0.0,0.0,0.0,0.0,0.0,0.0,0.0,0.0,0.0,0.0,0.0,0.0,0.0,0.0,0.0,0.0,0.0,0.0,0.0,0.0,0.0,0.0,0.0,0.0,0.0,-2.5743,-2.802,-2.826,-2.7273,0.0,0.0,0.0,0.0,0.0,0.0,0.0,0.0,0.0,0.0,0.0,0.0,0.0,0.0,0.0,0.0,0.0,0.0,0.0,0.0,0.0,0.0,0.0,0.0,0.0,0.0,0.0,0.0,0.0,0.0,0.0,0.0,0.0,0.0,0.0,0.0,0.0,0.0,0.0,0.0,0.0,0.0,0.0,0.0,0.0,0.0,0.0,0.0,0.0,0.0,0.0,0.0,0.0,0.0,0.0,0.0,0.0,0.0,0.0,0.0,0.0,0.0,0.0,0.0,0.0,0.0,0.0,0.0,0.0,0.0,0.0,0.0,0.0,0.0,0.0,0.0,0.0,0.0,0.0,0.0,0.0,0.0,0.0,0.0,0.0,0.0,0.0,0.0,0.0,0.0,0.0,0.0,0.0,0.0,0.0,0.0,0.0,0.0,0.0,0.0,0.0,0.0,0.0,0.0,0.0,0.0,0.0,0.0,0.0,0.0,0.0,-2.5956,-2.903,-2.9511,0.0,-2.525,0.0,0.0,0.0,0.0,0.0,0.0,0.0,0.0,0.0,0.0,0.0,0.0,0.0,0.0,0.0,0.0,0.0,0.0,0.0,0.0,0.0,0.0,0.0,0.0,0.0,0.0,0.0,0.0,0.0,0.0,0.0,0.0,0.0,0.0,0.0,0.0,0.0,0.0,0.0,0.0,0.0,0.0,0.0,0.0,0.0,0.0,0.0,0.0,0.0,0.0,0.0,0.0,0.0,0.0,0.0,0.0,0.0,0.0,0.0,0.0,0.0,0.0,0.0,0.0,0.0,0.0,0.0,0.0,0.0,0.0,0.0,0.0,0.0,0.0,0.0,0.0,0.0,0.0,0.0,0.0,0.0,0.0,0.0,0.0,0.0,0.0,0.0,0.0,0.0,0.0,0.0,0.0,0.0,0.0,0.0,0.0,0.0,0.0,0.0,0.0,0.0,0.0,0.0,0.0,0.0,0.0,0.0,0.0,0.0,0.0,0.0,0.0,-2.8988,-2.8782,-2.6707,0.0,0.0,0.0,0.0,0.0,0.0,0.0,0.0,0.0,0.0,0.0,0.0,0.0,0.0,0.0,0.0,0.0,0.0,0.0,0.0,0.0,0.0,0.0,0.0,0.0,0.0,0.0,0.0,0.0,0.0,0.0,0.0,0.0,0.0,0.0,0.0,0.0,0.0,0.0,0.0,0.0,0.0,0.0,0.0,0.0,0.0,0.0,0.0,0.0,0.0,0.0,0.0,0.0,0.0,0.0,0.0,0.0,0.0,0.0,0.0,0.0,0.0,0.0,0.0,0.0,0.0,0.0,0.0,0.0,0.0,0.0,0.0,0.0,0.0,0.0,0.0,0.0,0.0,0.0,0.0,0.0,0.0,0.0,0.0,0.0,0.0,0.0,0.0,0.0,0.0,0.0,0.0,0.0,0.0,0.0,0.0,0.0,0.0,0.0,0.0,0.0,0.0,0.0,0.0,0.0,0.0,0.0,0.0,0.0,0.0,-2.4919,-2.588,-2.7627,-2.744,-2.5097,0.0,0.0,0.0,0.0,0.0,0.0,0.0,0.0,0.0,0.0,0.0,0.0,0.0,0.0,0.0,0.0,0.0,0.0,0.0,0.0,0.0,0.0,0.0,0.0,0.0,0.0,0.0,0.0,0.0,0.0,0.0,0.0,0.0,0.0,0.0,0.0,0.0,0.0,0.0,0.0,0.0,0.0,0.0,0.0,0.0,0.0,0.0,0.0,0.0,0.0,0.0,0.0,0.0,0.0,0.0,0.0,0.0,0.0,0.0,0.0,0.0,0.0,0.0,0.0,0.0,0.0,0.0,0.0,0.0,0.0,0.0,0.0,0.0,0.0,0.0,0.0,0.0,0.0,0.0,0.0,0.0,0.0,0.0,0.0,0.0,0.0,0.0,0.0,0.0,0.0,0.0,0.0,0.0,0.0,0.0,0.0,0.0,0.0,0.0,0.0,0.0,0.0,0.0,0.0,0.0,0.0,0.0,0.0,0.0,0.0,0.0,0.0,0.0,0.0,-2.283,0.0,0.0,0.0,0.0,0.0,0.0,0.0,0.0,0.0,0.0,0.0,0.0,0.0,0.0,0.0,0.0,0.0,0.0,0.0,0.0,0.0,0.0,0.0,0.0,0.0,0.0,0.0,0.0,0.0,0.0,0.0,0.0,0.0,0.0,0.0,0.0,0.0,0.0,0.0,0.0,0.0,0.0,0.0,0.0,0.0,0.0,0.0,0.0,0.0,0.0,0.0,0.0,0.0,0.0,0.0,0.0,0.0,0.0,0.0,0.0,0.0,0.0,0.0,0.0,0.0,0.0,0.0,0.0,0.0,0.0,0.0,0.0,0.0,0.0,0.0,0.0,0.0,0.0,0.0,0.0,0.0,0.0,0.0,0.0,0.0,0.0,0.0,0.0,0.0,0.0,0.0,0.0,0.0,0.0,0.0,0.0,0.0,0.0,0.0,0.0,0.0,0.0,0.0,0.0,0.0,0.0,0.0,0.0,0.0,0.0,0.0,0.0,0.0,0.0,0.0,0.0,0.0,0.0,0.0,0.0,0.0,0.0,0.0,0.0,0.0,0.0,0.0,0.0,0.0,0.0,0.0,0.0,0.0,0.0,0.0,0.0,0.0,0.0,0.0,0.0,0.0,0.0,0.0,0.0,0.0,0.0,0.0,0.0,0.0,0.0,0.0,0.0,0.0,0.0,0.0,0.0,0.0,0.0,0.0,0.0,0.0,0.0,0.0,0.0,0.0,0.0,0.0,0.0,0.0,0.0,0.0,0.0,0.0,0.0,0.0,0.0,0.0,0.0,0.0,0.0,0.0,0.0,0.0,0.0,0.0,0.0,0.0,0.0,0.0,0.0,0.0,0.0,0.0,0.0,0.0,0.0,0.0,0.0,0.0,0.0,0.0,0.0,0.0,0.0,0.0,0.0,0.0,0.0,0.0,0.0,0.0,0.0,0.0,0.0,0.0,0.0,0.0,0.0,0.0,0.0,0.0,0.0,0.0,0.0,0.0,0.0,0.0,0.0,0.0,0.0,0.0,0.0,0.0,0.0,0.0,0.0,0.0,0.0,0.0,0.0,0.0,0.0,0.0,0.0,0.0,0.0,0.0,0.0,0.0,0.0,0.0,0.0,0.0,0.0,0.0,0.0,0.0,0.0,0.0,0.0,0.0,0.0,0.0,0.0,0.0,0.0,0.0,0.0,0.0,0.0,0.0,0.0,0.0,0.0,0.0,0.0,0.0,0.0,0.0,0.0,0.0,0.0,0.0,0.0,0.0,0.0,0.0,0.0,0.0,0.0,0.0,0.0,0.0,0.0,0.0,0.0,0.0,0.0,0.0,0.0,0.0,0.0,0.0,0.0,0.0,0.0,0.0,0.0,0.0,0.0,0.0,0.0,0.0,0.0,0.0,0.0,0.0,0.0,0.0,0.0,0.0,0.0,0.0,0.0,0.0,0.0,0.0,0.0,0.0,0.0,0.0,0.0,0.0,0.0,0.0,0.0,0.0,0.0,0.0,0.0,0.0,0.0,0.0,0.0,0.0,0.0,0.0,0.0,0.0,0.0,0.0,0.0,0.0,0.0,0.0,0.0,0.0,0.0,0.0,0.0,0.0,0.0,0.0,0.0,0.0,0.0,0.0,0.0,0.0,0.0,0.0,0.0,0.0,0.0,0.0,0.0,0.0,0.0,0.0,0.0,0.0,0.0,0.0,0.0,0.0,0.0,0.0,0.0,0.0,0.0,0.0,0.0,0.0,0.0,0.0,0.0,0.0,0.0,0.0,0.0,0.0,0.0,0.0,0.0,0.0,0.0,0.0,0.0,0.0,0.0,0.0,0.0,0.0,0.0,0.0,0.0,0.0,0.0,0.0,0.0,0.0,0.0,0.0,0.0,0.0,0.0,0.0,0.0,0.0,0.0,0.0,0.0,0.0,0.0,0.0,0.0,0.0,0.0,0.0,0.0,0.0,0.0,0.0,0.0,0.0,0.0,0.0,0.0,0.0,0.0,0.0,0.0,0.0,0.0,0.0,0.0,0.0,0.0,0.0,0.0,0.0,0.0,0.0,0.0,0.0,0.0,0.0,0.0,0.0,0.0,0.0,0.0,0.0,0.0,0.0,0.0,0.0,0.0,0.0,0.0,0.0,0.0,0.0,0.0,0.0,0.0,0.0,0.0,0.0,0.0,0.0,0.0,0.0,0.0,0.0,0.0,0.0,0.0,0.0,0.0,0.0,0.0,0.0,0.0,0.0,0.0,0.0,0.0,0.0,0.0,0.0,0.0,0.0,0.0,0.0,0.0,0.0,0.0,0.0,0.0,0.0,0.0,0.0,0.0,0.0,0.0,0.0,0.0,0.0,0.0,0.0,0.0,0.0,0.0,0.0,0.0,0.0,0.0,0.0,0.0,0.0,0.0,0.0,0.0,0.0,0.0,0.0,0.0,0.0,0.0,0.0,0.0,0.0,0.0,0.0,0.0,0.0,0.0,0.0,0.0,0.0,0.0,0.0,0.0,0.0,0.0,0.0,0.0,0.0,0.0,0.0,0.0,0.0,0.0,0.0,0.0,0.0,0.0,0.0,0.0,0.0,0.0,0.0,0.0,0.0,0.0,0.0,0.0,0.0,0.0,0.0,0.0,0.0,0.0,0.0,0.0,0.0,0.0,0.0,0.0,0.0,0.0,0.0,0.0,0.0,0.0,0.0,0.0,0.0,0.0,0.0,0.0,0.0,0.0,0.0,0.0,0.0,0.0,0.0,0.0,0.0,0.0,0.0,0.0,0.0,0.0,0.0,0.0,0.0,0.0,0.0,0.0,0.0,0.0,0.0,0.0,0.0,0.0,0.0,0.0,0.0,0.0,0.0,0.0,0.0,0.0,0.0,0.0,0.0,0.0,0.0,0.0,0.0,0.0,0.0,0.0,0.0,0.0,0.0,0.0,0.0,0.0,0.0,0.0,0.0,0.0,0.0,0.0,0.0,0.0,0.0,0.0,0.0,0.0,0.0,0.0,0.0,0.0,0.0,0.0,0.0,0.0,0.0,0.0,0.0,0.0,0.0,0.0,0.0,0.0,0.0,0.0,0.0,0.0,0.0,0.0,0.0,0.0,0.0,0.0,0.0,0.0,0.0,0.0,0.0,0.0,0.0,0.0,0.0,0.0,0.0,0.0,0.0,0.0,0.0,0.0,0.0,0.0,0.0,0.0,0.0,0.0,0.0,0.0,0.0,0.0,0.0,0.0,0.0,0.0,0.0,0.0,0.0,0.0,0.0,0.0,0.0,0.0,0.0,0.0,0.0,0.0,0.0,0.0,0.0,0.0,0.0,0.0,0.0,0.0,0.0,0.0,0.0,0.0,0.0,0.0,0.0,0.0,0.0,0.0,0.0,0.0,0.0,0.0,0.0,0.0,0.0,0.0,0.0,0.0,0.0,0.0,0.0,0.0,0.0,0.0,0.0,0.0,0.0,0.0,0.0,0.0,0.0,0.0,0.0,0.0,0.0,0.0,0.0,0.0,0.0,0.0,0.0,0.0,0.0,0.0,0.0,0.0,0.0,0.0,0.0,0.0,0.0,0.0,0.0,0.0,0.0,0.0,0.0,0.0,0.0,0.0,0.0,0.0,0.0,0.0,0.0,0.0,0.0,0.0,0.0,0.0,0.0,0.0,0.0,0.0,0.0,0.0,0.0,0.0,0.0,0.0,0.0,0.0,0.0,0.0,0.0,0.0,0.0,0.0,0.0,0.0,0.0,0.0,0.0,0.0,0.0,0.0,0.0,0.0,0.0,0.0,0.0,0.0,0.0,0.0,0.0,0.0,0.0,0.0,0.0,0.0,0.0,0.0,0.0,0.0,0.0,0.0,0.0,0.0,0.0,0.0,0.0,0.0,0.0,0.0,0.0,0.0,0.0,0.0,0.0,0.0,0.0,0.0,0.0,0.0,0.0,0.0,0.0,0.0,0.0,0.0,0.0,0.0,0.0,0.0,0.0,0.0,0.0,0.0,0.0,0.0,0.0,0.0,0.0,0.0,0.0,0.0,0.0,0.0,0.0,0.0,0.0,0.0,0.0,0.0,0.0,0.0,0.0,0.0,0.0,0.0,0.0,0.0,0.0,0.0,0.0,0.0,0.0,0.0,0.0,0.0,0.0,0.0,0.0,0.0,0.0,0.0,0.0,0.0,0.0,0.0,0.0,0.0,0.0,0.0,0.0,0.0,0.0,0.0,0.0,0.0,0.0,0.0,0.0,0.0,0.0,0.0,0.0,0.0,0.0,0.0,0.0,0.0,0.0,0.0,0.0,0.0,0.0,0.0,0.0,0.0,0.0,0.0,0.0,0.0,0.0,0.0,0.0,0.0,0.0,0.0,0.0,0.0,0.0,0.0,0.0,0.0]}],[{"header":{"parameterUnit":"kt","parameterCategory":2,"dx":1,"dy":1,"la1":29.587661999999998,"la2":31.0,"lo1":-88.76705300000003,"lo2":-86.6583820000003,"nx":115,"ny":88,"refTime":"2022-10-11T12:00:00:Z","depth":0,"parameterNumber":2,"parameterNumberName":"V-component_of_WINDS"},"data":[8.6418,8.6637,8.6637,8.7111,8.7645,8.7004,8.7607,8.88,8.8095,8.8366,8.9062,8.9223,8.9257,8.932,9.0299,9.079,9.0915,9.1481,9.2151,9.2473,9.1827,9.2165,9.2332,9.2249,9.2892,9.3366,9.3714,9.3825,9.4267,9.4158,9.3974,9.4085,9.4654,9.5185,9.5739,9.6504,9.7104,9.7435,9.7696,9.7957,9.8037,9.8201,9.8324,9.8404,9.8443,9.852,9.8628,9.8891,9.9044,9.9255,9.9856,10.0845,10.1526,10.2027,10.2414,10.2921,10.3193,10.3247,10.3146,10.3112,10.3826,10.5034,10.5314,10.591,10.7584,10.8186,10.8502,10.8502,10.8807,10.8776,10.8707,10.867,10.8517,10.836,10.8241,10.7982,10.7619,10.7283,10.6874,10.6263,10.5543,10.4823,10.4375,10.3916,10.3129,10.2086,10.122,10.001,9.8576,9.7999,9.7593,9.7404,9.7179,9.6839,9.6346,9.6196,9.5424,9.4393,9.3018,9.0475,8.9298,8.9939,9.0657,9.0709,9.2026,9.3522,9.397,9.418,9.3977,9.2953,9.17,9.0286,8.8699,8.6749,8.4802,8.5428,8.6637,8.6637,8.6746,8.6821,8.6746,8.6821,8.7144,8.6929,8.7469,8.8061,8.7502,8.7679,8.7993,8.8433,8.9126,8.9737,9.0391,9.0299,9.0333,9.0333,9.0665,9.0846,9.1148,9.1757,9.2427,9.3295,9.3674,9.3935,9.3935,9.3899,9.4048,9.448,9.4957,9.5341,9.6013,9.6862,9.7155,9.7567,9.7869,9.8037,9.8122,9.8164,9.8246,9.8404,9.852,9.8667,9.8795,9.8946,9.9145,9.947,10.0018,10.0447,10.0661,10.0972,10.1055,10.1365,10.123,10.1056,10.1254,10.1998,10.2647,10.2529,10.3781,10.62,10.714,10.7703,10.8014,10.8578,10.8735,10.8706,10.8632,10.8478,10.8357,10.8278,10.8156,10.7677,10.7194,10.6837,10.6477,10.5609,10.4714,10.4415,10.4375,10.3526,10.2469,10.1425,10.0235,9.9238,9.8255,9.7593,9.7292,9.7066,9.6691,9.6312,9.5661,9.4637,9.3742,9.2698,8.9834,8.8003,8.8916,8.9725,9.038,9.1607,9.3013,9.3611,9.39,9.2911,9.1897,9.0485,8.9077,8.7492,8.5509,8.3716,8.4529,8.4989,8.5765,8.6197,8.6197,8.6275,8.6385,8.6385,8.6637,8.6929,8.7185,8.6929,8.6929,8.7185,8.789,8.8467,8.8766,8.932,8.9354,8.9546,8.9832,8.9546,9.002,9.079,9.1113,9.1842,9.2902,9.3562,9.386,9.3935,9.3825,9.3974,9.4085,9.4515,9.4988,9.5715,9.6412,9.6773,9.752,9.7824,9.7869,9.7994,9.8,9.8122,9.8246,9.8404,9.8557,9.8767,9.8891,9.9051,9.9314,9.9612,9.9783,9.9895,9.991,9.9917,9.9885,9.9891,9.9986,10.0301,10.0874,10.2331,10.2822,10.3611,10.5821,10.4892,10.5408,10.6956,10.7482,10.7946,10.7918,10.8257,10.8218,10.8049,10.7964,10.7951,10.763,10.7089,10.6613,10.6202,10.5543,10.4678,10.4451,10.4298,10.3526,10.2469,10.1185,10.0108,9.9032,9.8073,9.7593,9.7292,9.6919,9.6543,9.5896,9.4999,9.371,9.3048,9.2537,9.0077,8.8074,8.8433,8.8854,8.9812,9.0979,9.2257,9.3142,9.3518,9.2746,9.0596,8.9109,8.7847,8.6082,8.3929,8.2478,8.3137,8.37,8.4792,8.546,8.5751,8.6021,8.6131,8.6131,8.6418,8.6495,8.6495,8.6495,8.6604,8.668,8.733,8.7612,8.782,8.823,8.88,8.8701,8.8701,8.85,8.8998,8.9546,9.0299,9.1148,9.1842,9.2427,9.2635,9.3182,9.345,9.3825,9.3974,9.4122,9.4584,9.5149,9.5859,9.6412,9.7104,9.7388,9.752,9.7696,9.7957,9.8037,9.8164,9.8287,9.8406,9.8591,9.8729,9.8915,9.925,9.9499,9.9724,9.984,9.9903,9.9903,9.9903,9.9885,9.9906,9.9993,10.0381,10.1643,10.2427,10.3967,10.4383,10.3125,10.3269,10.4964,10.6091,10.656,10.698,10.747,10.7806,10.7633,10.7518,10.7528,10.7521,10.6928,10.6299,10.5767,10.5239,10.4787,10.4415,10.3916,10.3246,10.2418,10.1312,10.0207,9.934,9.8073,9.7703,9.7179,9.6919,9.598,9.5239,9.4205,9.2247,9.1463,9.0663,8.974,8.8434,8.8275,8.8256,8.9243,9.0071,9.1187,9.2054,9.2513,9.1343,8.9,8.7345,8.5609,8.3743,8.2668,8.1193,8.1042,8.3336,8.37,8.4304,8.5573,8.5909,8.6033,8.6131,8.5779,8.5909,8.6066,8.6131,8.6131,8.6352,8.668,8.6896,8.7111,8.7218,8.7397,8.6929,8.7291,8.7364,8.7574,8.7923,8.8964,8.9223,8.9763,9.1078,9.1009,9.1822,9.2946,9.3633,9.3785,9.3899,9.4231,9.4755,9.5341,9.5955,9.6357,9.6773,9.7003,9.7472,9.7957,9.7913,9.8,9.8164,9.8206,9.8287,9.8404,9.8591,9.8833,9.9152,9.9411,9.9612,9.984,9.9903,9.9903,9.9885,9.9902,9.991,10.0189,10.0189,10.0157,10.1571,10.268,10.2306,10.2558,10.3998,10.4273,10.4678,10.5364,10.5931,10.6195,10.6187,10.643,10.6729,10.6682,10.6445,10.5883,10.541,10.4894,10.4531,10.4185,10.3517,10.283,10.2963,10.2157,10.094,9.9777,9.8255,9.767,9.7179,9.613,9.4934,9.4327,9.3175,9.1166,8.9464,8.8403,8.7604,8.7604,8.765,8.7718,8.8521,8.9219,9.0267,9.0376,8.9443,8.8574,8.6878,8.525,8.3371,8.2098,8.1026,8.0107,7.7323,7.8447,8.0104,8.1639,8.3028,8.4731,8.4533,8.344,8.4058,8.4527,8.4735,8.5374,8.5909,8.5857,8.6078,8.6363,8.6439,8.6341,8.6341,8.6341,8.6821,8.6439,8.6938,8.7645,8.7758,8.8667,8.932,8.9592,9.0414,9.1307,9.199,9.259,9.3521,9.3633,9.3974,9.4374,9.4921,9.5213,9.553,9.5836,9.613,9.6467,9.6914,9.7155,9.7388,9.7659,9.8,9.8246,9.8364,9.8444,9.8758,9.9056,9.9218,9.9445,9.9701,9.9903,9.9903,9.9917,9.9897,9.9906,9.9917,10.0153,10.0851,10.0911,10.1319,10.143,10.1984,10.2512,10.2582,10.2794,10.3559,10.4206,10.4396,10.4584,10.5171,10.5748,10.5747,10.5725,10.5382,10.489,10.457,10.4159,10.3722,10.3034,10.2575,10.228,10.1621,10.0463,9.9135,9.7965,9.7482,9.7066,9.5713,9.4139,9.3395,9.2505,9.0663,8.9077,8.7748,8.7198,8.6758,8.688,8.7119,8.7743,8.8434,8.8572,8.8692,8.7602,8.6202,8.4941,8.3501,8.2073,8.0895,8.0048,7.9716,7.4704,7.4988,7.6996,7.851,7.9867,8.1555,8.1505,8.0274,8.1091,8.1684,8.1893,8.318,8.339,8.4162,8.4637,8.4932,8.5181,8.5387,8.5387,8.5223,8.4861,8.5223,8.5543,8.5732,8.6143,8.6687,8.739,8.7955,8.8543,9.0011,9.0617,9.1737,9.3017,9.3479,9.3825,9.4195,9.4374,9.4618,9.4854,9.5213,9.5494,9.5895,9.615,9.6559,9.6826,9.7204,9.7613,9.7957,9.8206,9.8366,9.8695,9.8986,9.9129,9.9393,9.9639,9.9848,9.9903,9.991,9.9891,9.9906,9.9914,10.0153,10.0752,10.0656,10.0206,9.994,10.0223,10.0691,10.0929,10.0931,10.1446,10.2324,10.2858,10.3197,10.3724,10.4032,10.3957,10.3925,10.3884,10.3543,10.3594,10.3331,10.3729,10.2998,10.1715,10.1185,10.0498,9.9238,9.8182,9.7559,9.7179,9.6919,9.5746,9.3893,9.3016,9.1726,9.0152,8.8717,8.8005,8.7313,8.6905,8.6641,8.6641,8.703,8.7459,8.7475,8.6914,8.5348,8.372,8.263,8.1942,8.0832,7.9771,7.9338,7.9128,7.3573,7.4763,7.4861,7.5744,7.657,7.5916,7.6277,7.7382,7.7205,7.7387,7.7805,7.9159,7.9883,7.9969,8.1295,8.2059,8.219,8.2442,8.2613,8.2653,8.2803,8.2888,8.2856,8.3064,8.3534,8.353,8.403,8.5341,8.4988,8.6754,8.9088,9.0905,9.2239,9.2998,9.3266,9.3607,9.3899,9.4231,9.4444,9.4687,9.4854,9.5378,9.5592,9.5918,9.6357,9.672,9.7204,9.7696,9.8,9.825,9.8518,9.8862,9.9143,9.9393,9.9639,9.983,9.9903,9.991,9.9891,9.9906,9.9914,9.9922,10.0191,10.0039,9.9838,9.9726,9.979,9.9865,9.986,9.9681,9.9486,10.0405,10.1352,10.1738,10.2205,10.2262,10.2202,10.233,10.2276,10.2199,10.2256,10.2685,10.3019,10.2306,10.0913,10.0272,9.9332,9.8269,9.7679,9.7112,9.7066,9.6806,9.5628,9.3801,9.2086,9.0663,8.9217,8.7748,8.7313,8.7168,8.7052,8.6641,8.6344,8.6194,8.6567,8.5668,8.428,8.2821,8.1423,8.0781,8.0126,7.9093,7.8102,7.8007,7.7793,7.0551,7.1158,7.182,7.2979,7.3982,7.2741,7.2409,7.3284,7.4856,7.5582,7.5916,7.6984,7.7618,7.832,7.9442,8.0143,7.9699,8.0363,8.0798,8.1078,8.0938,8.1203,8.1793,8.2297,8.1836,8.233,8.279,8.2987,8.3157,8.3865,8.5782,8.8243,9.0593,9.149,9.2105,9.2834,9.3414,9.3682,9.3938,9.4231,9.441,9.4515,9.4823,9.5278,9.5775,9.6357,9.6914,9.7435,9.8,9.8206,9.8407,9.8687,9.9007,9.9259,9.9461,9.9783,9.9903,9.9903,9.9879,9.9897,9.991,9.9917,9.9884,9.9887,9.9885,9.9765,9.9679,9.955,9.9469,9.9369,9.9331,9.9192,9.9804,9.9992,10.039,10.0648,10.0754,10.1378,10.1485,10.0824,10.0848,10.1532,10.1871,10.0824,9.9775,9.9001,9.8244,9.7707,9.709,9.7079,9.7066,9.6658,9.5595,9.3612,9.1794,9.012,8.8514,8.6905,8.6758,8.6905,8.6641,8.6315,8.6047,8.5715,8.5154,8.4199,8.2341,8.0465,7.9394,7.8645,7.8296,7.7736,7.6708,7.6507,7.656,6.8986,6.9112,6.9773,7.074,7.1428,7.0592,7.0143,7.0537,7.1926,7.2832,7.3164,7.4224,7.4922,7.552,7.627,7.6956,7.6677,7.7596,7.7931,7.8056,7.8397,7.9332,7.9763,8.0084,8.0587,8.085,8.1376,8.1508,8.1508,8.2433,8.361,8.5076,8.7747,8.9169,8.9583,9.1119,9.2282,9.2698,9.3237,9.3602,9.3899,9.3974,9.4122,9.4479,9.5185,9.5775,9.6412,9.7067,9.7705,9.8127,9.8206,9.8553,9.8948,9.9152,9.9356,9.9639,9.9903,9.9903,9.991,9.9885,9.9906,9.9914,9.9882,9.9887,9.9887,9.9826,9.9765,9.9669,9.9431,9.9325,9.9256,9.9108,9.8935,9.9085,9.8968,9.9259,9.9177,9.9848,10.0151,9.951,9.9151,9.9695,10.0109,9.9301,9.8042,9.7119,9.5852,9.5337,9.5939,9.6162,9.6224,9.5698,9.5075,9.3172,9.1531,8.9984,8.8403,8.7052,8.6641,8.6641,8.6315,8.6017,8.5567,8.4991,8.4042,8.3108,8.1639,8.0194,7.8165,7.6919,7.726,7.6836,7.5769,7.5188,7.5084,6.8859,6.8888,6.9015,6.9015,6.8819,6.8888,6.8888,6.8986,6.9199,6.9384,6.9848,7.0626,7.1173,7.1536,7.3139,7.3548,7.3486,7.3676,7.3986,7.456,7.5524,7.5835,7.6603,7.7785,7.8844,7.845,7.9239,8.0061,8.0061,8.085,8.2115,8.3704,8.446,8.5215,8.5489,8.8096,8.9666,9.0396,9.178,9.2565,9.3242,9.3682,9.3864,9.4195,9.4687,9.5341,9.5977,9.6667,9.7398,9.7963,9.8164,9.8482,9.8908,9.9082,9.9277,9.9531,9.9773,9.9895,9.9895,9.9872,9.9847,9.9815,9.9914,9.9887,9.9885,9.983,9.9713,9.9659,9.9466,9.9325,9.9208,9.9089,9.8847,9.8687,9.8333,9.8173,9.7648,9.7771,9.8033,9.7774,9.7659,9.7605,9.7912,9.7672,9.6366,9.4933,9.3639,9.3574,9.4388,9.4577,9.4505,9.4067,9.3968,9.2121,9.06,8.9464,8.8434,8.7313,8.6641,8.6493,8.6166,8.5717,8.5114,8.435,8.3264,8.1811,8.0682,7.9726,7.7834,7.591,7.615,7.5368,7.4604,7.3824,7.3396,6.7406,6.7564,6.8576,6.7779,6.5962,6.5829,6.6491,6.7276,6.7434,6.7879,6.9015,6.9363,6.9584,6.9897,7.0995,7.1442,7.0995,7.1442,7.1913,7.261,7.3488,7.467,7.5873,7.6895,7.7562,7.7989,7.8483,7.8548,7.8613,7.8976,8.0098,8.0824,8.1229,8.1934,8.3003,8.536,8.6973,8.7794,8.9291,9.0934,9.1418,9.2663,9.3718,9.3867,9.4444,9.5083,9.5715,9.6301,9.7118,9.7705,9.8127,9.837,9.872,9.8986,9.9204,9.9431,9.9625,9.9713,9.9762,9.9663,9.9455,9.9688,9.9815,9.9887,9.9834,9.9765,9.9688,9.9625,9.9431,9.9303,9.928,9.9089,9.8854,9.8478,9.81,9.7493,9.6914,9.6337,9.6371,9.6431,9.6097,9.6086,9.6272,9.6349,9.4875,9.3423,9.2137,9.1961,9.2454,9.2504,9.2354,9.2211,9.2053,9.0856,8.9647,8.8906,8.8118,8.7022,8.6641,8.6344,8.5717,8.5265,8.4686,8.3421,8.1971,8.0547,7.9368,7.8198,7.6786,7.503,7.3592,7.2281,7.187,7.2004,7.1519,6.545,6.5717,6.6595,6.5934,6.4261,6.4425,6.5103,6.5906,6.6435,6.7276,6.8136,6.8732,6.8986,6.9208,6.9961,6.9867,6.943,7.0084,7.0329,7.1025,7.1913,7.3006,7.4014,7.5101,7.6217,7.6249,7.6761,7.7097,7.7198,7.7923,7.8448,7.8313,7.8417,7.9232,8.0358,8.1984,8.3525,8.4709,8.6558,8.8427,8.9187,9.1256,9.2562,9.304,9.3835,9.4823,9.5405,9.5859,9.6485,9.7081,9.7351,9.7727,9.8105,9.8401,9.8749,9.9166,9.9299,9.9428,9.9499,9.9375,9.9279,9.9512,9.9751,9.9884,9.9846,9.9734,9.9679,9.9588,9.9451,9.9303,9.9256,9.9089,9.879,9.837,9.7888,9.7215,9.6614,9.5921,9.5757,9.5735,9.5319,9.5003,9.5019,9.4941,9.3441,9.2017,9.0953,9.0106,9.0133,9.0156,8.9725,8.9568,8.8999,8.7906,8.8078,8.7975,8.7831,8.7168,8.6641,8.6017,8.5265,8.4657,8.3548,8.2,8.0575,7.9726,7.8562,7.7011,7.4881,7.2728,7.1004,6.9695,6.9768,6.9879,6.9591,6.3383,6.3521,6.3521,6.3494,6.3521,6.3988,6.4152,6.4289,6.5612,6.6143,6.6567,6.785,6.8321,6.8704,6.8675,6.883,6.9015,6.9015,6.9208,6.9649,7.0421,7.1412,7.2202,7.3119,7.3935,7.4045,7.4994,7.5526,7.5736,7.6557,7.659,7.6313,7.6687,7.7628,7.8542,7.9324,8.0459,8.1892,8.3855,8.5521,8.6945,8.8936,9.0422,9.157,9.29,9.4123,9.4823,9.4988,9.5468,9.6264,9.6504,9.6929,9.7474,9.7833,9.8256,9.872,9.8981,9.9119,9.9119,9.907,9.9234,9.9461,9.9659,9.9783,9.9809,9.9745,9.9697,9.9625,9.9373,9.9256,9.9157,9.9051,9.8816,9.8443,9.7862,9.7204,9.6484,9.5836,9.5431,9.5169,9.5035,9.5003,9.5016,9.3763,9.2367,9.1236,9.017,8.9442,8.9148,8.8928,8.8177,8.6919,8.6291,8.6332,8.6565,8.6638,8.6488,8.6194,8.5957,8.5387,8.4475,8.3363,8.2261,8.0844,7.9561,7.909,7.8057,7.4829,7.1958,7.0024,6.8819,6.8209,6.7911,6.8275,6.8084,6.1092,5.9839,5.9839,5.996,6.0251,6.0422,6.1118,6.209,6.2907,6.3686,6.4642,6.5372,6.6359,6.7016,6.7406,6.785,6.8859,6.8986,6.8986,6.943,7.0299,7.0935,7.1412,7.2464,7.3294,7.3632,7.3872,7.4062,7.4312,7.4639,7.4918,7.4981,7.5548,7.6487,7.7097,7.7793,7.8315,7.9652,8.1485,8.28,8.397,8.6576,8.8566,9.0217,9.1567,9.3013,9.4539,9.4787,9.5185,9.5836,9.6108,9.6281,9.6647,9.7176,9.775,9.8219,9.864,9.8803,9.8753,9.879,9.8816,9.903,9.9259,9.9496,9.966,9.9641,9.956,9.9504,9.9232,9.9079,9.9004,9.9013,9.8753,9.8368,9.7911,9.7154,9.6486,9.6041,9.5748,9.533,9.4999,9.5035,9.4087,9.2751,9.1636,9.054,8.971,8.8971,8.8684,8.8546,8.7275,8.5196,8.4948,8.5483,8.5545,8.5354,8.5363,8.5094,8.5118,8.4475,8.2865,8.1623,8.0789,7.9671,7.8394,7.7011,7.468,7.1753,6.9026,6.8162,6.7289,6.6551,6.642,6.6484,6.6722,5.9154,5.8336,5.8486,5.861,5.8908,5.9031,5.9596,6.0422,6.1262,6.2064,6.302,6.385,6.4833,6.5773,6.6435,6.6857,6.7044,6.7722,6.8008,6.8206,6.8627,6.9473,7.024,7.1145,7.1472,7.159,7.2232,7.2487,7.2202,7.2348,7.2923,7.3663,7.4765,7.5654,7.6417,7.7396,7.7793,7.8414,7.9328,8.0459,8.1626,8.3767,8.6029,8.7276,8.9358,9.105,9.2577,9.3406,9.4266,9.4988,9.535,9.5567,9.594,9.6394,9.7105,9.7591,9.8107,9.8333,9.8481,9.852,9.8698,9.8915,9.9019,9.9204,9.9527,9.9588,9.9574,9.9432,9.9232,9.9061,9.9013,9.8953,9.872,9.8441,9.8144,9.7601,9.7179,9.6541,9.5897,9.5423,9.4963,9.4374,9.3607,9.2473,9.1429,9.0299,8.9197,8.816,8.7475,8.7348,8.5698,8.3757,8.3978,8.4435,8.4153,8.4098,8.3999,8.3969,8.3993,8.3144,8.1369,8.0081,7.9479,7.8507,7.7021,7.4375,7.11,6.9097,6.7786,6.6696,6.5615,6.5615,6.5513,6.5452,6.5413,5.793,5.813,5.868,5.8856,5.8905,5.9057,5.9107,5.9379,6.0379,6.1092,6.1379,6.2714,6.3298,6.3988,6.5075,6.5344,6.5372,6.5934,6.6435,6.6595,6.6959,6.7636,6.8264,6.8605,6.8995,6.9188,7.0088,7.0299,7.0451,7.0572,7.1175,7.2355,7.3551,7.4765,7.5759,7.6826,7.776,7.7891,7.8055,7.8506,7.9547,8.1288,8.2803,8.4455,8.6688,8.8989,9.0818,9.1779,9.2976,9.3759,9.423,9.4516,9.4921,9.5378,9.615,9.6892,9.7361,9.7622,9.8209,9.8443,9.863,9.88,9.8946,9.9119,9.9333,9.9496,9.9606,9.955,9.9431,9.9245,9.9099,9.8983,9.8953,9.8725,9.8444,9.814,9.7727,9.6929,9.6276,9.5738,9.4827,9.4087,9.3111,9.2157,9.1167,8.9866,8.8635,8.7085,8.6021,8.5216,8.389,8.3071,8.3045,8.2603,8.2252,8.2618,8.2727,8.2762,8.248,8.1919,8.0487,7.9174,7.8406,7.6835,7.5453,7.3111,7.0746,6.8724,6.6742,6.5808,6.5252,6.5081,6.4499,6.4219,6.4048,5.8024,5.9253,6.0189,6.0556,6.041,5.9676,5.926,5.9315,5.9256,5.9154,5.9302,5.9839,6.0277,6.0686,6.2064,6.3463,6.4589,6.4725,6.4968,6.5103,6.5906,6.6039,6.6067,6.6463,6.7248,6.7406,6.7963,6.853,6.8966,6.9496,7.0266,7.1055,7.2355,7.3582,7.4765,7.5969,7.7062,7.7595,7.7924,7.7989,7.8535,7.9706,8.1095,8.2844,8.4299,8.6915,8.9463,9.0492,9.1744,9.31,9.4048,9.4302,9.4552,9.506,9.569,9.6207,9.6504,9.7253,9.8,9.8364,9.8406,9.8666,9.8865,9.8967,9.9136,9.9373,9.9578,9.9629,9.9483,9.9303,9.9221,9.9099,9.8983,9.8891,9.8729,9.8408,9.7899,9.7228,9.6541,9.5701,9.4723,9.3757,9.2484,9.148,9.0631,8.9456,8.799,8.6363,8.5523,8.4497,8.3206,8.2446,8.1701,8.1126,8.1051,8.1595,8.1374,8.1206,8.0776,8.0059,7.8953,7.8104,7.639,7.4779,7.3382,7.1873,7.0756,6.8863,6.6886,6.5445,6.4887,6.4282,6.3238,6.2692,6.2362,5.5469,5.6191,5.684,5.7526,5.8083,5.7784,5.7925,5.8642,5.8481,5.8336,5.8486,5.8759,5.8908,5.9327,6.0131,6.0974,6.1948,6.2513,6.3073,6.3325,6.3988,6.4125,6.4833,6.5238,6.5878,6.6275,6.5478,6.5745,6.7219,6.7793,6.8403,6.9408,7.0845,7.2263,7.3551,7.4765,7.5622,7.6073,7.6249,7.6455,7.713,7.7661,7.8986,8.0519,8.2236,8.4197,8.6778,8.8218,9.0412,9.2013,9.3397,9.3938,9.4194,9.448,9.489,9.5405,9.5654,9.6357,9.7493,9.7882,9.8131,9.8444,9.8703,9.8828,9.8976,9.9222,9.9496,9.9583,9.9507,9.9504,9.9363,9.9258,9.9061,9.8983,9.8865,9.8661,9.8219,9.7418,9.6704,9.6018,9.4994,9.3721,9.2239,9.1044,9.0113,8.88,8.7364,8.6254,8.541,8.4148,8.2626,8.1946,8.121,8.0664,8.0508,8.0352,7.9943,7.9309,7.8761,7.7676,7.6807,7.668,7.5187,7.2958,7.1167,6.9618,6.8445,6.7645,6.6413,6.4887,6.4282,6.3456,6.2189,6.0958,6.0401,5.2703,5.3022,5.3178,5.4064,5.5528,5.5653,5.6676,5.7675,5.7906,5.8061,5.8312,5.8486,5.861,5.8908,5.8883,5.9031,5.9571,6.0567,6.1118,6.1548,6.2064,6.2513,6.3463,6.3877,6.4697,6.5075,6.4125,6.374,6.4995,6.5399,6.6567,6.7835,6.929,7.0755,7.2086,7.3438,7.4187,7.4874,7.4842,7.5164,7.5832,7.6455,7.7428,7.9025,8.0331,8.1941,8.3745,8.6368,8.8706,9.0088,9.2277,9.3076,9.2938,9.2867,9.3191,9.3663,9.3981,9.4901,9.644,9.6936,9.7553,9.8292,9.8557,9.8661,9.8878,9.9119,9.928,9.9441,9.9583,9.9612,9.9394,9.9325,9.9221,9.9033,9.8891,9.8698,9.837,9.7593,9.6687,9.6078,9.5126,9.4051,9.2565,9.122,9.0113,8.8668,8.7258,8.6254,8.5185,8.3796,8.2381,8.1572,8.0841,8.0486,7.9733,7.9134,7.8004,7.7335,7.614,7.5072,7.4754,7.4786,7.3556,7.0843,6.8771,6.7821,6.6932,6.5701,6.4542,6.3781,6.3238,6.2627,6.0559,5.8508,5.8123,5.2906,5.43,5.5061,5.554,5.5944,5.6255,5.6653,5.7076,5.7668,5.7584,5.791,5.8061,5.756,5.8036,5.8162,5.8461,5.8734,5.9154,5.9743,6.0157,6.1118,6.1431,6.1457,6.2116,6.2907,6.2881,6.2346,6.2907,6.4179,6.4995,6.5103,6.5773,6.732,6.8791,7.0304,7.1674,7.2694,7.36,7.3824,7.4187,7.4765,7.5516,7.6692,7.815,7.9129,8.0411,8.2381,8.4368,8.6114,8.8397,9.0639,9.1008,9.0367,9.001,9.0219,9.0926,9.1561,9.2849,9.4604,9.5543,9.6483,9.8407,9.8445,9.8482,9.8589,9.8795,9.9067,9.9315,9.9489,9.9584,9.965,9.9504,9.9363,9.9195,9.872,9.837,9.7978,9.7276,9.6541,9.5958,9.4963,9.3831,9.2519,9.1063,8.9832,8.8601,8.733,8.6033,8.4843,8.3558,8.2257,8.132,8.0841,8.0486,7.9143,7.8197,7.5988,7.4789,7.3336,7.2591,7.2086,7.1555,7.0314,6.8099,6.6698,6.6852,6.6034,6.3638,6.2404,6.2389,6.1334,5.9834,5.8022,5.6061,5.4691,5.0104,5.0787,5.1377,5.2003,5.2906,5.3162,5.3949,5.4653,5.5024,5.5195,5.5172,5.5172,5.5172,5.5172,5.5303,5.6095,5.673,5.701,5.7938,5.9302,5.9864,6.0302,6.0353,6.0593,6.0712,6.0882,6.1026,6.1457,6.2143,6.254,6.3378,6.4015,6.4995,6.6351,6.7535,6.8356,6.9877,7.0964,7.1381,7.2232,7.3325,7.4108,7.5089,7.6217,7.7529,7.8542,8.0377,8.2339,8.4344,8.5811,8.6909,8.7179,8.6729,8.7404,8.8244,8.8905,8.9428,9.064,9.2337,9.3348,9.4133,9.5641,9.6725,9.7024,9.7359,9.8377,9.889,9.9136,9.9318,9.9531,9.9593,9.9466,9.9309,9.9132,9.8687,9.8333,9.7936,9.713,9.6354,9.5487,9.469,9.3531,9.2086,9.0479,8.9184,8.8128,8.6905,8.4957,8.3796,8.2959,8.1792,8.1193,8.0841,7.9743,7.8249,7.6431,7.4174,7.2551,7.137,7.0803,6.9754,6.8415,6.7082,6.4867,6.2876,6.3516,6.3762,6.0905,5.8866,5.8973,5.8479,5.6912,5.5603,5.482,5.3482,4.7368,4.7368,4.7388,4.8325,4.9415,5.0047,5.1018,5.2163,5.2618,5.2935,5.2754,5.2754,5.2776,5.2754,5.307,5.3408,5.4683,5.5481,5.6401,5.8412,5.8561,5.9327,5.9154,5.9327,5.9327,5.9647,5.9672,5.994,6.0233,6.0933,6.1339,6.2372,6.3213,6.3877,6.502,6.5983,6.667,6.7707,6.8656,7.0025,7.159,7.244,7.3356,7.4187,7.5695,7.6761,7.8088,8.0377,8.2271,8.2943,8.3299,8.377,8.4131,8.5046,8.5821,8.6406,8.6892,8.8185,8.9964,9.082,9.1567,9.3236,9.4434,9.519,9.5416,9.6902,9.8027,9.8542,9.9034,9.9402,9.955,9.9575,9.9413,9.9145,9.8785,9.8408,9.7936,9.713,9.6297,9.5423,9.448,9.3567,9.2555,9.0604,8.9184,8.772,8.6045,8.3999,8.2959,8.2103,8.1415,8.0969,8.0005,7.8324,7.6791,7.5043,7.2859,7.1082,7.0215,6.9441,6.7824,6.6338,6.5118,6.2802,6.0138,5.9895,6.086,5.8397,5.6412,5.6011,5.5782,5.4368,5.3524,5.3749,5.2862,4.6323,4.6511,4.6846,4.7201,4.7661,4.9251,5.0209,5.0674,5.1799,5.2437,5.2278,5.2596,5.2141,5.2754,5.1981,5.2618,5.3093,5.4215,5.5303,5.6248,5.7185,5.7638,5.7161,5.7764,5.8387,5.871,5.9525,5.9352,5.9327,5.9768,6.0328,6.0737,6.1806,6.2627,6.3325,6.4697,6.5773,6.6407,6.7478,6.8656,6.9502,7.0995,7.1944,7.2495,7.3792,7.5208,7.6562,7.8148,7.8941,7.912,8.0159,8.1095,8.2131,8.2293,8.265,8.3029,8.4205,8.5554,8.7291,8.8773,9.014,9.1527,9.2139,9.2518,9.3334,9.4691,9.6051,9.6699,9.814,9.8936,9.9327,9.9599,9.947,9.9317,9.8862,9.8444,9.7936,9.7167,9.6411,9.5897,9.4339,9.326,9.2345,9.1324,8.9934,8.8095,8.6341,8.4664,8.3408,8.1979,8.1162,8.0713,7.9053,7.7067,7.5441,7.3658,7.158,6.9981,6.9256,6.7489,6.571,6.3367,6.2427,6.1106,5.8359,5.7296,5.734,5.6266,5.4683,5.3655,5.2884,5.1831,5.114,5.1715,5.1807,4.6342,4.6342,4.6511,4.653,4.6678,4.7807,4.8305,4.847,4.9436,4.9763,4.9763,4.9784,4.9763,4.9763,4.9763,5.023,5.1158,5.1959,5.2912,5.388,5.4993,5.5125,5.466,5.4947,5.5588,5.5741,5.6225,5.6506,5.681,5.7137,5.7889,5.8808,5.9349,6.0226,6.1431,6.2425,6.3352,6.4398,6.5344,6.6407,6.7191,6.8569,6.9166,6.9538,7.0755,7.211,7.3716,7.6094,7.7069,7.6635,7.7069,7.7983,7.9111,7.9418,8.0078,8.1293,8.2272,8.3684,8.5443,8.6656,8.7877,8.8976,9.0093,9.0678,9.1448,9.2766,9.4021,9.4967,9.6586,9.7588,9.8198,9.905,9.9413,9.9297,9.912,9.8608,9.8019,9.7239,9.665,9.5824,9.469,9.3485,9.2981,9.0831,8.9382,8.8265,8.6449,8.4892,8.3645,8.2103,8.078,8.0035,7.8683,7.6593,7.4785,7.2775,7.057,6.9386,6.8153,6.5333,6.2815,5.9235,5.838,5.7297,5.5687,5.4341,5.2928,5.1746,5.1296,5.1117,4.9831,4.9109,4.9664,5.0394,5.0244,4.5479,4.5837,4.6025,4.6174,4.6174,4.6678,4.6866,4.7053,4.7368,4.7701,4.7701,4.7722,4.7868,4.7722,4.7701,4.8325,4.9415,5.0047,5.0997,5.1959,5.2119,5.1821,5.1959,5.2437,5.3093,5.3408,5.4193,5.4193,5.4458,5.5256,5.6048,5.7113,5.7715,5.8487,5.9596,6.0618,6.1457,6.2399,6.3325,6.4425,6.5506,6.6143,6.6538,6.667,6.8374,6.9567,7.0665,7.392,7.5303,7.4438,7.4874,7.5768,7.6967,7.7628,7.8465,7.9756,8.0973,8.2358,8.3752,8.4825,8.5728,8.658,8.766,8.8541,8.92,9.0604,9.1788,9.2914,9.4528,9.5775,9.6312,9.7318,9.8253,9.8537,9.7993,9.7586,9.7432,9.7057,9.6576,9.5909,9.4408,9.3111,9.1906,9.0185,8.8532,8.7098,8.5168,8.32,8.2594,8.1384,7.9974,7.9246,7.7675,7.5807,7.3836,7.1703,6.9671,6.8311,6.5848,6.3007,5.9735,5.7162,5.6089,5.4279,5.4096,5.318,5.1033,4.9224,4.8547,4.8793,4.8267,4.8322,4.8641,4.8796,4.885,4.3396,4.4989,4.5518,4.5498,4.5498,4.5817,4.6174,4.6866,4.6866,4.7201,4.7535,4.7555,4.7535,4.7722,4.7722,4.7701,4.8014,4.9251,5.0047,4.9905,4.8923,4.9108,5.0188,5.1318,5.1799,5.2459,5.3251,5.3723,5.3566,5.417,5.5256,5.541,5.6482,5.7739,5.8039,5.9864,6.0473,6.0856,6.2399,6.3239,6.3517,6.5075,6.5878,6.6011,6.7607,6.8656,6.9129,7.1293,7.2786,7.2932,7.3824,7.4639,7.5736,7.6999,7.7661,7.8115,7.979,8.1273,8.2315,8.3291,8.4203,8.5032,8.5509,8.5622,8.6545,8.8062,8.9428,9.0468,9.2164,9.3503,9.4131,9.4873,9.5677,9.6622,9.5818,9.5592,9.6264,9.6047,9.5473,9.5142,9.3764,9.1927,9.0569,8.9566,8.7894,8.6242,8.4599,8.3288,8.2349,8.0719,7.945,7.748,7.5499,7.3545,7.1861,6.9607,6.6982,6.5243,6.2549,5.978,5.6784,5.6827,5.6469,5.4664,5.3384,5.2297,5.0826,4.9755,4.8802,4.762,4.7376,4.7518,4.7589,4.7693,4.7707,4.0746,4.1269,4.1616,4.1633,4.1616,4.2153,4.3016,4.4233,4.4762,4.5798,4.7033,4.7221,4.7368,4.7555,4.7722,4.7722,4.7701,4.8159,4.8635,4.8325,4.6807,4.6954,4.847,4.8243,4.8368,4.9436,5.023,5.0555,5.0576,5.1018,5.1959,5.307,5.3834,5.4792,5.6177,5.6937,5.7239,5.7565,5.9324,6.02,6.0635,6.2116,6.3293,6.3682,6.4968,6.6303,6.7478,6.8345,6.8975,6.9041,6.9479,7.0814,7.2933,7.5356,7.7097,7.7921,7.9486,8.0838,8.1507,8.2272,8.2958,8.3469,8.393,8.4441,8.5113,8.6076,8.7454,8.8568,9.0249,9.1643,9.2521,9.357,9.4085,9.3874,9.3236,9.3225,9.3415,9.3043,9.2722,9.2832,9.2447,9.213,9.1097,9.0011,8.8198,8.7026,8.486,8.2869,8.1543,7.9944,7.8384,7.66,7.4062,7.1838,6.9924,6.7159,6.4393,6.1916,5.9674,5.7362,5.5027,5.5389,5.5027,5.3036,5.1387,5.0094,4.8941,4.8236,4.7662,4.6912,4.5858,4.6174,4.6279,4.6292,4.5875,3.8815,3.9151,3.9327,3.9327,3.9327,3.9679,4.0554,4.1962,4.2997,4.4233,4.5817,4.6698,4.7221,4.7368,4.7555,4.7722,4.7535,4.5947,4.559,4.5422,4.4366,4.4894,4.6284,4.559,4.5779,4.7515,4.818,4.849,4.8656,4.88,4.9621,5.1018,5.1639,5.2732,5.4147,5.4769,5.5102,5.541,5.7088,5.8139,5.8313,6.0182,6.1417,6.1963,6.3239,6.4534,6.5878,6.6011,6.6303,6.6829,6.6698,6.7906,7.0785,7.3761,7.5969,7.7265,7.8874,7.9968,8.0787,8.1507,8.1957,8.2427,8.3103,8.3684,8.4195,8.5086,8.6108,8.7088,8.842,8.9625,9.0477,9.1867,9.2134,9.1094,9.1107,9.1456,9.216,9.1655,9.0861,9.0501,9.0314,9.0223,8.9662,8.8283,8.6653,8.5988,8.4433,8.2381,8.107,7.9713,7.8007,7.5948,7.3274,7.0866,6.7556,6.4395,6.1752,5.9455,5.7718,5.593,5.3588,5.2687,5.1593,5.0302,4.9016,4.7698,4.6509,4.5736,4.5348,4.457,4.3984,4.4162,4.4748,4.4425,4.3758,3.7527,3.8684,3.9135,3.8827,3.8618,3.8668,3.947,4.0137,4.1754,4.2653,4.3702,4.5817,4.6342,4.6846,4.6659,4.7181,4.6303,4.3151,4.1736,4.1909,4.1736,4.2807,4.4744,4.4555,4.5252,4.6994,4.7828,4.8159,4.7807,4.8139,4.8449,4.9272,5.035,5.1297,5.2119,5.352,5.4614,5.5102,5.6353,5.7439,5.7889,5.9571,6.0959,6.1561,6.268,6.3713,6.4289,6.4425,6.4968,6.6171,6.6435,6.7607,6.9473,7.2348,7.4688,7.6177,7.7265,7.8654,8.0233,8.0615,8.1042,8.1588,8.2762,8.3321,8.3504,8.4481,8.5478,8.6091,8.689,8.7546,8.8172,8.8946,8.9383,8.9242,8.9735,9.0391,9.1382,9.175,9.0887,8.8938,8.7777,8.6072,8.5213,8.4434,8.3508,8.3164,8.2201,8.0921,7.9228,7.7711,7.6745,7.4895,7.1822,6.8862,6.5285,6.1567,5.9031,5.6762,5.472,5.3119,5.0394,4.949,4.8561,4.8408,4.7122,4.6123,4.4942,4.4765,4.3984,4.2593,4.1803,4.1589,4.1787,4.1771,4.1391,3.3793,3.4298,3.4298,3.4298,3.4343,3.478,3.565,3.7082,3.8074,3.9503,4.1077,4.1962,4.2463,4.2635,4.2789,4.2961,4.2789,4.1736,4.1216,4.139,4.0554,4.1095,4.2671,4.1789,4.2135,4.372,4.4062,4.4214,4.4214,4.4403,4.5233,4.658,4.7394,4.8759,5.0435,5.1244,5.1705,5.2185,5.3588,5.497,5.6177,5.7865,5.9571,6.0959,6.008,5.9833,6.1041,6.1638,6.2513,6.3709,6.3848,6.4752,6.68,7.0153,7.3252,7.5526,7.6798,7.7921,7.8687,7.9404,7.9711,7.9303,8.1141,8.2454,8.2609,8.414,8.523,8.5902,8.659,8.7271,8.767,8.7687,8.8051,8.903,8.9388,8.9416,8.9046,8.8879,8.8261,8.7381,8.7067,8.6508,8.5298,8.3027,8.099,7.8503,7.6941,7.5236,7.3696,7.2894,7.2664,7.1238,6.8575,6.6144,6.3779,5.6947,5.2168,5.0324,4.8532,4.7218,4.5632,4.6018,4.586,4.6299,4.5719,4.4731,4.4146,4.395,4.2773,4.1193,3.9999,3.94,3.96,3.9385,3.9385,3.1815,3.1815,3.1815,3.1815,3.1858,3.2256,3.3097,3.4328,3.5435,3.6654,3.8027,3.9045,3.9541,3.9935,3.8299,3.7621,3.7864,3.8405,3.8728,3.8799,3.8494,3.9218,4.0763,4.008,4.0414,4.1998,4.2171,4.2171,4.2171,4.2171,4.2843,4.4177,4.4927,4.6147,4.7672,4.8693,4.9201,4.9525,5.1574,5.3115,5.4147,5.5871,5.7565,5.9252,5.7865,5.7841,5.9496,6.0251,6.1288,6.2531,6.2531,6.3319,6.4968,6.8045,7.1318,7.453,7.5558,7.6255,7.7132,7.8214,7.8502,7.8051,8.0112,8.1541,8.2026,8.3469,8.471,8.4988,8.5777,8.6596,8.6901,8.679,8.7173,8.8556,8.8832,8.8577,8.8113,8.7873,8.7608,8.7126,8.6511,8.5911,8.3831,8.1774,7.9502,7.7508,7.4798,7.2854,7.1043,6.9031,6.7874,6.6698,6.4398,6.2094,6.131,5.2379,4.6708,4.5176,4.375,4.3222,4.3616,4.3987,4.3766,4.4011,4.3526,4.2544,4.2134,4.1755,3.977,3.8397,3.7794,3.739,3.8397,3.6986,3.7188,3.1744,3.1701,3.1715,3.1659,3.173,3.1758,3.1958,3.213,3.3695,3.4513,3.4913,3.6714,3.8016,3.8199,3.4092,3.2301,3.3021,3.3607,3.4106,3.4844,3.5638,3.6909,3.8478,3.9201,4.008,4.1303,4.1303,4.1477,4.1651,4.1825,4.2016,4.2135,4.3186,4.3902,4.4724,4.6454,4.7341,4.7961,5.0147,5.1783,5.2326,5.3831,5.4622,5.5188,5.6115,5.7075,5.8608,5.9757,6.0794,6.2205,6.2214,6.2801,6.4234,6.5919,6.872,7.2531,7.3108,7.392,7.564,7.6999,7.7661,7.7824,7.9303,8.0581,8.0923,8.2546,8.3291,8.2919,8.3808,8.4816,8.5618,8.5764,8.6512,8.8101,8.8026,8.818,8.8836,8.8753,8.8766,8.8252,8.6387,8.4486,8.2308,8.0204,7.9036,7.7692,7.534,7.1831,7.0141,6.6404,6.3663,6.1871,5.9112,5.4832,5.1791,4.6464,4.4488,4.3026,4.077,4.1378,4.2022,4.2267,4.1944,4.1533,4.0106,3.9558,3.9893,3.8955,3.6958,3.6581,3.5986,3.5389,3.6,3.4777,3.4777,3.0492,3.0492,3.0507,3.0492,3.0535,3.0976,3.1189,3.1386,3.2142,3.2643,3.2657,3.331,3.333,3.2908,3.1752,3.1502,3.2216,3.2619,3.3155,3.3692,3.446,3.5425,3.6582,3.6792,3.7298,3.7994,3.8156,3.8156,3.8172,3.8172,3.8865,4.0397,4.2093,4.341,4.4377,4.6475,4.7131,4.6711,4.7441,4.898,5.0528,4.9292,4.8306,4.8616,5.0199,5.1715,5.2989,5.5084,5.6824,5.8111,5.9318,6.0161,6.0646,6.2076,6.3667,6.5504,6.9126,7.1775,7.251,7.5119,7.659,7.6692,7.7529,7.8641,7.971,8.1018,8.1634,8.1381,8.0264,8.1021,8.3685,8.4529,8.5502,8.755,8.7766,8.8118,8.8977,8.9041,8.891,8.8707,8.7091,8.5728,8.4262,8.0396,7.5822,7.2448,6.9218,6.6139,6.2097,6.0945,5.9284,5.7945,5.6155,5.1624,4.4238,3.9726,3.6674,3.569,3.5662,3.5326,3.5811,3.4245,3.3416,3.673,3.4939,3.4423,3.6254,3.6289,3.4915,3.5945,3.6351,3.6148,3.4573,3.4177,3.419,2.7811,2.7824,2.8654,2.9332,2.9875,2.9543,2.9874,3.0563,3.0933,3.1075,3.0893,2.9505,2.9148,2.9529,2.9529,3.0194,3.1445,3.1968,3.2486,3.2879,3.3778,3.4484,3.5277,3.5678,3.6009,3.6582,3.6598,3.6598,3.6598,3.6598,3.7119,3.8317,4.0072,4.1082,4.1833,4.3787,4.4524,4.3683,4.4494,4.5304,4.5801,4.3911,4.3193,4.4144,4.6024,4.7642,4.8872,5.1616,5.3752,5.5112,5.6707,5.7548,5.7652,5.9267,6.0118,6.0546,6.5093,6.8252,6.9023,7.1668,7.3375,7.3406,7.448,7.589,7.7402,7.758,7.7332,7.6719,7.621,7.7576,8.1404,8.2498,8.4048,8.6635,8.714,8.7492,8.8652,8.8748,8.8771,8.8761,8.7521,8.6186,8.4502,8.0601,7.5497,7.0123,6.5273,6.2625,5.9604,5.6731,5.5522,5.4153,4.9867,4.4184,3.846,3.35,3.2186,3.1558,3.0767,3.0337,3.1353,2.9681,2.9248,3.1802,3.0704,3.0677,3.2865,3.1818,3.121,3.2017,3.3061,3.4473,3.4329,3.4177,3.3713,2.4803,2.4968,2.6487,2.8151,2.9155,2.7824,2.8001,2.9183,2.9508,2.9494,2.9034,2.6248,2.5907,2.723,2.749,2.8735,3.0592,3.1159,3.1448,3.1644,3.2932,3.3675,3.3911,3.4668,3.5382,3.5948,3.5891,3.5712,3.5712,3.6177,3.6418,3.652,3.7686,3.8362,3.8433,4.0134,4.0549,3.9729,4.127,4.093,3.8882,3.8344,3.9062,4.1035,4.2946,4.4615,4.5523,4.8758,5.1136,5.2473,5.3811,5.475,5.51,5.6771,5.764,5.7242,6.0713,6.3714,6.5321,6.7502,6.8754,6.8967,7.0517,7.2349,7.4322,7.2752,7.0905,7.0846,7.2148,7.4824,7.8455,7.9682,8.1475,8.4443,8.4989,8.6009,8.7182,8.7866,8.8269,8.8763,8.7172,8.5385,8.3914,8.1133,7.7136,7.212,6.5246,5.9749,5.8651,5.4073,4.985,4.8877,4.2463,3.5443,3.3369,3.2082,3.0284,2.8809,2.8169,2.7605,2.6929,2.6407,2.6347,2.6461,2.615,2.6224,2.663,2.6496,2.6758,2.8138,2.9175,3.0532,3.2594,3.3293,3.2773,2.4637,2.4637,2.5145,2.5475,2.5805,2.5475,2.5463,2.5805,2.5957,2.5805,2.592,2.6021,2.6313,2.6766,2.7626,2.8306,2.8743,2.8912,2.9256,2.9639,2.9347,3.0265,3.2073,3.1148,3.1459,3.2763,3.2711,3.2568,3.2817,3.4157,3.4932,3.5263,3.7802,3.8812,3.8091,3.9965,4.0116,3.875,3.633,3.4555,3.3485,3.4903,3.576,3.654,3.9068,4.0597,4.0995,4.4698,4.7032,4.7398,4.9464,5.0662,5.091,5.2294,5.3221,5.3718,5.5583,5.8004,6.0464,6.3215,6.5202,6.6101,6.6638,6.7687,6.9056,6.591,6.4707,6.8117,6.8635,7.0527,7.419,7.5267,7.5982,7.7977,7.9064,8.0938,8.3596,8.5136,8.673,8.8894,8.6883,8.4808,8.3868,8.1428,7.7752,7.3448,6.5146,5.7306,5.3517,4.7001,4.2366,4.0692,3.628,3.1232,3.1129,2.8539,2.6363,2.4697,2.3147,2.206,2.1259,1.9565,1.9269,2.1648,2.2014,2.2588,2.5217,2.6023,2.6015,2.5828,2.6329,2.7097,2.825,2.9506,2.995,2.1652,2.1829,2.2665,2.2655,2.1986,2.3975,2.4637,2.4437,2.2518,2.1673,2.1813,2.2378,2.3048,2.3826,2.4511,2.5312,2.6093,2.608,2.6251,2.6399,2.623,2.7018,2.8477,2.7864,2.8333,2.9383,2.9395,2.9542,2.9911,3.054,3.157,3.2804,3.4142,3.5141,3.5491,3.6452,3.6377,3.524,3.2933,3.1599,3.1191,3.1988,3.269,3.3413,3.5413,3.6901,3.7734,4.103,4.3133,4.3789,4.5904,4.7264,4.7479,4.9365,5.06,5.1078,5.3178,5.505,5.6597,5.907,6.1225,6.272,6.3078,6.3453,6.3878,6.1548,6.1402,6.4493,6.5099,6.6308,6.9071,7.0646,7.2278,7.4173,7.58,7.772,8.0122,8.1919,8.4162,8.69,8.6058,8.4732,8.4072,7.8703,7.3613,6.8394,6.0055,5.2057,4.7703,3.4177,2.3797,2.4094,2.3283,2.2364,2.2225,2.3318,2.3254,1.9982,1.9067,1.8116,1.6294,1.5758,1.5785,1.7325,1.8215,1.9309,2.0682,2.2236,2.2737,2.298,2.327,2.4005,2.4449,2.5984,2.6326,1.8139,1.8256,2.026,2.0054,1.8833,2.2284,2.3758,2.3372,1.9692,1.8121,1.8121,1.8224,1.9132,2.0699,2.0791,2.1844,2.3244,2.3196,2.322,2.3232,2.3527,2.3947,2.4761,2.4736,2.5325,2.6023,2.6135,2.6487,2.7002,2.6916,2.7935,3.0114,3.0071,3.0759,3.2202,3.2361,3.1885,3.1085,3.0498,3.0188,3.02,2.9736,2.9969,3.1221,3.2427,3.3849,3.5548,3.8026,3.9987,4.1531,4.3198,4.4507,4.5049,4.7358,4.8828,4.918,5.1905,5.3529,5.3663,5.5616,5.7536,5.9195,5.9842,5.9499,5.8146,5.8451,5.9,5.9697,6.1329,6.247,6.3358,6.6173,6.874,7.0927,7.2853,7.4636,7.6219,7.8039,8.0291,8.3142,8.3253,8.147,7.9064,7.207,6.4183,5.8811,5.3615,4.6533,3.8265,2.0223,0.7558,0.725,0.9784,1.1561,1.3306,1.8139,1.8963,1.5379,1.5006,1.3647,1.2443,1.2674,1.3283,1.3676,1.5044,1.6018,1.6211,1.7354,1.857,1.8601,1.9924,2.1049,2.1058,2.226,2.2475,1.832,1.8213,1.8856,1.8817,1.8181,1.8964,1.9284,1.9274,1.8336,0.0,0.0,1.9004,1.9755,2.004,2.1017,2.1575,2.1868,2.1868,2.1868,2.188,2.128,2.1692,2.2935,2.1565,2.1667,2.2933,2.2727,2.2604,2.2777,2.5457,2.7131,2.7798,2.9923,3.1372,3.1707,3.1867,3.0886,2.8981,2.8877,2.8753,2.8785,2.8646,2.8738,2.9016,3.1187,3.3047,3.4229,3.7107,3.9573,4.1545,4.215,4.2942,4.3829,4.5904,4.7341,4.8008,5.0202,5.1868,5.2393,5.4751,5.613,5.6218,5.7283,5.6376,5.2759,5.479,5.5999,5.5396,5.781,5.9692,6.0289,6.2071,6.3606,6.4585,6.602,6.8003,7.0518,7.2678,7.5087,7.6732,7.2609,6.837,6.8301,5.9928,5.2612,5.1413,4.9202,4.5513,3.1212,1.6357,0.6427,0.635,0.6955,0.8903,0.9215,0.9869,0.9923,1.028,0.72,0.567,0.8602,0.9978,1.0762,1.1904,1.3089,1.3853,1.4451,1.6163,1.7561,1.6397,1.7012,1.8007,1.7814,1.7665,1.7277,1.7475,1.7482,1.7797,1.7994,0.0,1.7963,1.7892,1.7506,1.7515,1.7506,1.7497,1.805,1.8414,1.8385,1.8917,1.9266,1.9255,1.9266,1.9255,1.9255,1.8825,1.9086,1.959,1.8854,1.8824,1.949,1.9263,1.9373,1.9868,2.1911,2.3744,2.5133,2.6969,2.8032,2.832,2.9389,2.9364,2.8335,2.832,2.832,2.832,2.832,2.8583,2.9001,3.064,0.0,0.0,0.0,0.0,0.0,0.0,0.0,0.0,4.4378,4.5854,4.6819,4.8336,4.9485,5.0263,5.1501,5.2466,5.2907,5.3444,5.2327,4.912,5.1412,5.3211,5.358,5.5361,5.6439,5.5962,5.8096,5.9513,5.9536,6.1452,6.3941,6.6814,6.8996,7.0066,6.9359,6.6786,6.3139,5.925,5.088,4.5323,4.3577,3.7753,2.9691,2.176,1.0501,0.0886,-0.2719,-0.1653,-0.0186,-0.0188,0.0567,0.2276,0.3224,0.3231,0.4376,0.7038,0.8442,0.943,1.0109,1.1116,1.1748,1.2125,1.3932,1.5599,1.4961,1.5584,1.6317,1.5961,1.5371,1.4839,1.6825,1.6765,1.7231,1.7502,1.7431,1.7588,1.7371,1.677,1.6918,1.6918,1.6918,1.6918,1.6918,1.6918,1.6918,1.6918,1.6918,1.6918,1.6918,1.6918,1.6918,1.6918,1.6918,1.6918,1.6918,1.6918,1.6918,1.7224,1.7824,1.8846,2.0435,2.2611,2.3775,2.462,2.5021,0.0,0.0,0.0,2.8025,2.832,2.8025,2.8305,2.8738,2.9278,3.0107,0.0,3.4399,3.506,3.6449,3.8593,3.965,0.0,0.0,0.0,0.0,0.0,0.0,0.0,0.0,0.0,0.0,0.0,4.79,4.6865,4.5525,4.7305,4.9047,5.0343,5.197,5.2341,5.0882,5.4004,5.6104,5.5826,5.8101,6.0822,6.3639,6.4312,6.3674,6.0838,5.9678,5.6053,4.7726,4.0536,3.4474,3.0498,2.1327,1.3962,1.1857,0.2048,-0.6836,-1.225,-1.0354,-0.8908,-0.8596,-0.4942,-0.2014,-0.1649,0.2013,0.4765,0.6257,0.8023,0.8798,0.8752,0.9362,0.9829,0.926,1.1194,1.2995,1.297,1.4156,1.5217,1.4578,1.437,1.4099,1.7143,1.6853,1.7308,1.7253,1.6925,1.6626,1.6423,1.6483,1.677,1.6918,1.6918,1.6918,1.6918,1.6918,1.6918,1.6918,1.6918,1.6918,1.6918,1.6918,1.6918,1.6918,1.6918,1.6918,1.6918,1.6918,1.6918,1.6909,1.7066,1.8552,1.9433,1.9862,2.2611,2.4205,2.4478,2.3437,2.3125,2.3554,2.6733,2.7901,2.7029,2.7886,2.846,2.8583,2.9278,3.064,3.2544,3.3199,3.4851,3.7284,3.6784,3.7928,4.09,3.9384,4.0187,0.0,4.2807,0.0,0.0,0.0,0.0,0.0,0.0,0.0,0.0,4.0894,4.1312,4.1459,4.4911,4.6558,4.4962,4.9654,5.34,5.463,5.6068,5.7582,5.9125,5.5805,5.3098,5.265,4.3783,3.555,2.9652,2.155,1.4485,1.0418,0.7212,0.3565,-0.2417,-0.8241,-1.2388,-1.3308,-1.2092,-0.998,-0.7685,-0.4738,-0.158,0.1228,0.2458,0.3887,0.7353,0.8124,0.7995,0.7906,0.8486,0.8516,0.6873,0.8682,1.0318,1.0892,1.1982,1.3185,1.3377,1.3637,1.4074,1.676,1.66,1.6742,1.6679,1.6239,1.6106,1.5963,1.6106,1.6248,1.6239,1.6239,1.6248,1.6248,1.6248,1.6239,1.6248,1.6266,1.6487,1.6597,1.6606,1.6808,1.6918,1.6918,1.6918,1.6918,1.6918,1.6918,1.6918,1.7066,1.8542,1.9287,1.9287,2.1454,2.2308,2.159,2.1696,2.2125,2.2694,2.4851,2.6155,2.6748,2.731,2.7746,2.832,2.9139,3.0212,3.1561,3.2643,3.3963,3.5301,3.5568,3.6414,3.7782,3.5497,3.5771,0.0,0.0,0.0,0.0,0.0,0.0,0.0,0.0,0.0,0.0,0.0,3.5169,3.6392,4.2007,4.3934,4.0224,4.3974,4.6383,4.5663,4.0217,4.0367,4.9948,4.2594,3.8211,4.15,3.1642,2.1361,1.3496,0.6937,0.184,-0.0881,-0.5308,-0.9432,-1.2495,-1.4711,-1.5476,-1.3574,-1.2658,-1.1162,-0.8191,-0.4197,-0.0504,0.2016,0.2858,0.4049,0.681,0.7058,0.6586,0.6407,0.6462,0.6163,0.5279,0.6624,0.8018,0.8308,0.8954,0.9652,0.9899,1.1177,1.2585,1.5993,1.6024,1.5367,1.4923,1.4873,1.4873,1.5061,1.5286,1.5421,1.5421,1.543,1.5522,1.5522,1.5421,1.532,1.5384,1.5577,1.5789,1.5991,1.6202,1.6597,1.6771,1.678,1.6872,1.6918,1.6909,1.6826,1.678,1.6771,1.7844,1.8374,1.8519,1.9804,1.9705,1.8549,1.9736,2.1011,2.2211,2.2508,2.3866,2.6324,2.6466,2.6888,2.8025,2.8583,2.9523,3.0727,3.1794,3.2639,3.3075,3.371,3.4119,3.4001,3.1437,0.0,0.0,0.0,0.0,0.0,0.0,0.0,0.0,0.0,2.7403,2.5361,0.0,2.9684,0.0,3.7239,3.9115,3.4962,3.5629,0.0,0.0,2.5194,2.3627,3.5482,2.9534,2.5023,2.6767,1.9225,1.0112,0.025,-0.4509,-0.7934,-1.0471,-1.5859,-1.9105,-1.7634,-1.8073,-1.7476,-1.3932,-1.2936,-1.1639,-0.847,-0.4434,-0.0797,0.2086,0.2734,0.3867,0.6153,0.5916,0.5299,0.509,0.4477,0.385,0.3694,0.4633,0.5302,0.506,0.5144,0.5838,0.7667,0.9659,1.1087,1.5298,1.5,1.2329,1.1703,1.2564,1.2572,1.3129,1.4083,1.4467,1.4595,1.475,1.4999,1.4971,1.4604,1.4236,0.0,1.5146,1.4806,1.5045,1.577,1.6183,1.6376,1.6404,1.6735,1.6918,1.69,1.6542,1.6376,1.6358,1.614,1.6074,1.6074,1.6773,1.6841,1.6321,1.6801,1.8305,2.0568,1.9606,2.1106,2.5048,2.5218,2.5772,2.6888,2.7029,2.787,2.9523,2.9739,3.0137,3.0656,2.9691,2.9483,3.0005,0.0,0.0,0.0,0.0,0.0,0.0,0.0,0.0,0.0,0.0,0.0,0.0,0.0,0.0,2.5142,2.7423,0.0,2.8057,2.3141,0.0,0.0,0.0,1.3896,1.4572,1.8735,1.7132,0.5798,0.0,0.0,-0.858,-1.1797,-1.5928,-2.2966,-2.2368,-1.991,-1.6411,-1.8962,-1.9392,-1.4601,-1.3344,-1.152,-0.8375,-0.6598,-0.3885,0.1373,0.1534,0.2475,0.5509,0.5394,0.4487,0.4223,0.3272,0.2619,0.2626,0.2776,0.2441,0.0958,0.0,0.2709,0.8441,1.0284,0.964,1.3352,1.2157,1.1592,1.1295,1.1354,1.146,1.1918,1.2841,1.3061,1.3061,1.307,1.3235,1.3064,1.2649,1.248,0.0,0.0,0.0,1.4214,1.5162,1.5436,1.5605,1.5632,1.6009,1.6193,1.6174,1.5789,1.5715,1.5954,1.5541,1.4999,1.4149,0.0,1.4142,1.5239,1.5176,1.5847,1.7603,1.8282,1.9651,2.1575,2.32,2.4906,2.6748,2.6183,2.6713,2.8794,2.7826,2.7693,2.856,2.6839,2.635,0.0,0.0,0.0,0.0,0.0,0.0,0.0,0.0,0.0,0.0,0.0,1.9424,1.652,0.0,0.0,0.0,1.8242,1.7788,1.6423,1.5755,0.0,0.0,0.0,0.0,0.0,0.0,0.0,0.1552,-0.6208,-1.3051,-1.65,-1.8215,-1.9719,-2.1232,-2.1925,-2.1104,-1.801,0.0,-2.0827,-1.6071,-1.4863,-1.3537,-1.1032,-1.0582,-0.7853,-0.0145,0.2064,0.3742,0.514,0.4139,0.326,0.3132,0.2825,0.2511,0.2513,0.1686,0.0749,0.0,0.0,0.0,0.3672,0.446,0.4806,1.135,0.0,0.0,0.0,0.0,1.0188,1.0764,1.1607,1.1616,1.1607,1.1616,1.1628,0.0,0.0,0.0,0.0,0.0,0.0,1.3052,1.4024,1.4607,1.4769,1.4797,1.5173,1.5357,1.5348,1.4962,1.4797,1.4815,1.3852,1.2883,1.1977,0.0,0.0,0.0,0.0,1.427,1.5428,1.7102,1.833,1.9056,2.1083,2.3031,2.4892,2.4602,2.5143,2.7016,2.6046,2.5786,2.6367,2.4702,0.0,0.0,0.0,0.0,0.0,0.0,0.0,0.0,0.0,0.0,0.0,0.0,0.0,0.0,0.0,0.0,0.0,0.0,0.0,0.8538,0.6834,0.4118,0.0,0.0,0.0,0.0,0.0,0.0,0.0,0.0,0.0,-2.0347,-2.2472,-2.2837,0.0,0.0,-2.3652,-2.0179,-2.2659,-2.3007,-1.7696,-1.6539,0.0,-1.3896,-1.2883,-0.984,-0.2664,0.1289,0.3634,0.3632,0.292,0.2202,0.1331,0.1924,0.2356,0.1888,0.0843,0.0,0.0,-0.1101,-0.1658,-0.0566,-0.0142,0.1009,0.0,0.0,0.0,0.0,0.8606,0.0,0.0,0.0,1.069,1.07,0.0,1.076,0.0,0.0,0.0,0.0,1.0432,1.0849,0.0,0.0,1.349,1.4064,1.4074,1.4435,1.4648,1.4639,1.4099,1.352,1.2609,1.0222,0.9186,0.0,0.0,0.0,0.0,0.0,1.3488,1.4429,1.5707,1.7157,1.8575,1.9191,1.9716,2.0704,2.1967,2.3121,2.4045,2.4404,2.451,2.4015,2.3325,0.0,0.0,0.0,0.0,0.0,0.0,0.0,0.0,0.0,0.0,0.0,0.0,0.0,0.0,0.0,0.0,0.0,0.0,0.0,0.0,-0.4939,0.0,0.0,0.0,0.0,0.0,0.0,0.0,0.0,0.0,-1.719,-1.8613,-2.3633,-2.5854,-2.1347,0.0,0.0,0.0,0.0,-2.6122,-1.9568,-1.8172,-1.7194,-1.5458,-1.211,-0.8702,-0.5864,0.0,0.0,0.099,0.1634,0.1066,-0.1225,0.0548,0.2019,0.0384,-0.0126,0.0,0.0,-0.3467,-0.5096,-0.1824,-0.0262,0.0925,0.0,0.0,0.0,0.0,0.0,0.0,0.0,0.0,0.0,0.9579,0.9492,0.905,0.0,0.0,0.0,0.0,0.0,0.0,0.0,0.0,1.2121,1.2102,1.1573,1.2225,1.2282,1.169,1.0906,1.0021,0.0,0.0,0.0,0.0,0.0,0.0,0.0,0.0,1.1717,1.2914,1.5098,1.6847,1.7847,1.8746,1.942,1.9838,2.107,2.2481,2.3824,2.1067,2.0323,0.0,0.0,0.0,0.0,0.0,0.0,0.0,0.0,0.0,0.0,0.0,0.0,0.0,0.0,0.0,0.0,0.0,0.0,0.0,0.0,0.0,0.0,0.0,-1.0579,0.0,0.0,0.0,0.0,0.0,0.0,0.0,0.0,0.0,-1.8386,-1.9597,-2.0064,-1.8666,-2.2755,-2.4428,-2.0431,0.0,0.0,0.0,0.0,0.0,0.0,0.0,-1.1999,-0.7232,-0.592,-0.4416,-0.137,-0.2991,-0.4,-0.2074,0.0,0.0,-0.2634,-0.2757,-0.3294,-0.482,-0.4283,-0.3031,-0.1102,0.0599,0.2393,0.0,0.0,0.0,0.0,0.0,0.0,0.0,0.0,0.0,0.7879,0.7839,0.0,0.0,0.0,0.0,0.0,0.0,0.0,0.0,0.0,0.0,0.0,1.0015,1.0356,0.0,0.0,0.0,0.0,0.0,0.0,0.0,0.0,0.0,0.0,0.0,0.0,1.0319,1.146,1.4167,1.6081,1.7356,1.8242,1.9043,1.9595,2.0255,2.1121,2.2485,0.0,0.0,0.0,0.0,0.0,0.0,0.0,0.0,0.0,0.0,0.0,0.0,0.0,0.0,0.0,0.0,0.0,0.0,0.0,0.0,0.0,0.0,0.0,0.0,0.0,-1.2156,0.0,0.0,0.0,0.0,0.0,0.0,0.0,0.0,0.0,0.0,-1.7526,-1.8687,-1.9218,-2.2609,-2.4144,-2.1919,-2.2643,-2.2815,0.0,0.0,0.0,0.0,0.0,0.0,0.0,0.0,0.0,0.0,0.0,0.0,0.0,-0.4511,-0.5124,-0.5141,-0.5165,-0.5381,-0.6103,0.0,0.0,0.0,0.0,0.0,0.0,0.0,0.0,0.0,0.0,0.0,0.0,0.0,0.0,0.0,0.5808,0.0,0.0,0.5578,0.0,0.0,0.0,0.0,0.0,0.0,0.0,0.0,0.0,0.0,0.0,0.0,0.0,0.0,0.0,0.0,0.0,0.0,0.0,0.0,0.0,0.0,0.9351,1.0128,1.2708,1.5019,1.6783,1.7235,1.814,1.954,1.9077,1.9128,1.9677,0.0,0.0,0.0,0.0,0.0,0.0,0.0,0.0,0.0,0.0,0.0,0.0,0.0,0.0,0.0,0.0,0.0,0.0,0.0,0.0,0.0,0.0,0.0,0.0,0.0,0.0,-2.2821,-2.5942,-2.6687,0.0,0.0,0.0,0.0,0.0,0.0,0.0,0.0,0.0,-2.3118,-2.6021,-2.7591,-2.6827,-2.6123,-2.4205,-2.1305,-1.9931,-1.8894,-1.7936,-1.4849,-1.1749,0.0,0.0,0.0,0.0,0.0,0.0,0.0,0.0,0.0,0.0,0.0,0.0,0.0,0.0,0.0,0.0,0.0,0.0,0.0,0.0,0.0,0.0,0.0,0.0,0.0,0.0,0.0,0.0,0.0,0.5101,0.0,0.0,0.0,0.0,0.0,0.0,0.0,0.0,0.0,0.0,0.0,0.0,0.0,0.0,0.0,0.0,0.0,0.0,0.0,0.0,0.0,0.0,0.0,0.0,0.8628,0.9203,1.2295,1.4616,1.5684,1.6099,1.6999,1.8189,1.7166,1.6609,0.0,0.0,0.0,0.0,0.0,0.0,0.0,0.0,0.0,0.0,0.0,0.0,0.0,0.0,0.0,0.0,0.0,0.0,0.0,0.0,0.0,0.0,0.0,0.0,0.0,0.0,0.0,0.0,-2.8902,-2.659,-2.5224,0.0,0.0,0.0,0.0,0.0,0.0,0.0,0.0,0.0,0.0,-2.2426,-2.0964,-2.1424,-2.105,-1.8929,-1.7879,-1.6942,-1.6179,-1.3914,-1.2107,-1.1223,0.0,0.0,0.0,0.0,0.0,0.0,0.0,0.0,0.0,0.0,0.0,0.0,0.0,0.0,0.0,0.0,0.0,0.0,0.0,0.0,0.0,0.0,0.0,0.0,0.0,0.0,0.0,0.0,0.0,0.0,0.0,0.0,0.0,0.0,0.0,0.0,0.0,0.0,0.0,0.0,0.0,0.0,0.0,0.0,0.0,0.0,0.0,0.0,0.0,0.0,0.0,0.0,0.0,0.7511,0.7924,1.1184,1.3631,1.5081,1.5616,1.6491,1.7748,1.644,1.5667,0.0,0.0,0.0,0.0,0.0,0.0,0.0,0.0,0.0,0.0,0.0,0.0,0.0,0.0,0.0,0.0,0.0,0.0,0.0,0.0,0.0,0.0,0.0,0.0,0.0,0.0,0.0,0.0,-2.8921,-2.7515,-2.6806,0.0,0.0,0.0,0.0,0.0,0.0,0.0,0.0,0.0,0.0,-1.967,-1.9225,-1.9439,0.0,0.0,-1.644,-1.5457,-1.4238,-1.2928,-1.1659,-1.0835,-1.0028,0.0,0.0,0.0,0.0,0.0,0.0,0.0,0.0,0.0,0.0,0.0,0.0,0.0,0.0,0.0,0.0,0.0,0.0,0.0,0.0,0.0,0.0,0.0,0.0,0.0,0.0,0.0,0.0,0.0,0.0,0.0,0.0,0.0,0.0,0.0,0.0,0.0,0.0,0.0,0.0,0.0,0.0,0.0,0.0,0.0,0.0,0.0,0.0,0.0,0.0,0.0,0.0,0.6092,0.644,0.9411,1.2123,1.4438,1.5571,1.6567,1.7488,1.644,1.5756,0.0,0.0,0.0,0.0,0.0,0.0,0.0,0.0,0.0,0.0,0.0,0.0,0.0,0.0,0.0,0.0,0.0,0.0,0.0,0.0,0.0,0.0,0.0,0.0,0.0,0.0,0.0,0.0,0.0,0.0,0.0,0.0,0.0,0.0,0.0,0.0,0.0,0.0,0.0,0.0,0.0,-1.8592,-2.0362,-1.9378,-1.7999,0.0,-1.5512,-1.4164,-1.2285,-1.1659,-1.087,-0.9226,0.0,0.0,0.0,0.0,0.0,0.0,0.0,0.0,0.0,0.0,0.0,0.0,0.0,0.0,0.0,0.0,0.0,0.0,0.0,0.0,0.0,0.0,0.0,0.0,0.0,0.0,0.0,0.0,0.0,0.0,0.0,0.0,0.0,0.0,0.0,0.0,0.0,0.0,0.0,0.0,0.0,0.0,0.0,0.0,0.0,0.0,0.0,0.0,0.0,0.0,0.0,0.0,0.0,0.0,0.5741,0.8013,0.9597,1.0529,1.2185,1.339,1.4216,1.3919,0.0,0.0,0.0,0.0,0.0,0.0,0.0,0.0,0.0,0.0,0.0,0.0,0.0,0.0,0.0,0.0,0.0,0.0,0.0,0.0,0.0,0.0,0.0,0.0,0.0,0.0,0.0,-1.7155,0.0,0.0,0.0,0.0,0.0,0.0,0.0,0.0,0.0,0.0,0.0,0.0,0.0,0.0,-1.6538,-1.6643,-1.6886,-1.6372,0.0,0.0,-1.3177,-1.1565,-1.0634,-1.0025,0.0,0.0,0.0,0.0,0.0,0.0,0.0,0.0,0.0,0.0,0.0,0.0,0.0,0.0,0.0,0.0,0.0,0.0,0.0,0.0,0.0,0.0,0.0,0.0,0.0,0.0,0.0,0.0,0.0,0.0,0.0,0.0,0.0,0.0,0.0,0.0,0.0,0.0,0.0,0.0,0.0,0.0,0.0,0.0,0.0,0.0,0.0,0.0,0.0,0.0,0.0,0.0,0.0,0.0,0.3509,0.4104,0.609,0.7603,0.8542,0.9923,1.1214,1.2329,1.1666,1.1635,0.0,0.0,0.0,0.0,0.0,0.0,0.0,0.0,0.0,0.0,0.0,0.0,0.0,0.0,0.0,0.0,0.0,0.0,0.0,0.0,0.0,0.0,0.0,0.0,0.0,0.0,0.0,0.0,0.0,0.0,0.0,0.0,0.0,0.0,0.0,0.0,0.0,0.0,0.0,0.0,0.0,0.0,-1.5501,-1.5788,0.0,0.0,0.0,-1.2715,-1.0928,0.0,0.0,0.0,0.0,0.0,0.0,0.0,0.0,0.0,0.0,0.0,0.0,0.0,0.0,0.0,0.0,0.0,0.0,0.0,0.0,0.0,0.0,0.0,0.0,0.0,0.0,0.0,0.0,0.0,0.0,0.0,0.0,0.0,0.0,0.0,0.0,0.0,0.0,0.0,0.0,0.0,0.0,0.0,0.0,0.0,0.0,0.0,0.0,0.0,0.0,0.0,0.0,0.0,0.0,0.0,0.0,0.0,0.2354,0.4134,0.5798,0.7219,0.83,0.9515,1.1058,0.9996,0.991,0.0,0.0,0.0,0.0,0.0,0.0,0.0,0.0,0.0,0.0,0.0,0.0,0.0,0.0,0.0,0.0,0.0,0.0,0.0,0.0,0.0,0.0,0.0,0.0,0.0,0.0,0.0,0.0,0.0,0.0,0.0,0.0,0.0,0.0,0.0,0.0,0.0,0.0,0.0,0.0,0.0,-1.365,-1.5445,-1.5343,-1.4529,0.0,0.0,-1.224,-1.0352,-0.9443,0.0,0.0,0.0,0.0,0.0,0.0,0.0,0.0,0.0,0.0,0.0,0.0,0.0,0.0,0.0,0.0,0.0,0.0,0.0,0.0,0.0,0.0,0.0,0.0,0.0,0.0,0.0,0.0,0.0,0.0,0.0,0.0,0.0,0.0,0.0,0.0,0.0,0.0,0.0,0.0,0.0,0.0,0.0,0.0,0.0,0.0,0.0,0.0,0.0,0.0,0.0,0.0,0.0,0.0,0.0,0.0,0.2003,0.3157,0.4001,0.4599,0.6163,0.7367,0.8441,0.9008,0.9586,0.0,0.0,0.0,0.0,0.0,0.0,0.0,0.0,0.0,0.0,0.0,0.0,0.0,0.0,0.0,0.0,0.0,0.0,0.0,0.0,0.0,0.0,0.0,0.0,0.0,0.0,0.0,0.0,0.0,0.0,0.0,0.0,0.0,0.0,0.0,0.0,0.0,0.0,0.0,0.0,0.0,-1.4312,-1.3464,-1.315,0.0,0.0,0.0,0.0,-0.9598,-0.8695,0.0,0.0,0.0,0.0,0.0,0.0,0.0,0.0,0.0,0.0,0.0,0.0,0.0,0.0,0.0,0.0,0.0,0.0,0.0,0.0,0.0,0.0,0.0,0.0,0.0,0.0,0.0,0.0,0.0,0.0,0.0,0.0,0.0,0.0,0.0,0.0,0.0,0.0,0.0,0.0,0.0,0.0,0.0,0.0,0.0,0.0,0.0,0.0,0.0,0.0,0.0,0.0,0.0,0.0,0.0,0.0,0.1561,0.2362,0.3181,0.4009,0.495,0.6097,0.7449,0.812,0.8716,0.0,0.0,0.0,0.0,0.0,0.0,0.0,0.0,0.0,0.0,0.0,0.0,0.0,0.0,0.0,0.0,0.0,0.0,0.0,0.0,0.0,0.0,0.0,0.0,0.0,0.0,0.0,0.0,0.0,0.0,0.0,0.0,0.0,0.0,0.0,0.0,0.0,0.0,0.0,0.0,-1.4668,-1.4367,-1.423,0.0,0.0,0.0,0.0,0.0,0.0,-0.8755,-0.7922,0.0,0.0,0.0,0.0,0.0,0.0,0.0,0.0,0.0,0.0,0.0,0.0,0.0,0.0,0.0,0.0,0.0,0.0,0.0,0.0,0.0,0.0,0.0,0.0,0.0,0.0,0.0,0.0,0.0,0.0,0.0,0.0,0.0,0.0,0.0,0.0,0.0,0.0,0.0,0.0,0.0,0.0,0.0,0.0,0.0,0.0,0.0,0.0,0.0,0.0,0.0,0.0,0.0,0.0,0.0,0.1031,0.1704,0.2707,0.4059,0.434,0.5353,0.7104,0.7234,0.7654,0.8288,0.0,0.0,0.0,0.0,0.0,0.0,0.0,0.0,0.0,0.0,0.0,0.0,0.0,0.0,0.0,0.0,0.0,0.0,0.0,0.0,0.0,0.0,0.0,0.0,0.0,0.0,0.0,0.0,0.0,0.0,0.0,0.0,0.0,0.0,0.0,0.0,0.0,0.0,0.0,-1.5492,-1.4347,0.0,0.0,0.0,0.0,0.0,0.0,0.0,0.0,-0.8304,0.0,0.0,0.0,0.0,0.0,0.0,0.0,0.0,0.0,0.0,0.0,0.0,0.0,0.0,0.0,0.0,0.0,0.0,0.0,0.0,0.0,0.0,0.0,0.0,0.0,0.0,0.0,0.0,0.0,0.0,0.0,0.0,0.0,0.0,0.0,0.0,0.0,0.0,0.0,0.0,0.0,0.0,0.0,0.0,0.0,0.0,0.0,0.0,0.0,0.0,0.0,0.0,0.0,0.0,0.0,0.0,0.1289,0.2202,0.3285,0.3931,0.4853,0.6032,0.6577,0.6635,0.6058,0.0,0.0,0.0,0.0,0.0,0.0,0.0,0.0,0.0,0.0,0.0,0.0,0.0,0.0,0.0,0.0,0.0,0.0,0.0,0.0,0.0,0.0,0.0,0.0,0.0,0.0,0.0,0.0,0.0,0.0,0.0,0.0,0.0,0.0,0.0,0.0,0.0,0.0,-1.9627,-1.7465,0.0,0.0,0.0,0.0,0.0,0.0,0.0,0.0,-0.9359,0.0,0.0,0.0,0.0,0.0,0.0,0.0,0.0,0.0,0.0,0.0,0.0,0.0,0.0,0.0,0.0,0.0,0.0,0.0,0.0,0.0,0.0,0.0,0.0,0.0,0.0,0.0,0.0,0.0,0.0,0.0,0.0,0.0,0.0,0.0,0.0,0.0,0.0,0.0,0.0,0.0,0.0,0.0,0.0,0.0,0.0,0.0,0.0,0.0,0.0,0.0,0.0,0.0,0.0,0.0,0.0,0.0,0.0,0.2062,0.3046,0.3851,0.4712,0.5364,0.5649,0.5519,0.0,0.0,0.0,0.0,0.0,0.0,0.0,0.0,0.0,0.0,0.0,0.0,0.0,0.0,0.0,0.0,0.0,0.0,0.0,0.0,0.0,0.0,0.0,0.0,0.0,0.0,0.0,0.0,0.0,0.0,0.0,0.0,0.0,0.0,0.0,0.0,0.0,0.0,0.0,0.0,0.0,0.0,0.0,0.0,0.0,0.0,0.0,0.0,0.0,0.0,0.0,0.0,0.0,0.0,0.0,0.0,0.0,0.0,0.0,0.0,0.0,0.0,0.0,0.0,0.0,0.0,0.0,0.0,0.0,0.0,0.0,0.0,0.0,0.0,0.0,0.0,0.0,0.0,0.0,0.0,0.0,0.0,0.0,0.0,0.0,0.0,0.0,0.0,0.0,0.0,0.0,0.0,0.0,0.0,0.0,0.0,0.0,0.0,0.0,0.0,0.0,0.0,0.0,0.0,0.0,0.0,0.0,0.0,0.1663,0.2835,0.3775,0.445,0.4807,0.4671,0.4543,0.0,0.0,0.0,0.0,0.0,0.0,0.0,0.0,0.0,0.0,0.0,0.0,0.0,0.0,0.0,0.0,0.0,0.0,0.0,0.0,0.0,0.0,0.0,0.0,0.0,0.0,0.0,0.0,0.0,0.0,0.0,0.0,0.0,0.0,0.0,0.0,0.0,0.0,0.0,0.0,0.0,0.0,0.0,0.0,0.0,0.0,0.0,0.0,-1.0393,0.0,0.0,0.0,0.0,0.0,0.0,0.0,0.0,0.0,0.0,0.0,0.0,0.0,0.0,0.0,0.0,0.0,0.0,0.0,0.0,0.0,0.0,0.0,0.0,0.0,0.0,0.0,0.0,0.0,0.0,0.0,0.0,0.0,0.0,0.0,0.0,0.0,0.0,0.0,0.0,0.0,0.0,0.0,0.0,0.0,0.0,0.0,0.0,0.0,0.0,0.0,0.0,0.0,0.0,0.0,0.0,0.0,0.0,0.0,0.0586,0.2013,0.3242,0.3981,0.4127,0.3952,0.3705,0.0,0.0,0.0,0.0,0.0,0.0,0.0,0.0,0.0,0.0,0.0,0.0,0.0,0.0,0.0,0.0,0.0,0.0,0.0,0.0,0.0,0.0,0.0,0.0,0.0,0.0,0.0,0.0,0.0,0.0,0.0,0.0,0.0,0.0,0.0,0.0,0.0,0.0,0.0,0.0,0.0,0.0,0.0,0.0,0.0,0.0,0.0,0.0,0.0,0.0,0.0,0.0,0.0,0.0,0.0,0.0,0.0,0.0,0.0,0.0,0.0,0.0,0.0,0.0,0.0,0.0,0.0,0.0,0.0,0.0,0.0,0.0,0.0,0.0,0.0,0.0,0.0,0.0,0.0,0.0,0.0,0.0,0.0,0.0,0.0,0.0,0.0,0.0,0.0,0.0,0.0,0.0,0.0,0.0,0.0,0.0,0.0,0.0,0.0,0.0,0.0,0.0,0.0,0.0,0.0,0.0,0.0,0.0,-0.0553,0.0808,0.2011,0.2544,0.2475,0.2867,0.322,0.0,0.0,0.0,0.0,0.0,0.0,0.0,0.0,0.0,0.0,0.0,0.0,0.0,0.0,0.0,0.0,0.0,0.0,0.0,0.0,0.0,0.0,0.0,0.0,0.0,0.0,0.0,0.0,0.0,0.0,0.0,0.0,0.0,0.0,0.0,0.0,0.0,0.0,0.0,0.0,0.0,0.0,0.0,0.0,0.0,0.0,0.0,0.0,0.0,0.0,0.0,0.0,0.0,0.0,0.0,0.0,0.0,0.0,0.0,0.0,0.0,0.0,0.0,0.0,0.0,0.0,0.0,0.0,0.0,0.0,0.0,0.0,0.0,0.0,0.0,0.0,0.0,0.0,0.0,0.0,0.0,0.0,0.0,0.0,0.0,0.0,0.0,0.0,0.0,0.0,0.0,0.0,0.0,0.0,0.0,0.0,0.0,0.0,0.0,0.0,0.0,0.0,0.0,0.0,0.0,0.0,0.0,0.0,0.0,-0.0305,0.0415,0.0841,0.0867,0.1748,0.2465,0.0,0.0,0.0,0.0,0.0,0.0,0.0,0.0,0.0,0.0,0.0,0.0,0.0,0.0,0.0,0.0,0.0,0.0,0.0,0.0,0.0,0.0,0.0,0.0,0.0,0.0,0.0,0.0,0.0,0.0,0.0,0.0,0.0,0.0,0.0,0.0,0.0,0.0,0.0,0.0,0.0,0.0,0.0,0.0,0.0,0.0,0.0,0.0,0.0,0.0,0.0,0.0,0.0,0.0,0.0,0.0,0.0,0.0,0.0,0.0,0.0,0.0,0.0,0.0,0.0,0.0,0.0,0.0,0.0,0.0,0.0,0.0,0.0,0.0,0.0,0.0,0.0,0.0,0.0,0.0,0.0,0.0,0.0,0.0,0.0,0.0,0.0,0.0,0.0,0.0,0.0,0.0,0.0,0.0,0.0,0.0,0.0,0.0,0.0,0.0,0.0,0.0,0.0,0.0,0.0,0.0,0.0,0.0,0.0,-0.1063,-0.1391,-0.1219,-0.0643,0.0639,0.1351,0.0,0.0,0.0,0.0,0.0,0.0,0.0,0.0,0.0,0.0,0.0,0.0,0.0,0.0,0.0,0.0,0.0,0.0,0.0,0.0,0.0,0.0,0.0,0.0,0.0,0.0,0.0,0.0,0.0,0.0,0.0,0.0,0.0,0.0,0.0,0.0,0.0,0.0,0.0,0.0,0.0,0.0,0.0,0.0,0.0,0.0,0.0,0.0,0.0,0.0,0.0,0.0,0.0,0.0,0.0,0.0,0.0,0.0,0.0,0.0,0.0,0.0,0.0,0.0,0.0,0.0,0.0,0.0,0.0,0.0,0.0,0.0,0.0,0.0,0.0,0.0,0.0,0.0,0.0,0.0,0.0,0.0,0.0,0.0,0.0,0.0,0.0,0.0,0.0,0.0,0.0,0.0,0.0,0.0,0.0,0.0,0.0,0.0,0.0,0.0,0.0,0.0,0.0,0.0,0.0,0.0,0.0,0.0,0.0,-0.2763,-0.2242,-0.1817,-0.135,0.047,0.1424,0.1558,0.0,0.0,0.0,0.0,0.0,0.0,0.0,0.0,0.0,0.0,0.0,0.0,0.0,0.0,0.0,0.0,0.0,0.0,0.0,0.0,0.0,0.0,0.0,0.0,0.0,0.0,0.0,0.0,0.0,0.0,0.0,0.0,0.0,0.0,0.0,0.0,0.0,0.0,0.0,0.0,0.0,0.0,0.0,0.0,0.0,0.0,0.0,0.0,0.0,0.0,0.0,0.0,0.0,0.0,0.0,0.0,0.0,0.0,0.0,0.0,0.0,0.0,0.0,0.0,0.0,0.0,0.0,0.0,0.0,0.0,0.0,0.0,0.0,0.0,0.0,0.0,0.0,0.0,0.0,0.0,0.0,0.0,0.0,0.0,0.0,0.0,0.0,0.0,0.0,0.0,0.0,0.0,0.0,0.0,0.0,0.0,0.0,0.0,0.0,0.0,0.0,0.0,0.0,0.0,0.0,0.0,0.0,0.0,-0.3706,-0.3131,-0.2546,-0.1831,-0.013,0.0944,0.0,0.0,0.0,0.0,0.0,0.0,0.0,0.0,0.0,0.0,0.0,0.0,0.0,0.0,0.0,0.0,0.0,0.0,0.0,0.0,0.0,0.0,0.0,0.0,0.0,0.0,0.0,0.0,0.0,0.0,0.0,0.0,0.0,0.0,0.0,0.0,0.0,0.0,0.0,0.0,0.0,0.0,0.0,0.0,0.0,0.0,0.0,0.0,0.0,0.0,0.0,0.0,0.0,0.0,0.0,0.0,0.0,0.0,0.0,0.0,0.0,0.0,0.0,0.0,0.0,0.0,0.0,0.0,0.0,0.0,0.0,0.0,0.0,0.0,0.0,0.0,0.0,0.0,0.0,0.0,0.0,0.0,0.0,0.0,0.0,0.0,0.0,0.0,0.0,0.0,0.0,0.0,0.0,0.0,0.0,0.0,0.0,0.0,0.0,0.0,0.0,0.0,0.0,0.0,0.0,0.0,0.0,0.0,-0.4003,-0.3756,-0.4158,-0.3646,-0.2226,-0.1305,-0.0494,0.0,0.0,0.0,0.0,0.0,0.0,0.0,0.0,0.0,0.0,0.0,0.0,0.0,0.0,0.0,0.0,0.0,0.0,0.0,0.0,0.0,0.0,0.0,0.0,0.0,0.0,0.0,0.0,0.0,0.0,0.0,0.0,0.0,0.0,0.0,0.0,0.0,0.0,0.0,0.0,0.0,0.0,0.0,0.0,0.0,0.0,0.0,0.0,0.0,0.0,0.0,0.0,0.0,0.0,0.0,0.0,0.0,0.0,0.0,0.0,0.0,0.0,0.0,0.0,0.0,0.0,0.0,0.0,0.0,0.0,0.0,0.0,0.0,0.0,0.0,0.0,0.0,0.0,0.0,0.0,0.0,0.0,0.0,0.0,0.0,0.0,0.0,0.0,0.0,0.0,0.0,0.0,0.0,0.0,0.0,0.0,0.0,0.0,0.0,0.0,0.0,0.0,0.0,0.0,0.0,0.0,0.0,0.0,0.0,-0.4114,0.0,-0.3452,-0.2867,-0.1445,-0.0534,0.0,0.0,0.0,0.0,0.0,0.0,0.0,0.0,0.0,0.0,0.0,0.0,0.0,0.0,0.0,0.0,0.0,0.0,0.0,0.0,0.0,0.0,0.0,0.0,0.0,0.0,0.0,0.0,0.0,0.0,0.0,0.0,0.0,0.0,0.0,0.0,0.0,0.0,0.0,0.0,0.0,0.0,0.0,0.0,0.0,0.0,0.0,0.0,0.0,0.0,0.0,0.0,0.0,0.0,0.0,0.0,0.0,0.0,0.0,0.0,0.0,0.0,0.0,0.0,0.0,0.0,0.0,0.0,0.0,0.0,0.0,0.0,0.0,0.0,0.0,0.0,0.0,0.0,0.0,0.0,0.0,0.0,0.0,0.0,0.0,0.0,0.0,0.0,0.0,0.0,0.0,0.0,0.0,0.0,0.0,0.0,0.0,0.0,0.0,0.0,0.0,0.0,0.0,0.0,0.0,0.0,0.0,0.0,0.0,-0.495,-0.4109,-0.3445,-0.2929,-0.1764,-0.095,0.0,0.0,0.0,0.0,0.0,0.0,0.0,0.0,0.0,0.0,0.0,0.0,0.0,0.0,0.0,0.0,0.0,0.0,0.0,0.0,0.0,0.0,0.0,0.0,0.0,0.0,0.0,0.0,0.0,0.0,0.0,0.0,0.0,0.0,0.0,0.0,0.0,0.0,0.0,0.0,0.0,0.0,0.0,0.0,0.0,0.0,0.0,0.0,0.0,0.0,0.0,0.0,0.0,0.0,0.0,0.0,0.0,0.0,0.0,0.0,0.0,0.0,0.0,0.0,0.0,0.0,0.0,0.0,0.0,0.0,0.0,0.0,0.0,0.0,0.0,0.0,0.0,0.0,0.0,0.0,0.0,0.0,0.0,0.0,0.0,0.0,0.0,0.0,0.0,0.0,0.0,0.0,0.0,0.0,0.0,0.0,0.0,0.0,0.0,0.0,0.0,0.0,0.0,0.0,0.0,0.0,0.0,0.0,0.0,-0.6093,-0.4886,-0.3682,-0.2533,-0.2344,-0.1667,0.0,0.0,0.0,0.0,0.0,0.0,0.0,0.0,0.0,0.0,0.0,0.0,0.0,0.0,0.0,0.0,0.0,0.0,0.0,0.0,0.0,0.0,0.0,0.0,0.0,0.0,0.0,0.0,0.0,0.0,0.0,0.0,0.0,0.0,0.0,0.0,0.0,0.0,0.0,0.0,0.0,0.0,0.0,0.0,0.0,0.0,0.0,0.0,0.0,0.0,0.0,0.0,0.0,0.0,0.0,0.0,0.0,0.0,0.0,0.0,0.0,0.0,0.0,0.0,0.0,0.0,0.0,0.0,0.0,0.0,0.0,0.0,0.0,0.0,0.0,0.0,0.0,0.0,0.0,0.0,0.0,0.0,0.0,0.0,0.0,0.0,0.0,0.0,0.0,0.0,0.0,0.0,0.0,0.0,0.0,0.0,0.0,0.0,0.0,0.0,0.0,0.0,0.0,0.0,0.0,0.0,0.0,0.0,0.0,0.0,-0.4352,-0.374,-0.3728,-0.2949,-0.2133,-0.1471,0.0,0.0,0.0,0.0,0.0,0.0,0.0,0.0,0.0,0.0,0.0,0.0,0.0,0.0,0.0,0.0,0.0,0.0,0.0,0.0,0.0,0.0,0.0,0.0,0.0,0.0,0.0,0.0,0.0,0.0,0.0,0.0,0.0,0.0,0.0,0.0,0.0,0.0,0.0,0.0,0.0,0.0,0.0,0.0,0.0,0.0,0.0,0.0,0.0,0.0,0.0,0.0,0.0,0.0,0.0,0.0,0.0,0.0,0.0,0.0,0.0,0.0,0.0,0.0,0.0,0.0,0.0,0.0,0.0,0.0,0.0,0.0,0.0,0.0,0.0,0.0,0.0,0.0,0.0,0.0,0.0,0.0,0.0,0.0,0.0,0.0,0.0,0.0,0.0,0.0,0.0,0.0,0.0,0.0,0.0,0.0,0.0,0.0,0.0,0.0,0.0,0.0,0.0,0.0,0.0,0.0,0.0,0.0,0.0,0.0,-0.4423,-0.5067,-0.3783,-0.2746,0.0,0.0,0.0,0.0,0.0,0.0,0.0,0.0,0.0,0.0,0.0,0.0,0.0,0.0,0.0,0.0,0.0,0.0,0.0,0.0,0.0,0.0,0.0,0.0,0.0,0.0,0.0,0.0,0.0,0.0,0.0,0.0,0.0,0.0,0.0,0.0,0.0,0.0,0.0,0.0,0.0,0.0,0.0,0.0,0.0,0.0,0.0,0.0,0.0,0.0,0.0,0.0,0.0,0.0,0.0,0.0,0.0,0.0,0.0,0.0,0.0,0.0,0.0,0.0,0.0,0.0,0.0,0.0,0.0,0.0,0.0,0.0,0.0,0.0,0.0,0.0,0.0,0.0,0.0,0.0,0.0,0.0,0.0,0.0,0.0,0.0,0.0,0.0,0.0,0.0,0.0,0.0,0.0,0.0,0.0,0.0,0.0,0.0,0.0,0.0,0.0,0.0,0.0,0.0,0.0,0.0,0.0,0.0,0.0,0.0,0.0,-0.534,-0.6038,-0.4674,0.0,-0.2376,0.0,0.0,0.0,0.0,0.0,0.0,0.0,0.0,0.0,0.0,0.0,0.0,0.0,0.0,0.0,0.0,0.0,0.0,0.0,0.0,0.0,0.0,0.0,0.0,0.0,0.0,0.0,0.0,0.0,0.0,0.0,0.0,0.0,0.0,0.0,0.0,0.0,0.0,0.0,0.0,0.0,0.0,0.0,0.0,0.0,0.0,0.0,0.0,0.0,0.0,0.0,0.0,0.0,0.0,0.0,0.0,0.0,0.0,0.0,0.0,0.0,0.0,0.0,0.0,0.0,0.0,0.0,0.0,0.0,0.0,0.0,0.0,0.0,0.0,0.0,0.0,0.0,0.0,0.0,0.0,0.0,0.0,0.0,0.0,0.0,0.0,0.0,0.0,0.0,0.0,0.0,0.0,0.0,0.0,0.0,0.0,0.0,0.0,0.0,0.0,0.0,0.0,0.0,0.0,0.0,0.0,0.0,0.0,0.0,0.0,0.0,0.0,-0.4332,-0.3598,-0.3043,0.0,0.0,0.0,0.0,0.0,0.0,0.0,0.0,0.0,0.0,0.0,0.0,0.0,0.0,0.0,0.0,0.0,0.0,0.0,0.0,0.0,0.0,0.0,0.0,0.0,0.0,0.0,0.0,0.0,0.0,0.0,0.0,0.0,0.0,0.0,0.0,0.0,0.0,0.0,0.0,0.0,0.0,0.0,0.0,0.0,0.0,0.0,0.0,0.0,0.0,0.0,0.0,0.0,0.0,0.0,0.0,0.0,0.0,0.0,0.0,0.0,0.0,0.0,0.0,0.0,0.0,0.0,0.0,0.0,0.0,0.0,0.0,0.0,0.0,0.0,0.0,0.0,0.0,0.0,0.0,0.0,0.0,0.0,0.0,0.0,0.0,0.0,0.0,0.0,0.0,0.0,0.0,0.0,0.0,0.0,0.0,0.0,0.0,0.0,0.0,0.0,0.0,0.0,0.0,0.0,0.0,0.0,0.0,0.0,0.0,-0.4506,-0.4738,-0.419,-0.3613,-0.3081,0.0,0.0,0.0,0.0,0.0,0.0,0.0,0.0,0.0,0.0,0.0,0.0,0.0,0.0,0.0,0.0,0.0,0.0,0.0,0.0,0.0,0.0,0.0,0.0,0.0,0.0,0.0,0.0,0.0,0.0,0.0,0.0,0.0,0.0,0.0,0.0,0.0,0.0,0.0,0.0,0.0,0.0,0.0,0.0,0.0,0.0,0.0,0.0,0.0,0.0,0.0,0.0,0.0,0.0,0.0,0.0,0.0,0.0,0.0,0.0,0.0,0.0,0.0,0.0,0.0,0.0,0.0,0.0,0.0,0.0,0.0,0.0,0.0,0.0,0.0,0.0,0.0,0.0,0.0,0.0,0.0,0.0,0.0,0.0,0.0,0.0,0.0,0.0,0.0,0.0,0.0,0.0,0.0,0.0,0.0,0.0,0.0,0.0,0.0,0.0,0.0,0.0,0.0,0.0,0.0,0.0,0.0,0.0,0.0,0.0,0.0,0.0,0.0,0.0,-0.2854,0.0,0.0,0.0,0.0,0.0,0.0,0.0,0.0,0.0,0.0,0.0,0.0,0.0,0.0,0.0,0.0,0.0,0.0,0.0,0.0,0.0,0.0,0.0,0.0,0.0,0.0,0.0,0.0,0.0,0.0,0.0,0.0,0.0,0.0,0.0,0.0,0.0,0.0,0.0,0.0,0.0,0.0,0.0,0.0,0.0,0.0,0.0,0.0,0.0,0.0,0.0,0.0,0.0,0.0,0.0,0.0,0.0,0.0,0.0,0.0,0.0,0.0,0.0,0.0,0.0,0.0,0.0,0.0,0.0,0.0,0.0,0.0,0.0,0.0,0.0,0.0,0.0,0.0,0.0,0.0,0.0,0.0,0.0,0.0,0.0,0.0,0.0,0.0,0.0,0.0,0.0,0.0,0.0,0.0,0.0,0.0,0.0,0.0,0.0,0.0,0.0,0.0,0.0,0.0,0.0,0.0,0.0,0.0,0.0,0.0,0.0,0.0,0.0,0.0,0.0,0.0,0.0,0.0,0.0,0.0,0.0,0.0,0.0,0.0,0.0,0.0,0.0,0.0,0.0,0.0,0.0,0.0,0.0,0.0,0.0,0.0,0.0,0.0,0.0,0.0,0.0,0.0,0.0,0.0,0.0,0.0,0.0,0.0,0.0,0.0,0.0,0.0,0.0,0.0,0.0,0.0,0.0,0.0,0.0,0.0,0.0,0.0,0.0,0.0,0.0,0.0,0.0,0.0,0.0,0.0,0.0,0.0,0.0,0.0,0.0,0.0,0.0,0.0,0.0,0.0,0.0,0.0,0.0,0.0,0.0,0.0,0.0,0.0,0.0,0.0,0.0,0.0,0.0,0.0,0.0,0.0,0.0,0.0,0.0,0.0,0.0,0.0,0.0,0.0,0.0,0.0,0.0,0.0,0.0,0.0,0.0,0.0,0.0,0.0,0.0,0.0,0.0,0.0,0.0,0.0,0.0,0.0,0.0,0.0,0.0,0.0,0.0,0.0,0.0,0.0,0.0,0.0,0.0,0.0,0.0,0.0,0.0,0.0,0.0,0.0,0.0,0.0,0.0,0.0,0.0,0.0,0.0,0.0,0.0,0.0,0.0,0.0,0.0,0.0,0.0,0.0,0.0,0.0,0.0,0.0,0.0,0.0,0.0,0.0,0.0,0.0,0.0,0.0,0.0,0.0,0.0,0.0,0.0,0.0,0.0,0.0,0.0,0.0,0.0,0.0,0.0,0.0,0.0,0.0,0.0,0.0,0.0,0.0,0.0,0.0,0.0,0.0,0.0,0.0,0.0,0.0,0.0,0.0,0.0,0.0,0.0,0.0,0.0,0.0,0.0,0.0,0.0,0.0,0.0,0.0,0.0,0.0,0.0,0.0,0.0,0.0,0.0,0.0,0.0,0.0,0.0,0.0,0.0,0.0,0.0,0.0,0.0,0.0,0.0,0.0,0.0,0.0,0.0,0.0,0.0,0.0,0.0,0.0,0.0,0.0,0.0,0.0,0.0,0.0,0.0,0.0,0.0,0.0,0.0,0.0,0.0,0.0,0.0,0.0,0.0,0.0,0.0,0.0,0.0,0.0,0.0,0.0,0.0,0.0,0.0,0.0,0.0,0.0,0.0,0.0,0.0,0.0,0.0,0.0,0.0,0.0,0.0,0.0,0.0,0.0,0.0,0.0,0.0,0.0,0.0,0.0,0.0,0.0,0.0,0.0,0.0,0.0,0.0,0.0,0.0,0.0,0.0,0.0,0.0,0.0,0.0,0.0,0.0,0.0,0.0,0.0,0.0,0.0,0.0,0.0,0.0,0.0,0.0,0.0,0.0,0.0,0.0,0.0,0.0,0.0,0.0,0.0,0.0,0.0,0.0,0.0,0.0,0.0,0.0,0.0,0.0,0.0,0.0,0.0,0.0,0.0,0.0,0.0,0.0,0.0,0.0,0.0,0.0,0.0,0.0,0.0,0.0,0.0,0.0,0.0,0.0,0.0,0.0,0.0,0.0,0.0,0.0,0.0,0.0,0.0,0.0,0.0,0.0,0.0,0.0,0.0,0.0,0.0,0.0,0.0,0.0,0.0,0.0,0.0,0.0,0.0,0.0,0.0,0.0,0.0,0.0,0.0,0.0,0.0,0.0,0.0,0.0,0.0,0.0,0.0,0.0,0.0,0.0,0.0,0.0,0.0,0.0,0.0,0.0,0.0,0.0,0.0,0.0,0.0,0.0,0.0,0.0,0.0,0.0,0.0,0.0,0.0,0.0,0.0,0.0,0.0,0.0,0.0,0.0,0.0,0.0,0.0,0.0,0.0,0.0,0.0,0.0,0.0,0.0,0.0,0.0,0.0,0.0,0.0,0.0,0.0,0.0,0.0,0.0,0.0,0.0,0.0,0.0,0.0,0.0,0.0,0.0,0.0,0.0,0.0,0.0,0.0,0.0,0.0,0.0,0.0,0.0,0.0,0.0,0.0,0.0,0.0,0.0,0.0,0.0,0.0,0.0,0.0,0.0,0.0,0.0,0.0,0.0,0.0,0.0,0.0,0.0,0.0,0.0,0.0,0.0,0.0,0.0,0.0,0.0,0.0,0.0,0.0,0.0,0.0,0.0,0.0,0.0,0.0,0.0,0.0,0.0,0.0,0.0,0.0,0.0,0.0,0.0,0.0,0.0,0.0,0.0,0.0,0.0,0.0,0.0,0.0,0.0,0.0,0.0,0.0,0.0,0.0,0.0,0.0,0.0,0.0,0.0,0.0,0.0,0.0,0.0,0.0,0.0,0.0,0.0,0.0,0.0,0.0,0.0,0.0,0.0,0.0,0.0,0.0,0.0,0.0,0.0,0.0,0.0,0.0,0.0,0.0,0.0,0.0,0.0,0.0,0.0,0.0,0.0,0.0,0.0,0.0,0.0,0.0,0.0,0.0,0.0,0.0,0.0,0.0,0.0,0.0,0.0,0.0,0.0,0.0,0.0,0.0,0.0,0.0,0.0,0.0,0.0,0.0,0.0,0.0,0.0,0.0,0.0,0.0,0.0,0.0,0.0,0.0,0.0,0.0,0.0,0.0,0.0,0.0,0.0,0.0,0.0,0.0,0.0,0.0,0.0,0.0,0.0,0.0,0.0,0.0,0.0,0.0,0.0,0.0,0.0,0.0,0.0,0.0,0.0,0.0,0.0,0.0,0.0,0.0,0.0,0.0,0.0,0.0,0.0,0.0,0.0,0.0,0.0,0.0,0.0,0.0,0.0,0.0,0.0,0.0,0.0,0.0,0.0,0.0,0.0,0.0,0.0,0.0,0.0,0.0,0.0,0.0,0.0,0.0,0.0,0.0,0.0,0.0,0.0,0.0,0.0,0.0,0.0,0.0,0.0,0.0,0.0,0.0,0.0,0.0,0.0,0.0,0.0,0.0,0.0,0.0,0.0,0.0,0.0,0.0,0.0,0.0,0.0,0.0,0.0,0.0,0.0,0.0,0.0,0.0,0.0,0.0,0.0,0.0,0.0,0.0,0.0,0.0,0.0,0.0,0.0,0.0,0.0,0.0,0.0,0.0,0.0,0.0,0.0,0.0,0.0,0.0,0.0,0.0,0.0,0.0,0.0,0.0,0.0,0.0,0.0,0.0,0.0,0.0,0.0,0.0,0.0,0.0,0.0,0.0,0.0,0.0,0.0,0.0,0.0,0.0,0.0,0.0,0.0,0.0,0.0,0.0,0.0,0.0,0.0,0.0,0.0,0.0,0.0,0.0,0.0,0.0,0.0,0.0,0.0,0.0,0.0,0.0,0.0,0.0,0.0,0.0,0.0,0.0,0.0,0.0,0.0,0.0,0.0,0.0,0.0,0.0,0.0,0.0,0.0,0.0,0.0,0.0,0.0,0.0,0.0,0.0,0.0,0.0,0.0,0.0,0.0,0.0,0.0,0.0,0.0,0.0,0.0,0.0,0.0,0.0,0.0,0.0,0.0,0.0,0.0,0.0,0.0,0.0,0.0,0.0,0.0,0.0,0.0,0.0,0.0,0.0,0.0,0.0,0.0,0.0,0.0,0.0,0.0,0.0,0.0,0.0,0.0,0.0,0.0,0.0,0.0,0.0,0.0,0.0,0.0,0.0,0.0,0.0,0.0,0.0,0.0,0.0,0.0,0.0,0.0,0.0,0.0,0.0,0.0,0.0,0.0,0.0,0.0,0.0,0.0,0.0,0.0,0.0,0.0,0.0,0.0,0.0,0.0,0.0,0.0,0.0,0.0,0.0,0.0,0.0,0.0,0.0,0.0,0.0,0.0,0.0,0.0,0.0,0.0,0.0,0.0,0.0,0.0,0.0,0.0,0.0,0.0,0.0,0.0,0.0,0.0,0.0,0.0,0.0]}]]]